[[{"header":{"parameterUnit":"m.s-1","parameterCategory":1,"la1":30.6,"la2":28.766,"lo1":-90.7593,"lo2":-88.6598,"dy":0.0162,"dx":0.0183,"nx":116,"ny":114,"refTime":"2024-03-31T12:00:00:Z","depth":0,"parameterNumber":2,"parameterNumberName":"U-component_of_WINDS"},"data":[0.0,0.0,0.0,0.0,0.0,0.0,0.0,0.0,0.0,0.0,0.0,0.0,0.0,0.0,0.0,0.0,0.0,0.0,0.0,0.0,0.0,0.0,0.0,0.0,0.0,0.0,0.0,0.0,0.0,0.0,0.0,0.0,0.0,0.0,0.0,0.0,0.0,0.0,0.0,0.0,0.0,0.0,0.0,0.0,0.0,0.0,0.0,0.0,0.0,0.0,0.0,0.0,0.0,0.0,0.0,0.0,0.0,0.0,0.0,0.0,0.0,0.0,0.0,0.0,0.0,0.0,0.0,0.0,0.0,0.0,0.0,0.0,0.0,0.0,0.0,0.0,0.0,0.0,0.0,0.0,0.0,0.0,0.0,0.0,0.0,0.0,0.0,0.0,0.0,0.0,0.0,0.0,0.0,0.0,0.0,0.0,0.0,0.0,0.0,0.0,0.0,0.0,0.0,0.0,0.0,0.0,0.0,0.0,0.0,0.0,0.0,0.0,0.0,0.0,0.0,0.0,0.0,0.0,0.0,0.0,0.0,0.0,0.0,0.0,0.0,0.0,0.0,0.0,0.0,0.0,0.0,0.0,0.0,0.0,0.0,0.0,0.0,0.0,0.0,0.0,0.0,0.0,0.0,0.0,0.0,0.0,0.0,0.0,0.0,0.0,0.0,0.0,0.0,0.0,0.0,0.0,0.0,0.0,0.0,0.0,0.0,0.0,0.0,0.0,0.0,0.0,0.0,0.0,0.0,0.0,0.0,0.0,0.0,0.0,0.0,0.0,0.0,0.0,0.0,0.0,0.0,0.0,0.0,0.0,0.0,0.0,0.0,0.0,0.0,0.0,0.0,0.0,0.0,0.0,0.0,0.0,0.0,0.0,0.0,0.0,0.0,0.0,0.0,0.0,0.0,0.0,0.0,0.0,0.0,0.0,0.0,0.0,0.0,0.0,0.0,0.0,0.0,0.0,0.0,0.0,0.0,0.0,0.0,0.0,0.0,0.0,0.0,0.0,0.0,0.0,0.0,0.0,0.0,0.0,0.0,0.0,0.0,0.0,0.0,0.0,0.0,0.0,0.0,0.0,0.0,0.0,0.0,0.0,0.0,0.0,0.0,0.0,0.0,0.0,0.0,0.0,0.0,0.0,0.0,0.0,0.0,0.0,0.0,0.0,0.0,0.0,0.0,0.0,0.0,0.0,0.0,0.0,0.0,0.0,0.0,0.0,0.0,0.0,0.0,0.0,0.0,0.0,0.0,0.0,0.0,0.0,0.0,0.0,0.0,0.0,0.0,0.0,0.0,0.0,0.0,0.0,0.0,0.0,0.0,0.0,0.0,0.0,0.0,0.0,0.0,0.0,0.0,0.0,0.0,0.0,0.0,0.0,0.0,0.0,0.0,0.0,0.0,0.0,0.0,0.0,0.0,0.0,0.0,0.0,0.0,0.0,0.0,0.0,0.0,0.0,0.0,0.0,0.0,0.0,0.0,0.0,0.0,0.0,0.0,0.0,0.0,0.0,0.0,0.0,0.0,0.0,0.0,0.0,0.0,0.0,0.0,0.0,0.0,0.0,0.0,0.0,0.0,0.0,0.0,0.0,0.0,0.0,0.0,0.0,0.0,0.0,0.0,0.0,0.0,0.0,0.0,0.0,0.0,0.0,0.0,0.0,0.0,0.0,0.0,0.0,0.0,0.0,0.0,0.0,0.0,0.0,0.0,0.0,0.0,0.0,0.0,0.0,0.0,0.0,0.0,0.0,0.0,0.0,0.0,0.0,0.0,0.0,0.0,0.0,0.0,0.0,0.0,0.0,0.0,0.0,0.0,0.0,0.0,0.0,0.0,0.0,0.0,0.0,0.0,0.0,0.0,0.0,0.0,0.0,0.0,0.0,0.0,0.0,0.0,0.0,0.0,0.0,0.0,0.0,0.0,0.0,0.0,0.0,0.0,0.0,0.0,0.0,0.0,0.0,0.0,0.0,0.0,0.0,0.0,0.0,0.0,0.0,0.0,0.0,0.0,0.0,0.0,0.0,0.0,0.0,0.0,0.0,0.0,0.0,0.0,0.0,0.0,0.0,0.0,0.0,0.0,0.0,0.0,0.0,0.0,0.0,0.0,0.0,0.0,0.0,0.0,0.0,0.0,0.0,0.0,0.0,0.0,0.0,0.0,0.0,0.0,0.0,0.0,0.0,0.0,0.0,0.0,0.0,0.0,0.0,0.0,0.0,0.0,0.0,0.0,0.0,0.0,0.0,0.0,0.0,0.0,0.0,0.0,0.0,0.0,0.0,0.0,0.0,0.0,0.0,0.0,0.0,0.0,0.0,0.0,0.0,0.0,0.0,0.0,0.0,0.0,0.0,0.0,0.0,0.0,0.0,0.0,0.0,0.0,0.0,0.0,0.0,0.0,0.0,0.0,0.0,0.0,0.0,0.0,0.0,0.0,0.0,0.0,0.0,0.0,0.0,0.0,0.0,0.0,0.0,0.0,0.0,0.0,0.0,0.0,0.0,0.0,0.0,0.0,0.0,0.0,0.0,0.0,0.0,0.0,0.0,0.0,0.0,0.0,0.0,0.0,0.0,0.0,0.0,0.0,0.0,0.0,0.0,0.0,0.0,0.0,0.0,0.0,0.0,0.0,0.0,0.0,0.0,0.0,0.0,0.0,0.0,0.0,0.0,0.0,0.0,0.0,0.0,0.0,0.0,0.0,0.0,0.0,0.0,0.0,0.0,0.0,0.0,0.0,0.0,0.0,0.0,0.0,0.0,0.0,0.0,0.0,0.0,0.0,0.0,0.0,0.0,0.0,0.0,0.0,0.0,0.0,0.0,0.0,0.0,0.0,0.0,0.0,0.0,0.0,0.0,0.0,0.0,0.0,0.0,0.0,0.0,0.0,0.0,0.0,0.0,0.0,0.0,0.0,0.0,0.0,0.0,0.0,0.0,0.0,0.0,0.0,0.0,0.0,0.0,0.0,0.0,0.0,0.0,0.0,0.0,0.0,0.0,0.0,0.0,0.0,0.0,0.0,0.0,0.0,0.0,0.0,0.0,0.0,0.0,0.0,0.0,0.0,0.0,0.0,0.0,0.0,0.0,0.0,0.0,0.0,0.0,0.0,0.0,0.0,0.0,0.0,0.0,0.0,0.0,0.0,0.0,0.0,0.0,0.0,0.0,0.0,0.0,0.0,0.0,0.0,0.0,0.0,0.0,0.0,0.0,0.0,0.0,0.0,0.0,0.0,0.0,0.0,0.0,0.0,0.0,0.0,0.0,0.0,0.0,0.0,0.0,0.0,0.0,0.0,0.0,0.0,0.0,0.0,0.0,0.0,0.0,0.0,0.0,0.0,0.0,0.0,0.0,0.0,0.0,0.0,0.0,0.0,0.0,0.0,0.0,0.0,0.0,0.0,0.0,0.0,0.0,0.0,0.0,0.0,0.0,0.0,0.0,0.0,0.0,0.0,0.0,0.0,0.0,0.0,0.0,0.0,0.0,0.0,0.0,0.0,0.0,0.0,0.0,0.0,0.0,0.0,0.0,0.0,0.0,0.0,0.0,0.0,0.0,0.0,0.0,0.0,0.0,0.0,0.0,0.0,0.0,0.0,0.0,0.0,0.0,0.0,0.0,0.0,0.0,0.0,0.0,0.0,0.0,0.0,0.0,0.0,0.0,0.0,0.0,0.0,0.0,0.0,0.0,0.0,0.0,0.0,0.0,0.0,0.0,0.0,0.0,0.0,0.0,0.0,0.0,0.0,0.0,0.0,0.0,0.0,0.0,0.0,0.0,0.0,0.0,0.0,0.0,0.0,0.0,0.0,0.0,0.0,0.0,0.0,0.0,0.0,0.0,0.0,0.0,0.0,0.0,0.0,0.0,0.0,0.0,0.0,0.0,0.0,0.0,0.0,0.0,0.0,0.0,0.0,0.0,0.0,0.0,0.0,0.0,0.0,0.0,0.0,0.0,0.0,0.0,0.0,0.0,0.0,0.0,0.0,0.0,0.0,0.0,0.0,0.0,0.0,0.0,0.0,0.0,0.0,0.0,0.0,0.0,0.0,0.0,0.0,0.0,0.0,0.0,0.0,0.0,0.0,0.0,0.0,0.0,0.0,0.0,0.0,0.0,0.0,0.0,0.0,0.0,0.0,0.0,0.0,0.0,0.0,0.0,0.0,0.0,0.0,0.0,0.0,0.0,0.0,0.0,0.0,0.0,0.0,0.0,0.0,0.0,0.0,0.0,0.0,0.0,0.0,0.0,0.0,0.0,0.0,0.0,0.0,0.0,0.0,0.0,0.0,0.0,0.0,0.0,0.0,0.0,0.0,0.0,0.0,0.0,0.0,0.0,0.0,0.0,0.0,0.0,0.0,0.0,0.0,0.0,0.0,0.0,0.0,0.0,0.0,0.0,0.0,0.0,0.0,0.0,0.0,0.0,0.0,0.0,0.0,0.0,0.0,0.0,0.0,0.0,0.0,0.0,0.0,0.0,0.0,0.0,0.0,0.0,0.0,0.0,0.0,0.0,0.0,0.0,0.0,0.0,0.0,0.0,0.0,0.0,0.0,0.0,0.0,0.0,0.0,0.0,0.0,0.0,0.0,0.0,0.0,0.0,0.0,0.0,0.0,0.0,0.0,0.0,0.0,0.0,0.0,0.0,0.0,0.0,0.0,0.0,0.0,0.0,0.0,0.0,0.0,0.0,0.0,0.0,0.0,0.0,0.0,0.0,0.0,0.0,0.0,0.0,0.0,0.0,0.0,0.0,0.0,0.0,0.0,0.0,0.0,0.0,0.0,0.0,0.0,0.0,0.0,0.0,0.0,0.0,0.0,0.0,0.0,0.0,0.0,0.0,0.0,0.0,0.0,0.0,0.0,0.0,0.0,0.0,0.0,0.0,0.0,0.0,0.0,0.0,0.0,0.0,0.0,0.0,0.0,0.0,0.0,0.0,0.0,0.0,0.0,0.0,0.0,0.0,0.0,0.0,0.0,0.0,0.0,0.0,0.0,0.0,0.0,0.0,0.0,0.0,0.0,0.0,0.0,0.0,0.0,0.0,0.0,0.0,0.0,0.0,0.0,0.0,0.0,0.0,0.0,0.0,0.0,0.0,0.0,0.0,0.0,0.0,0.0,0.0,0.0,0.0,0.0,0.0,0.0,0.0,0.0,0.0,0.0,0.0,0.0,0.0,0.0,0.0,0.0,0.0,0.0,0.0,0.0,0.0,0.0,0.0,0.0,0.0,0.0,0.0,0.0,0.0,0.0,0.0,0.0,0.0,0.0,0.0,0.0,0.0,0.0,0.0,0.0,0.0,0.0,0.0,0.0,0.0,0.0,0.0,0.0,0.0,0.0,0.0,0.0,0.0,0.0,0.0,0.0,0.0,0.0,0.0,0.0,0.0,0.0,0.0,0.0,0.0,0.0,0.0,0.0,0.0,0.0,0.0,0.0,0.0,0.0,0.0,0.0,0.0,0.0,0.0,0.0,0.0,0.0,0.0,0.0,0.0,0.0,0.0,0.0,0.0,0.0,0.0,0.0,0.0,0.0,0.0,0.0,0.0,0.0,0.0,0.0,0.0,0.0,0.0,0.0,0.0,0.0,0.0,0.0,0.0,0.0,0.0,0.0,0.0,0.0,0.0,0.0,0.0,0.0,0.0,0.0,0.0,0.0,0.0,0.0,0.0,0.0,0.0,0.0,0.0,0.0,0.0,0.0,0.0,0.0,0.0,0.0,0.0,0.0,0.0,0.0,0.0,0.0,0.0,0.0,0.0,0.0,0.0,0.0,0.0,0.0,0.0,0.0,0.0,0.0,0.0,0.0,0.0,0.0,0.0,0.0,0.0,0.0,0.0,0.0,0.0,0.0,0.0,0.0,0.0,0.0,0.0,0.0,0.0,0.0,0.0,0.0,0.0,0.0,0.0,0.0,0.0,0.0,0.0,0.0,0.0,0.0,0.0,0.0,0.0,0.0,0.0,0.0,0.0,0.0,0.0,0.0,0.0,0.0,0.0,0.0,0.0,0.0,0.0,0.0,0.0,0.0,0.0,0.0,0.0,0.0,0.0,0.0,0.0,0.0,0.0,0.0,0.0,0.0,0.0,0.0,0.0,0.0,0.0,-4.0394,0.0,0.0,0.0,0.0,0.0,0.0,0.0,0.0,0.0,0.0,0.0,0.0,0.0,0.0,0.0,0.0,0.0,0.0,0.0,0.0,0.0,0.0,0.0,0.0,-4.0248,-4.0485,-4.1305,-4.1208,-4.1123,-4.1123,0.0,0.0,0.0,0.0,0.0,-3.99,-3.99,-3.9708,-3.9284,-3.8469,-3.7578,-3.6634,-3.7868,-3.9007,-3.9938,0.0,0.0,0.0,0.0,0.0,0.0,0.0,0.0,0.0,0.0,0.0,0.0,0.0,0.0,0.0,0.0,0.0,0.0,0.0,0.0,0.0,0.0,0.0,0.0,0.0,0.0,0.0,0.0,0.0,0.0,0.0,0.0,0.0,0.0,0.0,0.0,0.0,0.0,0.0,0.0,0.0,0.0,0.0,0.0,0.0,0.0,0.0,0.0,0.0,0.0,0.0,0.0,0.0,0.0,0.0,0.0,0.0,0.0,0.0,0.0,0.0,0.0,0.0,0.0,0.0,0.0,0.0,0.0,0.0,0.0,0.0,-4.1918,0.0,0.0,0.0,0.0,0.0,0.0,0.0,0.0,0.0,0.0,0.0,0.0,0.0,0.0,0.0,0.0,0.0,0.0,0.0,0.0,0.0,-3.9938,-4.012,-4.0195,-4.0779,-4.2179,-4.2131,-4.2038,-4.2038,-4.1885,0.0,0.0,-4.0593,-4.0516,-4.0516,-4.0516,-4.0092,-3.9284,-3.77,-3.6542,-3.587,-3.7324,-3.8597,-3.9645,-3.9884,0.0,0.0,0.0,0.0,0.0,0.0,0.0,0.0,0.0,0.0,0.0,0.0,0.0,0.0,0.0,0.0,0.0,0.0,0.0,0.0,0.0,0.0,0.0,0.0,0.0,0.0,0.0,0.0,0.0,0.0,0.0,0.0,0.0,0.0,0.0,0.0,0.0,0.0,0.0,0.0,0.0,0.0,0.0,0.0,0.0,0.0,0.0,0.0,0.0,0.0,0.0,0.0,0.0,0.0,0.0,0.0,0.0,0.0,0.0,0.0,0.0,0.0,0.0,-4.5247,-4.5902,-4.5671,-4.7355,-4.6971,-4.4932,-4.4278,-4.3381,-4.2531,0.0,0.0,0.0,0.0,0.0,0.0,0.0,0.0,0.0,0.0,0.0,0.0,0.0,0.0,0.0,0.0,0.0,0.0,0.0,0.0,-4.0921,-4.1859,-4.2421,-4.2813,-4.3045,-4.298,-4.2931,-4.2931,-4.2239,-4.1731,-4.1623,-4.0893,-4.0516,-4.0516,-4.0516,-4.0092,-3.9284,-3.8315,-3.8146,-3.8777,-3.9393,-4.0176,-4.095,-3.8888,-3.9584,-4.2192,0.0,0.0,0.0,0.0,0.0,0.0,0.0,0.0,0.0,0.0,0.0,0.0,0.0,0.0,0.0,0.0,0.0,0.0,0.0,0.0,0.0,0.0,0.0,0.0,0.0,0.0,0.0,0.0,0.0,0.0,0.0,0.0,0.0,0.0,0.0,0.0,0.0,0.0,0.0,0.0,0.0,-3.7623,-3.7123,0.0,0.0,0.0,0.0,0.0,0.0,0.0,0.0,0.0,0.0,0.0,0.0,0.0,-4.4787,-4.6086,-4.6215,-4.5937,-4.5282,-4.6989,-4.7009,-4.5671,-4.7355,-4.7932,-4.7586,-4.7509,0.0,-4.3951,-4.3672,0.0,0.0,0.0,0.0,0.0,0.0,0.0,0.0,0.0,0.0,0.0,0.0,0.0,0.0,0.0,0.0,0.0,0.0,0.0,0.0,0.0,-4.3102,-4.3402,-4.3899,-4.4284,-4.4278,-4.3816,-4.3893,-4.3316,-4.1846,-4.1431,-4.1008,-4.0516,-4.0054,-3.94,-3.8584,-3.9123,-3.9307,-3.9078,-3.9757,-4.0338,-4.074,-3.9326,-3.9781,-4.1498,-4.0234,0.0,0.0,0.0,0.0,0.0,0.0,0.0,0.0,0.0,0.0,0.0,0.0,0.0,0.0,0.0,0.0,0.0,0.0,0.0,0.0,0.0,0.0,0.0,0.0,0.0,0.0,0.0,0.0,0.0,0.0,0.0,0.0,0.0,0.0,0.0,0.0,0.0,0.0,0.0,-3.8777,-3.9815,-3.8931,-4.1085,-4.2316,0.0,0.0,0.0,0.0,0.0,0.0,0.0,0.0,0.0,-4.3829,-4.5565,-4.6403,-4.6163,-4.7586,-4.8125,-4.774,-4.9433,-4.9625,-4.8519,-5.0202,-5.0702,-5.0269,-5.0741,-4.9817,-4.7749,-4.5995,-4.5148,-4.4986,0.0,0.0,0.0,0.0,-4.5309,-4.5254,0.0,0.0,0.0,0.0,0.0,0.0,0.0,0.0,0.0,0.0,0.0,0.0,-4.3544,-4.3743,-4.407,-4.4728,-4.5293,-4.5325,-4.4662,-4.4825,-4.4124,-4.2239,-4.1923,-4.1393,-4.0516,-3.99,-3.9207,-3.8315,-4.0246,-4.0751,-3.9983,-4.095,-4.1456,-4.1567,-4.1104,-4.1154,-4.1556,-4.0382,-4.0791,-4.2171,0.0,0.0,0.0,0.0,0.0,0.0,0.0,0.0,0.0,0.0,0.0,0.0,0.0,0.0,0.0,0.0,0.0,0.0,0.0,0.0,0.0,0.0,0.0,0.0,0.0,0.0,0.0,0.0,0.0,0.0,0.0,0.0,0.0,0.0,0.0,0.0,0.0,-3.97,-4.0854,-3.9977,-4.2124,-4.3355,0.0,0.0,0.0,0.0,0.0,0.0,-4.4355,-4.5778,-4.6287,-4.5624,-4.7663,-4.8279,-4.7201,-4.9086,-5.0164,-5.0394,-5.1856,-5.2125,-5.1395,-5.2856,-5.2933,-5.1923,-5.2577,-5.1933,-5.0212,-4.8317,-4.6624,-4.5295,-4.5611,-4.5902,-4.6056,-4.5824,-4.5747,-4.5733,0.0,0.0,0.0,0.0,0.0,0.0,0.0,0.0,0.0,0.0,0.0,-4.2479,-4.4241,-4.5071,-4.5496,-4.5535,-4.5594,-4.5594,-4.5556,-4.4085,-4.3162,-4.3047,-4.2239,-4.1393,-4.0516,-4.0477,-4.0054,-3.9246,-4.1739,-4.2923,-4.2915,-4.4248,-4.4838,-4.4832,-4.4486,-4.4213,-4.3729,-4.0779,-4.1605,-4.4696,-4.2237,0.0,0.0,0.0,0.0,0.0,0.0,0.0,0.0,0.0,0.0,0.0,0.0,0.0,0.0,0.0,0.0,0.0,0.0,0.0,0.0,0.0,0.0,0.0,0.0,0.0,0.0,0.0,0.0,0.0,0.0,0.0,0.0,0.0,0.0,0.0,0.0,0.0,0.0,-3.8238,-4.0354,0.0,0.0,0.0,0.0,-4.4008,-4.4979,-4.6163,-4.7778,-4.8702,-4.9202,-4.9125,-5.0048,-5.0894,-5.1577,-5.1692,-5.2192,-5.301,-5.3933,-5.3895,-5.3126,-5.401,-5.351,-5.1885,-5.1962,-5.101,-4.9471,-4.9317,-4.874,-4.7778,-4.6219,-4.6103,-4.6758,-4.5911,-4.5612,-4.5612,0.0,0.0,0.0,0.0,0.0,-3.7238,-3.7507,-3.92,-4.0924,-4.2101,-4.2934,-4.4072,-4.5833,-4.6283,-4.6432,-4.6432,-4.6432,-4.597,-4.4855,-4.4201,-4.3624,-4.3124,-4.2816,-4.2239,-4.1354,-4.0785,-4.09,-4.1739,-4.3162,-4.4162,-4.4701,-4.5197,-4.5293,-4.5077,-4.4966,-4.4751,-4.4288,-4.2059,-4.177,-4.2723,-4.1463,-4.2047,0.0,0.0,0.0,0.0,0.0,0.0,0.0,0.0,0.0,0.0,0.0,0.0,0.0,0.0,0.0,0.0,0.0,0.0,0.0,0.0,0.0,0.0,0.0,0.0,0.0,0.0,0.0,0.0,0.0,0.0,0.0,0.0,0.0,0.0,0.0,0.0,0.0,-4.2786,-4.4624,0.0,-4.4701,-4.5355,-4.5893,-4.597,-4.724,-4.8548,-4.9702,-5.0548,-5.1279,-5.1818,-5.2702,-5.328,-5.3587,-5.4087,-5.4511,-5.4818,-5.5126,-5.5126,-5.4818,-5.5126,-5.4934,-5.4318,-5.3818,-5.2933,-5.1818,-5.1241,-4.9856,-4.8048,-4.7432,-4.7394,-4.7625,-4.7317,-4.7201,-4.7201,0.0,0.0,0.0,0.0,-3.6423,-3.7315,-3.7892,-3.9662,-4.1354,-4.2508,-4.3393,-4.4547,-4.6278,-4.674,-4.6885,-4.6885,-4.6624,-4.597,-4.4816,-4.4201,-4.3778,-4.3508,-4.3239,-4.2431,-4.1008,-4.1508,-4.22,-4.3085,-4.4201,-4.5017,-4.5594,-4.5594,-4.5658,-4.5722,-4.5722,-4.5524,-4.5091,-4.3918,-4.2938,-4.2122,-4.1353,-4.2284,-4.3867,0.0,0.0,0.0,0.0,0.0,0.0,0.0,0.0,0.0,0.0,0.0,0.0,0.0,0.0,0.0,0.0,0.0,0.0,0.0,0.0,0.0,0.0,0.0,0.0,0.0,0.0,0.0,0.0,0.0,0.0,0.0,0.0,0.0,0.0,0.0,-4.447,-4.5855,-4.7278,-4.8009,-4.7778,-4.824,-4.8432,-4.8202,-4.974,-5.1048,-5.1943,-5.2741,-5.3472,-5.4049,-5.4587,-5.4895,-5.4895,-5.5434,-5.5703,-5.5703,-5.5703,-5.5549,-5.528,-5.4972,-5.4703,-5.4357,-5.3549,-5.2895,-5.2318,-5.1741,-5.051,-4.8933,-4.8663,-4.8548,-4.8548,-4.8548,-4.8548,-4.8509,0.0,0.0,0.0,-3.55,-3.6853,-3.793,-3.8007,-4.0123,-4.1731,-4.1769,-4.2547,-4.3778,-4.5441,-4.6394,-4.6923,-4.6923,-4.6086,-4.5556,-4.5556,-4.397,-4.3431,-4.4239,-4.3508,-4.1931,-3.9515,-4.2624,-4.3893,-4.3162,-4.4786,-4.5594,-4.5594,-4.5594,-4.6086,-4.6885,-4.6885,-4.6685,-4.632,-4.632,-4.5223,-4.3277,-4.2118,-4.2758,-4.4369,0.0,0.0,0.0,0.0,0.0,0.0,0.0,0.0,0.0,0.0,0.0,0.0,0.0,0.0,0.0,0.0,0.0,0.0,0.0,0.0,0.0,0.0,0.0,0.0,0.0,0.0,0.0,0.0,0.0,0.0,0.0,0.0,0.0,-4.0554,-4.3517,-4.597,-4.6932,-4.774,-4.8586,-4.9433,-4.9548,-4.9894,-5.075,-5.2356,-5.3703,-5.4511,-5.5318,-5.5742,-5.5742,-5.5703,-5.5703,-5.5703,-5.5703,-5.5703,-5.5703,-5.5703,-5.528,-5.4511,-5.3626,-5.2779,-5.1923,-5.1087,-5.075,-5.075,-5.0712,-5.0712,-5.0635,-4.9779,-4.9433,-4.9433,-4.9433,-4.9433,-4.9279,0.0,0.0,-3.55,-3.55,-3.5885,-3.6615,-3.7815,-3.9123,-4.02,-4.0777,-4.2662,-4.4393,-4.5479,-4.6394,-4.7115,-4.774,-4.5855,-4.4662,-4.4662,-4.3085,-4.2547,-4.3393,-4.2624,-4.2393,-4.2893,-4.3278,-4.3932,-4.4902,-4.5364,-4.5594,-4.5594,-4.5594,-4.6086,-4.6885,-4.6885,-4.6857,-4.6743,-4.7095,-4.658,-4.5299,-4.3291,-4.2781,-4.3189,0.0,0.0,0.0,0.0,0.0,0.0,0.0,0.0,0.0,0.0,0.0,0.0,0.0,0.0,0.0,0.0,0.0,0.0,0.0,0.0,0.0,0.0,0.0,0.0,0.0,0.0,0.0,0.0,0.0,0.0,0.0,0.0,-4.3201,-4.4094,-4.5547,-4.7317,-4.9394,-5.0933,-5.1895,-5.2125,-5.2741,-5.3203,-5.3433,-5.5011,-5.606,-5.6291,-5.6522,-5.6637,-5.6637,-5.6011,-5.5703,-5.5703,-5.5703,-5.5703,-5.5703,-5.5703,-5.5588,-5.5318,-5.4511,-5.401,-5.3703,-5.2202,-5.1587,-5.151,-5.0933,-5.0712,-5.0673,-5.0442,-5.0327,-5.0327,-5.0327,-4.9933,-4.9279,0.0,-3.5231,-3.5385,-3.5007,-3.5538,-3.6462,-3.7815,-3.9008,-3.9861,-3.9977,-4.2557,-4.4423,-4.4526,-4.5671,-4.6458,-4.6518,-4.5163,-4.4162,-4.3816,-4.3201,-4.2777,-4.2547,-4.2739,-4.3162,-4.3778,-4.4008,-4.4624,-4.5594,-4.5594,-4.5594,-4.5594,-4.5594,-4.624,-4.7394,-4.7394,-4.7625,-4.7962,-4.8248,-4.7767,-4.6744,-4.5369,-4.4729,-4.4426,-4.3277,-4.3474,-4.4221,-4.3454,-4.353,-4.4008,-4.3722,0.0,0.0,0.0,0.0,0.0,0.0,0.0,0.0,0.0,0.0,0.0,0.0,0.0,0.0,0.0,0.0,0.0,0.0,0.0,0.0,0.0,0.0,0.0,0.0,-4.397,-4.5518,-4.748,-4.8163,-4.9317,-5.1471,-5.2933,-5.3895,-5.4203,-5.5049,-5.5395,-5.5011,-5.6896,-5.7742,-5.706,-5.7368,-5.7357,-5.7022,-5.6126,-5.5703,-5.5703,-5.5703,-5.5703,-5.5703,-5.5703,-5.5703,-5.5665,-5.4857,-5.4511,0.0,-5.3049,-5.2231,-5.1885,-5.1779,-5.1318,0.0,0.0,0.0,0.0,0.0,-5.0164,-4.9317,-3.4359,-3.4891,-3.5231,-3.4359,-3.5507,-3.6846,-3.7738,-3.92,-3.9938,-3.913,-4.2026,-4.38,-4.2787,-4.4288,-4.5051,-4.4251,-4.408,-4.3764,-4.3124,-4.3778,-4.3508,-4.2,-4.347,-4.397,-4.3239,-4.4786,-4.5594,-4.5594,-4.5594,-4.5594,-4.5594,-4.5594,-4.6471,-4.8086,-4.8086,-4.8586,-4.9394,-4.951,-4.8892,-4.7826,-4.7903,-4.7578,-4.6838,-4.533,-4.5191,-4.5717,-4.4861,-4.4107,-4.3504,-4.3391,0.0,0.0,0.0,0.0,0.0,0.0,0.0,0.0,0.0,0.0,0.0,0.0,0.0,0.0,0.0,0.0,0.0,0.0,0.0,0.0,0.0,0.0,0.0,0.0,-4.547,-4.721,-5.0635,-5.1135,-5.1664,-5.3164,-5.4126,-5.4934,-5.5626,-5.6406,-5.656,-5.5895,-5.8011,-5.8742,-5.7368,0.0,0.0,0.0,0.0,-5.5703,-5.5703,-5.5703,-5.5703,-5.5703,-5.5703,-5.5703,-5.5665,-5.4857,-5.4511,-5.4434,-5.3587,-5.2779,-5.2115,-5.2895,-5.2279,-5.0827,-5.075,-5.0712,-5.0712,-5.0712,-5.0164,-4.9394,-3.4359,-3.4891,-3.5231,-3.4359,-3.5045,-3.6,-3.6808,-3.7815,-3.8161,-3.7315,-4.02,-4.1762,-4.0269,-4.1622,-4.2866,-4.3368,-4.2788,-4.2577,-4.3055,-4.3239,-4.3201,-4.2854,-4.3778,-4.4239,-4.4085,-4.5056,-4.5594,-4.5594,-4.5594,-4.5594,-4.5594,-4.5594,-4.6471,-4.8086,-4.8086,-4.8586,-4.9433,-5.0164,-4.9913,-4.9096,-4.9836,-4.8884,-4.6979,-4.5999,-4.5734,-4.5719,-4.4576,-4.4497,-4.4819,-4.408,-4.4236,-4.4693,-4.4615,-4.3812,0.0,0.0,0.0,0.0,0.0,0.0,0.0,0.0,0.0,0.0,0.0,0.0,0.0,0.0,0.0,0.0,0.0,0.0,0.0,-4.6971,-4.8086,-4.9856,-5.328,-5.378,-5.3895,-5.4203,-5.4972,-5.5511,-5.5665,-5.5857,-5.6165,-5.6714,-5.7857,-5.8665,-5.9011,-5.855,0.0,-5.805,-5.6511,-5.5703,-5.5703,-5.5703,-5.5703,-5.5703,0.0,0.0,-5.5665,-5.4857,-5.4511,-5.4434,-5.3587,-5.3087,-5.2972,-5.3126,-5.2587,-5.1587,-5.0933,-5.0712,-5.0712,-5.0712,-5.0164,-4.9394,-3.4359,-3.4891,-3.5231,-3.4359,-3.493,-3.5769,-3.6577,-3.743,-3.7853,-3.743,-4.0027,-4.1388,-4.01,-4.1145,-4.1938,-4.1844,-4.1065,-4.1292,-4.2978,-4.2701,-4.2816,-4.3662,-4.4085,-4.4509,-4.4932,-4.5364,-4.5594,-4.5594,-4.5594,-4.5594,-4.5594,-4.5594,-4.6471,-4.8086,-4.8086,-4.8817,-5.0087,-5.0519,-5.0442,-5.0087,-5.0519,-4.9984,-4.8823,-4.7983,-4.7293,-4.6681,-4.6088,-4.5752,-4.5524,-4.5097,-4.5043,-4.5129,-4.5114,-4.461,-4.401,0.0,0.0,0.0,0.0,0.0,0.0,0.0,0.0,0.0,0.0,0.0,0.0,0.0,0.0,-4.2931,-4.247,0.0,-4.6778,-4.8471,-5.0202,-5.2049,-5.4203,-5.4857,-5.5088,-5.5088,-5.5472,-5.5703,-5.5703,-5.6472,-5.7011,-5.6983,-5.8588,-5.955,-5.9511,-5.8742,-5.8319,-5.8319,-5.6626,-5.5703,-5.5703,-5.5703,-5.5703,-5.5703,-5.5703,-5.5703,-5.5703,-5.528,-5.5088,-5.5088,-5.4626,-5.4203,-5.378,-5.2933,-5.2538,-5.2433,-5.1164,-5.0712,-5.0712,-5.0712,-5.0442,-5.0048,-3.4359,-3.4918,-3.5239,-3.4359,-3.4776,-3.55,-3.6346,-3.7199,-3.7738,-3.7738,-3.9927,-4.1094,-4.0159,-4.09,-4.1235,-4.0576,-3.9607,-4.02,-4.2931,-4.2277,-4.2624,-4.447,-4.4701,-4.5201,-4.6056,-4.6095,-4.6095,-4.6095,-4.6095,-4.6095,-4.6095,-4.6095,-4.6894,-4.8355,-4.8355,-4.924,-5.0712,-5.0856,-5.0818,-5.075,-5.1058,-5.1087,-5.0856,-5.0164,-4.9199,-4.8165,-4.7907,-4.6944,-4.5748,-4.586,-4.5368,-4.4805,-4.5213,-4.5408,-4.5225,-4.3769,-4.3547,0.0,0.0,0.0,0.0,0.0,0.0,0.0,0.0,0.0,-4.2239,-4.2077,-4.3624,-4.497,-4.4816,-4.7009,-4.9125,-5.001,-5.201,-5.3741,-5.4626,-5.528,-5.5703,-5.5703,-5.5857,-5.5934,-5.5934,-5.7396,-5.8088,-5.7522,-5.9396,-6.0319,-5.9781,-5.8973,-5.8473,-5.8319,-5.678,-5.5857,-5.5703,-5.5703,-5.5703,-5.5703,-5.5703,-5.5703,-5.5703,-5.5703,-5.5703,-5.5703,-5.5703,-5.5318,-5.4626,-5.3049,-5.2818,-5.3318,-5.1779,-5.1212,-5.1174,-5.0827,-5.0712,-5.0712,0.0,-3.494,-3.5295,-3.4347,-3.4282,-3.4622,-3.55,-3.6308,-3.6846,-3.6846,-3.8452,-3.9294,-3.8444,-3.9164,-3.9977,-4.061,-3.9133,-3.9546,-4.2893,-4.2277,-4.2893,-4.5364,-4.6201,-4.7009,-4.7817,-4.7817,-4.7817,-4.7817,-4.7817,-4.7817,-4.7817,-4.7817,-4.8317,-4.924,-4.924,-4.9779,-5.075,-5.1471,-5.1356,-5.0827,-5.2318,-5.2472,-5.1769,-5.1654,-5.1105,-5.021,-4.906,-4.7152,-4.5255,-4.5671,-4.48,-4.3793,-4.562,-4.5682,-4.502,-4.4371,0.0,-4.1854,-4.0785,-3.9977,-3.9785,-4.1162,-4.1085,-4.1016,0.0,0.0,-4.3816,-4.3085,-4.547,-4.7471,-4.674,-4.9269,-5.1769,-5.2626,-5.3664,-5.4626,-5.5434,-5.5626,-5.5703,-5.5703,-5.6368,-5.6868,-5.6868,-5.7742,-5.855,-5.9165,-5.9473,-5.9935,-6.0627,-5.9858,-5.905,-5.8319,-5.7357,-5.6483,-5.5703,-5.5703,-5.5703,-5.5703,-5.5703,-5.5703,-5.5703,-5.5703,-5.5703,-5.5703,-5.5703,-5.5665,-5.5511,-5.4587,-5.428,-5.4241,-5.3318,-5.2933,-5.2741,-5.1241,-5.0712,-5.0712,0.0,-3.462,-3.4399,-3.4981,-3.5057,-3.5121,-3.5437,-3.6192,-3.6885,-3.7392,-3.8546,-3.9353,-3.9501,-3.9809,-4.0195,-4.0542,-3.9013,-3.9431,-4.2893,-4.2277,-4.3162,-4.6201,-4.7163,-4.7778,-4.8086,-4.8086,-4.8086,-4.8086,-4.8086,-4.8086,-4.8086,-4.8086,-4.8586,-4.9394,-4.9394,-5.0125,-5.1433,-5.1769,-5.201,-5.2202,-5.2933,-5.2692,-5.1846,-5.1395,-5.0087,-4.8491,-4.8422,-4.7422,0.0,-4.5795,-4.5562,-4.5555,-4.6396,-4.609,-4.5266,-4.4521,-4.347,0.0,-4.0285,-4.0631,-4.1431,0.0,-4.2285,-4.3671,-4.4402,-4.5201,-4.5855,-4.597,-4.7932,-4.9663,-4.9769,-5.1779,-5.3549,0.0,-5.4664,-5.5318,-5.5665,-5.528,-5.4818,-5.4318,-5.5011,-5.5945,-5.6907,-5.778,-5.8627,-5.9435,-5.9973,-6.0435,-6.0781,-5.9973,-5.9358,-5.9011,-5.8204,-5.7319,-5.6483,-5.6445,-5.6214,-5.5703,-5.5703,-5.5703,-5.5703,-5.5703,-5.5703,-5.5703,-5.5703,-5.5703,-5.5626,-5.4818,-5.4511,-5.4395,-5.3549,-5.3203,-5.3049,-5.1856,-5.1395,-5.1318,0.0,-3.4419,-3.396,-3.5146,-3.5337,-3.5364,-3.5489,-3.6188,-3.7,-3.7892,-3.8738,-3.9515,-4.0092,-3.9938,-3.9823,-3.9823,-3.8469,-3.9008,-4.2162,-4.2008,-4.3239,-4.6394,-4.7548,-4.8202,-4.8471,-4.8702,-4.8817,-4.8817,-4.8817,-4.8933,-4.9163,-4.9163,-4.9625,-5.0433,-5.0433,-5.1125,-5.2269,-5.25,-5.2692,-5.2895,-5.3356,-5.2779,-5.1471,-5.0394,-4.8702,-4.6923,-4.7278,-4.6432,-4.5124,-4.497,-4.5163,-4.5577,-4.6047,-4.5893,-4.5402,-4.4278,-4.3201,-4.2047,-4.0431,-4.1354,-4.2547,-4.1747,-4.3594,-4.571,-4.6163,-4.6971,-4.7817,-4.8663,-5.001,-5.1202,-5.1769,-5.3318,-5.4511,-5.4511,-5.5164,-5.5703,-5.5703,-5.478,-5.3895,-5.328,-5.3356,-5.4203,-5.6137,-5.7511,-5.8627,-5.9435,-6.0319,-6.0781,-6.0781,-6.0204,-5.9742,-5.9511,-5.8934,-5.8204,-5.7368,-5.7137,-5.6676,-5.6049,-5.5818,-5.5703,-5.5703,-5.5703,-5.5703,-5.5703,-5.5703,-5.5703,-5.5665,-5.5049,-5.4818,-5.478,-5.4126,-5.3895,-5.378,-5.2933,-5.2308,-5.1769,0.0,0.0,-3.4556,-3.4539,-3.4577,-3.4839,-3.5505,-3.6228,-3.7,-3.7892,-3.8738,-3.9323,-3.9323,-3.8584,-3.8084,-3.8084,-3.7276,-3.7815,-4.04,-4.1354,-4.297,-4.5518,-4.7201,-4.8509,-4.9356,-5.0212,-5.0635,-5.0635,-5.0635,-5.101,-5.1769,-5.1769,-5.2231,-5.3087,-5.3087,-5.3126,-5.3241,-5.4049,-5.3472,-5.2077,-5.378,-5.2972,-5.0558,-4.8817,-4.7663,-4.6778,-4.597,-4.3517,-4.0939,-4.2624,-4.2624,-4.2231,-4.3855,-4.4932,0.0,-4.3624,-4.1931,-4.0746,-4.1508,-4.1769,-4.2239,-4.3778,-4.4902,-4.6018,-4.7663,-4.8702,-4.9586,-5.0442,-5.1279,-5.1885,-5.1885,-5.3318,-5.4511,-5.4511,-5.5164,-5.5703,-5.5703,-5.428,-5.3241,-5.3203,-5.1779,-5.1828,0.0,-5.6819,-5.8627,-5.9435,-6.0319,-6.0781,-6.0781,-6.0781,-6.0358,-5.9511,-5.9473,-5.9088,-5.828,-5.7434,-5.6983,-5.6945,-5.6088,-5.5703,-5.5703,-5.5703,-5.5703,-5.5703,-5.5703,-5.5703,-5.5703,-5.5665,-5.5665,-5.5665,-5.5626,-5.5626,-5.5511,-5.4703,-5.3356,-5.1769,0.0,0.0,0.0,0.0,0.0,-3.4209,-3.5574,-3.5891,-3.6482,-3.7867,-3.8779,0.0,0.0,0.0,0.0,0.0,-3.8584,-3.9277,-4.1239,-4.1662,-4.2701,-4.4662,-4.6394,-4.7432,-4.774,-4.8548,-4.8971,-4.8971,-4.9548,-4.9971,-5.024,-5.0818,-5.1241,-5.1548,-5.2087,-5.2654,-5.3241,-5.351,-5.3626,-5.3587,-5.301,-5.1933,-5.0519,-4.8779,-4.6894,-4.5124,0.0,-4.3278,-4.1354,-4.1354,-4.1546,-4.1885,-4.247,-4.2854,-4.2854,-4.17,-4.1354,-4.1431,-4.1731,-4.3047,-4.4701,-4.6394,-4.7471,-4.8548,-5.0231,-5.0433,-5.0366,-5.0635,-5.0471,-5.024,-5.024,-5.0702,-5.1471,-5.2587,-5.351,-5.4434,-5.5549,-5.4741,-5.3433,-5.1741,-5.151,0.0,0.0,0.0,0.0,-5.9319,-5.9781,-6.0204,-6.0781,-6.0781,-6.0666,-6.0358,-6.0358,-5.9935,-5.9088,-5.8819,-5.8396,-5.7857,-5.6973,-5.6252,-5.5703,-5.5703,-5.5703,-5.5703,-5.5703,-5.5703,-5.5703,-5.5703,-5.5703,-5.5703,-5.5703,-5.5703,-5.5588,-5.478,-5.378,-5.2626,0.0,0.0,0.0,0.0,0.0,0.0,0.0,0.0,0.0,0.0,0.0,0.0,0.0,0.0,0.0,0.0,0.0,-3.9738,-4.0854,-4.147,-4.2277,-4.3355,-4.5047,-4.597,-4.597,-4.7086,-4.7663,-4.7663,-4.824,-4.8663,-4.8933,-4.9554,-5.0014,-5.0322,-5.1171,-5.1817,-5.2318,-5.1963,-5.2164,-5.2549,-5.1125,-5.0048,-4.9163,-4.7394,-4.5547,0.0,-4.3508,-4.2508,-4.1316,-4.1046,-4.1123,-4.1354,-4.1354,-4.1354,-4.1277,-4.1046,-4.1585,-4.247,-4.3385,-4.524,-4.7355,-4.9048,-5.0125,-5.1048,-5.2115,-5.151,-5.0596,-5.0289,-4.9317,-4.8394,-4.8086,-4.8048,-4.8586,-5.0269,-5.1279,-5.2549,-5.4511,-5.4087,-5.3087,-5.1741,-5.151,0.0,0.0,0.0,0.0,-5.7934,-5.8973,-5.9742,-6.0319,-6.0627,-6.0781,-6.0781,-6.0781,-6.0512,-5.9973,-5.9665,-5.8934,-5.7819,-5.7291,-5.656,-5.5703,-5.5703,-5.5703,-5.5703,-5.5703,-5.5703,-5.5703,-5.5703,-5.5703,-5.5703,-5.5703,-5.5703,-5.5626,-5.5126,-5.4395,-5.351,0.0,0.0,0.0,0.0,0.0,0.0,0.0,0.0,0.0,0.0,0.0,0.0,0.0,0.0,0.0,0.0,0.0,0.0,-3.9361,-4.0854,-4.1731,-4.1731,-4.3316,-4.4162,-4.4162,-4.5893,-4.6769,-4.6769,-4.6846,-4.7278,-4.8048,-4.8214,-4.8723,-4.9574,-5.0387,-5.0728,-5.0681,-4.9795,-4.9394,-4.9317,-4.8394,-4.7586,-4.6692,-4.5009,-4.3893,-4.3124,-4.2277,-4.1393,-4.0746,0.0,0.0,0.0,-4.0516,-4.0516,-4.0746,-4.1662,-4.2585,-4.3855,-4.6355,-4.824,-4.9933,-5.1615,-5.2577,-5.3126,-5.3126,-5.1779,-5.0327,-4.9394,-4.7855,-4.6432,0.0,0.0,-4.6047,-4.7817,-4.8856,-5.0394,-5.301,-5.2692,-5.2462,0.0,0.0,0.0,0.0,0.0,0.0,-5.5665,0.0,-5.9473,-5.955,-6.0358,-6.0781,-6.0781,-6.0781,-6.0781,-6.0781,-5.9973,-5.8742,-5.7137,-5.7099,-5.6599,-5.578,-5.5703,-5.5703,-5.5703,-5.5703,-5.5703,-5.5703,-5.5703,-5.5703,-5.5703,-5.5703,-5.5703,-5.5703,-5.5703,-5.5203,-5.4241,0.0,0.0,0.0,0.0,0.0,0.0,0.0,0.0,0.0,0.0,0.0,0.0,0.0,0.0,0.0,0.0,0.0,0.0,-4.0208,-4.0593,-4.0823,-4.0823,-4.1854,-4.2431,-4.2431,-4.4085,-4.497,-4.497,-4.6278,-4.7,-4.724,-4.7833,-4.8283,-4.8514,-4.9362,-4.9756,-4.9747,-4.9499,-4.9394,-4.9279,-4.7817,-4.7077,-4.6778,-4.5701,-4.5133,-4.494,-4.4701,-4.3701,0.0,0.0,0.0,0.0,0.0,-4.0931,-4.1777,-4.3239,-4.4739,-4.6355,-4.824,-5.001,-5.1702,-5.3395,-5.3049,-5.2231,-5.2231,-5.0433,-4.8355,-4.6864,-4.524,-4.3816,0.0,0.0,0.0,-4.7625,-4.9394,0.0,-5.5521,-5.5818,0.0,0.0,0.0,-5.506,-5.4241,-5.528,0.0,0.0,-5.7857,-5.9165,-6.0396,-6.0666,-6.0781,-6.0781,-6.0781,-6.0781,-6.0781,-6.0589,-5.9935,-5.8858,-5.8242,-5.7511,-5.6637,-5.6011,-5.5703,-5.5703,-5.5703,-5.5703,-5.5703,-5.5703,-5.5703,-5.5703,-5.5703,-5.5703,-5.5703,-5.5703,-5.5203,-5.4357,0.0,0.0,0.0,0.0,0.0,0.0,0.0,0.0,0.0,0.0,0.0,0.0,0.0,0.0,0.0,0.0,0.0,0.0,0.0,-4.0285,-4.0516,-4.0516,-4.0969,-4.1239,-4.1239,-4.2547,-4.3393,-4.3778,-4.4739,-4.5432,-4.5778,-4.6265,-4.6537,-4.6576,-4.7425,-4.7811,-4.7802,-4.7362,-4.7394,0.0,0.0,-4.6009,-4.6278,-4.5787,-4.5133,-4.4547,-4.4902,0.0,0.0,0.0,0.0,-4.0708,-4.1824,-4.2777,-4.3816,-4.547,0.0,-4.8933,-5.0625,-5.2049,-5.3356,-5.4703,-5.3741,-5.2269,-5.1548,-4.9394,-4.7009,-4.4932,-4.3431,0.0,0.0,0.0,0.0,0.0,0.0,0.0,-5.4741,-5.5972,-5.6511,0.0,-5.728,0.0,-5.6242,-5.7011,-5.7703,0.0,-5.855,-5.9242,-6.0165,-6.0589,-6.0781,-6.0781,-6.0781,-6.0781,-6.0781,-6.0781,-6.0358,-5.9473,-5.905,-5.8204,-5.6983,-5.6483,-5.6049,-5.5703,0.0,-5.5703,-5.5703,-5.5703,-5.5703,-5.5703,-5.5703,-5.5703,-5.5703,-5.5703,-5.5395,-5.4895,0.0,0.0,0.0,0.0,0.0,0.0,0.0,0.0,0.0,0.0,-3.7161,-3.8046,0.0,0.0,0.0,0.0,0.0,0.0,0.0,0.0,-4.0285,-4.0477,-4.04,-4.04,-4.0516,-4.1354,-4.2239,-4.3085,-4.3201,-4.3662,-4.4479,-4.459,-4.4666,-4.4666,-4.5434,-4.5782,-4.5736,-4.4823,-4.4893,-4.5518,-4.4778,-4.494,-4.5594,0.0,-4.4624,-4.3316,0.0,0.0,0.0,0.0,-4.0862,-4.1285,-4.3701,-4.5124,-4.6278,-4.8086,-4.9856,-5.1548,-5.3126,-5.4164,-5.4972,-5.5549,-5.4357,-5.2549,-5.0741,-4.8394,-4.5855,-4.3431,0.0,-4.1393,-4.0631,-4.0593,-4.1554,-4.4201,0.0,-4.8625,-5.3087,-5.4972,-5.6549,-5.8396,-5.8627,-5.8627,-5.8627,-5.8627,-5.8934,-5.9627,-5.9665,-5.9665,-5.9665,-6.0396,-6.0781,-6.0781,-6.0781,-6.0781,-6.0781,-6.0781,-6.0435,-5.9665,-5.955,-5.8665,-5.7176,-5.7176,-5.6637,-5.5703,0.0,0.0,-5.5703,-5.5703,-5.5703,-5.5703,-5.5703,-5.5703,-5.5703,-5.5703,-5.5703,-5.5588,0.0,0.0,0.0,0.0,0.0,0.0,0.0,0.0,0.0,0.0,-3.8277,-3.8277,0.0,0.0,0.0,0.0,0.0,0.0,0.0,0.0,0.0,-4.0439,-3.9861,-3.9823,-4.0477,-4.1354,-4.2239,-4.3085,-4.3778,-4.4509,-4.5364,-4.5398,-4.5423,-4.5423,-4.5577,-4.5616,-4.5607,-4.5458,-4.5479,-4.5594,-4.5441,-4.5479,-4.5594,-4.5594,0.0,0.0,0.0,0.0,0.0,0.0,-4.2662,-4.297,-4.4786,-4.6432,-4.8125,-5.0538,-5.2472,-5.4049,-5.5011,-5.5895,-5.6445,-5.5857,-5.3895,-5.15,-4.9086,-4.6586,0.0,0.0,0.0,-4.0669,-4.0516,-4.1085,0.0,-4.5932,0.0,0.0,0.0,0.0,-5.7676,0.0,0.0,0.0,0.0,0.0,0.0,0.0,0.0,-6.055,-6.055,-6.0704,-6.0781,-6.0781,-6.0781,-6.0781,-6.0781,-6.0781,-6.0704,-6.055,-5.9858,-5.9011,-5.8088,-5.8088,-5.7203,-5.5742,-5.6483,0.0,-5.5703,-5.5703,-5.5703,-5.5703,-5.5703,-5.5703,-5.5703,-5.5703,-5.5703,-5.5588,0.0,0.0,0.0,0.0,0.0,0.0,0.0,-3.7559,-3.8278,-4.0339,-4.0239,-3.9969,-3.9938,-4.0285,-4.0169,0.0,0.0,0.0,0.0,0.0,0.0,0.0,0.0,0.0,0.0,-4.0893,0.0,0.0,0.0,-4.4085,-4.494,0.0,0.0,0.0,-4.5594,-4.5594,-4.5594,-4.5594,-4.5594,-4.5594,-4.5594,-4.5594,0.0,0.0,0.0,0.0,0.0,0.0,0.0,0.0,-4.2739,-4.3547,-4.6086,-4.8086,-4.9856,-5.1972,-5.378,-5.5318,-5.6137,-5.7011,-5.7357,-5.6011,-5.3472,-5.0625,-4.8048,0.0,0.0,0.0,-4.0688,-4.0339,-4.0454,0.0,0.0,0.0,0.0,0.0,0.0,0.0,0.0,0.0,0.0,0.0,0.0,0.0,0.0,0.0,0.0,-6.0781,-6.0781,-6.0781,-6.0781,-6.0781,-6.0781,-6.0781,-6.0781,-6.0781,-6.0781,-6.0781,-6.0358,-5.9742,-5.8934,-5.8934,-5.7973,-5.6406,-5.683,0.0,-5.5703,-5.5703,-5.5703,-5.5703,-5.5703,-5.5703,-5.5703,-5.5703,-5.5703,-5.5626,0.0,0.0,0.0,0.0,0.0,0.0,-3.813,-3.8379,-3.9316,-4.1986,-4.22,-4.1816,-4.1131,-4.09,-4.0285,0.0,0.0,0.0,0.0,0.0,0.0,0.0,0.0,0.0,0.0,0.0,0.0,0.0,0.0,0.0,0.0,0.0,0.0,0.0,0.0,0.0,-4.5594,-4.5594,-4.5594,0.0,0.0,0.0,0.0,0.0,0.0,0.0,0.0,0.0,0.0,0.0,-4.2393,-4.3585,-4.6394,-4.8586,-5.051,-5.2356,-5.4241,-5.5895,-5.6753,-5.7627,-5.7857,-5.5934,-5.2895,-4.9731,-4.7098,-4.3877,0.0,0.0,-4.0304,-4.0183,-4.0254,0.0,0.0,0.0,0.0,0.0,0.0,0.0,0.0,0.0,0.0,0.0,0.0,0.0,0.0,0.0,0.0,0.0,-6.0781,-6.0781,-6.0781,-6.0781,-6.0781,-6.0781,-6.0781,-6.0781,-6.0781,-6.0781,-6.0781,-6.0319,-5.9511,-5.9704,-5.8742,-5.7022,-5.7214,0.0,0.0,-5.5703,-5.5703,-5.5703,-5.5703,-5.5703,-5.5703,-5.5703,-5.5703,-5.5703,0.0,0.0,0.0,0.0,0.0,0.0,-3.8899,-3.9244,-4.0377,-4.3624,-4.3431,-4.2931,-4.2854,-4.2162,-4.0739,0.0,0.0,0.0,0.0,0.0,0.0,0.0,0.0,0.0,0.0,0.0,0.0,0.0,0.0,0.0,0.0,0.0,0.0,0.0,0.0,0.0,0.0,0.0,0.0,0.0,0.0,0.0,0.0,0.0,0.0,0.0,0.0,0.0,0.0,0.0,0.0,-4.3278,-4.4316,-4.6355,-4.8817,-5.1308,0.0,0.0,-5.6753,-5.7627,-5.7703,-5.5241,-5.2049,-4.8769,-4.5941,0.0,0.0,-4.0348,-4.0313,-4.0261,-3.9546,-3.9477,-4.0046,0.0,0.0,-4.524,0.0,0.0,0.0,0.0,0.0,0.0,0.0,0.0,0.0,0.0,0.0,0.0,-6.0781,-6.0781,-6.0781,-6.0781,-6.0781,-6.0781,-6.0781,-6.0781,-6.0781,-6.0781,-6.0781,-6.0319,-5.9511,-6.0319,-5.9319,-5.706,-5.7857,0.0,0.0,-5.5703,-5.5703,-5.5703,-5.5703,-5.5703,-5.5703,-5.5703,-5.5703,-5.5703,0.0,0.0,0.0,0.0,0.0,0.0,-3.8974,-3.9329,-4.0516,-4.3855,-4.4008,-4.3816,-4.3816,-4.3085,-4.1739,-3.9662,0.0,0.0,0.0,0.0,0.0,0.0,0.0,0.0,0.0,0.0,-4.0669,-4.1008,0.0,0.0,0.0,0.0,0.0,0.0,0.0,0.0,0.0,0.0,0.0,0.0,0.0,0.0,0.0,0.0,0.0,0.0,0.0,0.0,0.0,0.0,0.0,0.0,-4.1901,-4.3085,0.0,0.0,-5.1818,-5.3933,-5.6368,-5.7627,-5.7819,-5.5742,-5.2279,-4.8683,-4.6014,0.0,-4.0699,-4.0407,-3.9883,-3.9585,-3.9954,-3.9631,-3.9669,-4.0816,0.0,0.0,0.0,0.0,0.0,0.0,0.0,0.0,0.0,0.0,0.0,0.0,0.0,0.0,-6.0781,-6.0781,-6.0781,-6.0781,-6.0781,-6.0781,-6.0781,-6.0781,-6.0781,-6.0781,-6.0781,-6.0627,-6.0281,-6.0627,-5.9704,-5.778,-5.8165,0.0,0.0,-5.5703,-5.5703,-5.5703,-5.5703,-5.5703,-5.5703,-5.5703,-5.5703,-5.5703,0.0,0.0,0.0,0.0,0.0,-3.6413,-3.8914,-3.9284,-4.0439,-4.3547,-4.3932,-4.3932,-4.3932,-4.3201,-4.2239,-4.0969,-3.99,0.0,0.0,0.0,0.0,0.0,0.0,0.0,0.0,0.0,-4.0516,-4.0516,-4.2239,-4.3085,0.0,0.0,0.0,0.0,0.0,0.0,0.0,0.0,0.0,0.0,0.0,0.0,0.0,0.0,0.0,0.0,0.0,0.0,0.0,0.0,0.0,0.0,0.0,0.0,0.0,0.0,-4.9433,-5.1779,-5.4703,-5.6472,-5.7027,-5.4962,-5.1638,-4.8115,0.0,0.0,-3.969,-3.9541,-3.8988,-3.8738,-3.9292,-3.9123,-3.9092,-3.9669,0.0,-4.0823,0.0,0.0,0.0,0.0,0.0,0.0,0.0,0.0,0.0,0.0,0.0,0.0,0.0,-6.0781,-6.0781,-6.0781,-6.0781,-6.0781,-6.0781,-6.0781,-6.0781,-6.0781,-6.0781,-6.0781,-6.0781,-6.0781,-5.9896,-5.8319,0.0,0.0,0.0,-5.5703,-5.5703,-5.5703,-5.5703,-5.5703,-5.5703,-5.5703,-5.5703,-5.5703,0.0,0.0,0.0,0.0,0.0,0.0,-3.89,-3.9284,-4.0208,-4.2777,-4.3124,-4.3124,-4.3124,-4.2354,-4.1808,-4.1769,-4.0277,0.0,0.0,0.0,0.0,0.0,0.0,0.0,0.0,0.0,-4.0516,-4.0516,-4.2239,-4.3085,-4.3124,-4.4825,0.0,0.0,0.0,0.0,0.0,0.0,0.0,0.0,0.0,0.0,0.0,0.0,0.0,0.0,0.0,0.0,0.0,0.0,0.0,0.0,0.0,-4.0516,-4.1016,0.0,-4.674,-4.9817,-5.15,-5.3818,-5.5034,-5.2165,-4.9572,-4.666,0.0,0.0,-3.847,-3.7354,-3.7591,-3.7738,-3.6885,-3.743,-3.8007,-3.8007,-3.94,0.0,0.0,0.0,0.0,0.0,0.0,0.0,0.0,0.0,0.0,0.0,0.0,0.0,0.0,-6.0781,-6.0781,-6.0781,-6.0781,-6.0781,-6.0781,-6.0781,-6.0781,-6.0781,-6.0781,-6.0781,-6.0781,-6.0781,-5.9896,0.0,0.0,0.0,0.0,-5.5703,-5.5703,-5.5703,-5.5703,-5.5703,-5.5703,-5.5703,-5.5703,-5.5703,0.0,0.0,0.0,0.0,0.0,0.0,-3.8123,-3.8392,-3.9315,-4.1893,-4.22,-4.2431,-4.3047,-4.2316,-4.1808,-4.1808,-4.0777,0.0,0.0,0.0,0.0,0.0,0.0,0.0,0.0,-4.0931,-4.1393,-4.1393,-4.3085,-4.3932,-4.3932,-4.5056,-4.5594,-4.5594,0.0,0.0,0.0,0.0,0.0,0.0,0.0,0.0,0.0,0.0,0.0,0.0,0.0,0.0,0.0,0.0,0.0,0.0,0.0,0.0,0.0,-4.1253,-4.3549,-4.6394,-4.8702,-4.9894,-5.023,-4.9143,-4.6975,-4.4478,-4.1987,0.0,-3.8603,-3.787,-3.7379,-3.7199,-3.7546,-3.7815,-3.8392,-3.9515,-4.0662,0.0,0.0,0.0,0.0,0.0,0.0,0.0,0.0,0.0,0.0,0.0,0.0,0.0,0.0,-6.0781,-6.0781,-6.0781,-6.0781,-6.0781,-6.0781,-6.0781,-6.0781,-6.0781,-6.0204,-6.0204,-6.0781,-6.0165,0.0,0.0,0.0,0.0,0.0,-5.5934,-5.5703,-5.5703,-5.5703,-5.5703,-5.5703,-5.5703,-5.5703,-5.5703,0.0,0.0,0.0,0.0,0.0,0.0,-3.7777,-3.8277,-3.9161,-4.1046,-4.1316,-4.1623,-4.2508,-4.1816,-4.1431,-4.1769,-4.1316,0.0,0.0,0.0,0.0,0.0,0.0,0.0,-4.0969,-4.12,-4.1623,-4.2277,-4.3355,-4.4008,-4.4316,-4.521,-4.5594,-4.5594,-4.5594,-4.5287,0.0,0.0,0.0,0.0,0.0,0.0,-4.5441,0.0,0.0,0.0,0.0,0.0,0.0,0.0,0.0,0.0,0.0,0.0,0.0,0.0,-4.1237,-4.3271,-4.5812,-4.6839,-4.6992,-4.6369,-4.4548,0.0,0.0,0.0,-3.7659,-3.7056,-3.6534,-3.65,-3.7353,-3.7777,-3.843,-3.9823,-4.0739,0.0,0.0,0.0,0.0,0.0,0.0,0.0,0.0,0.0,0.0,0.0,0.0,0.0,0.0,-6.0781,-6.0666,-6.0319,-6.0627,-6.0781,-6.0781,-6.0781,-6.0781,-6.0781,-5.9935,-5.9781,-6.0281,-5.9435,0.0,0.0,0.0,0.0,0.0,-5.5934,-5.5703,-5.5703,-5.5703,-5.5703,-5.5703,-5.5703,-5.5703,-5.5703,0.0,0.0,0.0,0.0,0.0,0.0,0.0,-3.8738,-3.9592,-4.04,-4.0516,-4.0823,-4.1623,-4.1046,-4.0893,-4.1662,-4.1808,0.0,0.0,0.0,0.0,0.0,0.0,0.0,-4.1692,-4.1046,-4.1477,-4.3085,-4.3201,-4.3662,-4.4393,-4.521,-4.5594,-4.5594,-4.5594,-4.5556,-4.5441,-4.4624,-4.4316,-4.4316,-4.4355,-4.4893,0.0,0.0,0.0,0.0,0.0,0.0,0.0,0.0,0.0,0.0,0.0,0.0,0.0,0.0,0.0,0.0,0.0,-4.4298,-4.4879,-4.3718,-4.2217,-4.0317,-3.764,0.0,0.0,-3.5318,-3.5369,-3.5773,-3.6594,-3.7485,-3.8339,-3.9238,0.0,0.0,0.0,0.0,0.0,0.0,0.0,0.0,0.0,0.0,0.0,0.0,0.0,0.0,0.0,-6.0781,-6.0358,-5.9435,-6.0242,-6.0666,-6.0627,-6.0666,-6.0666,-6.0589,-5.9742,-5.9358,-5.9396,-5.8588,0.0,0.0,0.0,0.0,0.0,-5.5742,-5.5703,-5.5703,-5.5703,-5.5703,-5.5703,-5.5703,-5.5703,-5.5703,0.0,0.0,0.0,0.0,0.0,0.0,0.0,0.0,0.0,0.0,-4.0516,-4.0593,-4.0785,-4.1239,-4.1316,0.0,0.0,0.0,0.0,0.0,0.0,0.0,0.0,0.0,-4.0785,-4.1893,-4.2701,-4.3085,-4.4393,-4.5094,-4.5287,-4.5518,-4.5594,-4.5594,-4.5594,-4.5248,-4.4586,-4.4393,-4.4316,-4.4355,-4.5017,-4.5441,0.0,0.0,0.0,0.0,-4.1431,-4.0823,0.0,0.0,0.0,0.0,0.0,0.0,0.0,0.0,-3.9652,-4.0032,-3.9711,0.0,-4.0652,-4.0091,-3.9185,-3.7985,0.0,-3.6092,0.0,0.0,0.0,0.0,0.0,0.0,0.0,0.0,0.0,0.0,0.0,0.0,0.0,0.0,0.0,0.0,0.0,0.0,0.0,0.0,0.0,0.0,0.0,-6.0435,-6.0127,-5.8627,-5.9396,-5.9511,-5.8896,-5.9511,-5.9511,-5.8896,-5.8011,-5.7934,-5.855,-5.7703,0.0,0.0,0.0,0.0,-5.6637,-5.5972,-5.5703,-5.5703,-5.5703,-5.5703,-5.5703,-5.5703,-5.5703,-5.5703,0.0,0.0,0.0,0.0,0.0,0.0,0.0,0.0,0.0,0.0,-4.0516,-4.0516,-4.0516,-4.1277,-4.1623,0.0,0.0,0.0,0.0,0.0,0.0,0.0,0.0,-4.0708,-4.1085,-4.2008,-4.2893,-4.3662,-4.4547,-4.521,-4.5594,-4.5594,-4.5594,-4.5594,-4.5594,-4.5325,-4.4893,-4.4893,-4.4893,-4.494,-4.5402,0.0,0.0,0.0,0.0,0.0,-4.1131,-4.0516,0.0,-4.0516,-4.0221,-3.9861,0.0,0.0,0.0,0.0,-3.9114,-3.926,-3.8973,-3.8983,-3.8963,-3.8525,-3.7971,-3.7252,-3.6283,0.0,0.0,0.0,0.0,0.0,0.0,0.0,0.0,0.0,0.0,0.0,0.0,0.0,0.0,0.0,0.0,0.0,0.0,0.0,0.0,0.0,0.0,0.0,0.0,-5.9588,-5.905,-5.7742,-5.8511,-5.8742,-5.8319,-5.8742,-5.8742,-5.828,-5.7434,-5.7253,-5.7665,-5.678,-5.6665,0.0,0.0,0.0,-5.6368,-5.5895,-5.5703,-5.5703,-5.5703,-5.5703,-5.5703,-5.5703,-5.5703,-5.5703,0.0,0.0,0.0,0.0,0.0,0.0,0.0,0.0,0.0,0.0,0.0,0.0,0.0,0.0,0.0,0.0,0.0,0.0,0.0,0.0,0.0,0.0,-4.0785,-4.1046,-4.1769,-4.1923,-4.2739,-4.4316,-4.4432,-4.4893,-4.5594,-4.5594,-4.5518,-4.5402,-4.5556,-4.5364,-4.5056,-4.5441,-4.5441,-4.5248,-4.5518,0.0,0.0,0.0,0.0,0.0,0.0,0.0,0.0,-4.0516,-4.0119,-3.9687,-3.9687,0.0,0.0,0.0,0.0,0.0,-3.9041,-3.9153,-3.8937,-3.8178,-3.7792,-3.7333,-3.6514,0.0,0.0,0.0,0.0,0.0,0.0,0.0,0.0,0.0,0.0,0.0,0.0,0.0,0.0,0.0,0.0,0.0,0.0,0.0,0.0,0.0,0.0,0.0,0.0,-5.8588,-5.7857,-5.683,-5.7665,-5.805,-5.7896,-5.805,-5.805,-5.7896,-5.7126,-5.6791,-5.6791,-5.6049,-5.5703,-5.5703,0.0,0.0,-5.5703,-5.5703,-5.5703,-5.5703,-5.5703,-5.5703,-5.5703,-5.5703,-5.5703,-5.5703,0.0,0.0,0.0,0.0,0.0,0.0,0.0,0.0,0.0,0.0,0.0,0.0,0.0,0.0,0.0,0.0,0.0,0.0,0.0,0.0,0.0,-4.2701,-4.2008,-4.1662,-4.1808,-4.2508,-4.3355,-4.4316,-4.5056,-4.5479,-4.5594,-4.5594,-4.521,-4.4509,-4.5287,-4.4393,-4.2508,-4.4662,-4.4786,-4.3624,-4.5017,0.0,0.0,0.0,0.0,0.0,0.0,0.0,0.0,-4.0516,-4.0304,-4.0022,-4.0022,0.0,0.0,0.0,0.0,0.0,-3.7563,-3.8995,-4.0171,-3.8446,-3.7947,-3.7648,-3.6549,-3.6972,0.0,0.0,0.0,0.0,0.0,0.0,0.0,0.0,0.0,0.0,0.0,0.0,0.0,0.0,0.0,0.0,0.0,0.0,0.0,0.0,0.0,0.0,0.0,-5.7973,-5.755,-5.5934,-5.6753,-5.6868,-5.6126,-5.6819,-5.6819,-5.6088,-5.5972,-5.5895,-5.5895,-5.5742,-5.5703,-5.5703,0.0,-5.5703,-5.5703,-5.5703,-5.5703,-5.5703,-5.5703,-5.5703,-5.5703,-5.5703,-5.5703,-5.5703,0.0,0.0,0.0,0.0,0.0,0.0,0.0,0.0,0.0,0.0,0.0,0.0,0.0,0.0,0.0,0.0,0.0,0.0,0.0,0.0,-4.3085,-4.3085,-4.2739,-4.2508,-4.2508,-4.3316,-4.4162,-4.5017,-4.5893,-4.6317,-4.6278,-4.5355,-4.4662,-4.4316,-4.4239,-4.3855,-4.3239,-4.4393,-4.4701,-4.4509,0.0,0.0,0.0,0.0,0.0,0.0,0.0,0.0,0.0,0.0,-4.033,-4.012,-4.012,0.0,0.0,0.0,0.0,0.0,-3.7702,-3.8439,-3.9061,-3.8785,-3.9268,-3.9303,-3.7418,-3.8002,0.0,0.0,0.0,0.0,0.0,0.0,0.0,0.0,0.0,0.0,0.0,0.0,0.0,0.0,0.0,0.0,0.0,0.0,0.0,0.0,0.0,0.0,0.0,0.0,-5.6511,-5.5742,-5.6088,-5.6099,-5.5703,-5.6088,-5.6088,-5.5703,-5.5703,-5.5703,-5.5703,-5.5703,-5.5703,-5.5703,0.0,-5.5703,-5.5703,-5.5703,-5.5703,-5.5703,-5.5703,-5.5703,-5.5703,-5.5703,-5.5703,-5.5703,0.0,0.0,0.0,0.0,0.0,0.0,0.0,0.0,0.0,0.0,0.0,0.0,0.0,0.0,0.0,0.0,0.0,0.0,0.0,-4.3624,-4.3393,-4.3393,-4.3585,-4.3585,-4.3393,-4.4162,-4.5009,-4.5893,-4.6586,-4.6817,-4.6547,-4.5009,-4.4201,-4.397,-4.3355,-4.3201,-4.3431,-4.4047,-4.447,-4.4739,0.0,0.0,0.0,0.0,0.0,0.0,0.0,0.0,0.0,0.0,0.0,0.0,0.0,0.0,0.0,-3.8053,-3.7517,-3.7206,-3.8128,-3.8254,-3.8213,-3.8839,-3.9925,-4.0444,-3.8932,-3.9726,-4.0626,0.0,0.0,0.0,0.0,0.0,0.0,0.0,0.0,0.0,0.0,0.0,0.0,0.0,0.0,0.0,0.0,0.0,0.0,0.0,0.0,0.0,0.0,0.0,-5.5703,-5.5703,-5.5511,-5.5511,-5.5703,-5.5318,-5.5318,-5.5703,-5.5703,-5.5703,-5.5703,-5.5703,-5.5703,-5.5703,-5.5703,-5.5703,-5.5703,-5.5703,-5.5703,-5.5703,-5.5703,-5.5703,-5.5703,-5.5703,-5.5703,-5.5703,0.0,0.0,0.0,0.0,0.0,0.0,0.0,0.0,0.0,0.0,0.0,0.0,0.0,0.0,0.0,0.0,0.0,0.0,0.0,-4.3816,-4.4201,-4.4201,-4.4979,-4.5056,-4.4239,-4.5056,-4.5932,-4.6817,-4.6885,-4.6509,-4.5671,-4.4739,-4.3893,-4.3162,-4.3124,-4.2239,-4.0939,-4.3278,-4.3431,-4.2277,-4.4662,0.0,0.0,0.0,0.0,0.0,0.0,0.0,0.0,0.0,0.0,0.0,0.0,0.0,-3.8766,-3.845,-3.8114,-3.7903,-3.8278,-3.8935,-3.9256,-3.8331,-3.8769,-3.98,-4.1176,-4.2214,0.0,-4.3744,0.0,0.0,0.0,0.0,0.0,0.0,0.0,0.0,0.0,0.0,0.0,0.0,0.0,0.0,0.0,0.0,0.0,0.0,0.0,0.0,0.0,0.0,0.0,-5.5703,-5.4972,-5.4934,-5.5703,-5.4164,-5.4164,-5.5703,-5.5703,-5.5703,-5.5703,-5.5703,-5.5703,-5.5703,-5.5703,-5.5703,-5.5703,-5.5703,-5.5703,-5.5703,-5.5703,-5.5703,-5.5703,-5.5703,-5.5703,-5.5703,0.0,0.0,0.0,0.0,0.0,0.0,0.0,0.0,0.0,0.0,0.0,-4.5287,-4.4393,0.0,0.0,0.0,0.0,0.0,0.0,-4.2893,-4.3201,-4.4239,-4.4124,-4.4393,-4.5094,-4.597,-4.6817,-4.7663,-4.7663,-4.724,-4.6394,-4.497,-4.4124,-4.3816,-4.2777,-4.2508,-4.2854,-4.2777,-4.297,-4.3431,-4.4393,-4.4124,0.0,0.0,0.0,0.0,0.0,0.0,0.0,0.0,-3.9554,-3.9246,-3.9008,-3.9248,-3.9366,-3.7991,-3.7751,-3.7978,-3.8316,-3.8233,-3.8184,-3.8676,-3.9053,0.0,0.0,-4.247,-4.3932,-4.4239,-4.5163,0.0,0.0,0.0,0.0,0.0,0.0,0.0,0.0,0.0,0.0,0.0,0.0,0.0,0.0,0.0,0.0,0.0,0.0,0.0,0.0,0.0,0.0,-5.4164,-5.3857,-5.3857,-5.4126,-5.351,-5.351,-5.4164,-5.4703,-5.4934,-5.4934,-5.4934,-5.4934,-5.4934,-5.4934,-5.4934,-5.4934,-5.4934,-5.4934,-5.4934,-5.4934,-5.5241,-5.5703,-5.5703,-5.5703,-5.5703,0.0,0.0,0.0,0.0,0.0,0.0,0.0,0.0,-4.3201,0.0,0.0,0.0,0.0,-4.3662,0.0,0.0,0.0,0.0,-4.2316,-4.247,-4.3008,-4.3893,-4.3893,-4.4432,-4.5556,-4.6432,-4.7154,-4.774,-4.774,-4.7317,-4.6471,-4.497,-4.4316,-4.4239,-4.2854,-4.2854,-4.3855,-4.2701,-4.2701,-4.3547,-4.3816,-4.3239,0.0,0.0,0.0,0.0,0.0,0.0,0.0,0.0,-3.913,-3.8777,-3.82,-3.8868,-3.9537,-3.8067,-3.792,-3.8209,-3.8461,-3.7719,-3.7176,-3.8538,0.0,0.0,-4.167,-4.3662,-4.5355,-4.6163,-4.6817,0.0,0.0,0.0,0.0,0.0,0.0,0.0,0.0,0.0,0.0,0.0,0.0,0.0,0.0,0.0,0.0,0.0,0.0,0.0,0.0,0.0,0.0,0.0,-5.2933,-5.2933,-5.3203,-5.2664,-5.2549,-5.2818,-5.3395,-5.3818,-5.4087,-5.4357,-5.4511,-5.4511,-5.4511,-5.4511,-5.4511,-5.4511,-5.4357,-5.4126,-5.4395,-5.4664,-5.4972,-5.5511,-5.5549,-5.5357,0.0,0.0,0.0,0.0,0.0,0.0,0.0,0.0,-4.2816,-4.1962,-4.3278,0.0,0.0,0.0,0.0,0.0,0.0,0.0,-4.0593,-4.2893,-4.3932,-4.3162,-4.471,-4.5594,-4.5594,-4.6432,-4.6885,-4.6885,-4.6885,-4.6432,-4.5594,-4.4701,-4.4316,-4.4278,-4.347,-4.3085,-4.3124,-4.3085,-4.2585,-4.1885,-4.2739,-4.2085,-4.0631,0.0,0.0,0.0,0.0,0.0,0.0,0.0,-3.87,-3.8007,-3.8007,-3.8584,-3.9238,-3.8917,-3.8804,-3.8804,-3.8804,-3.7613,-3.6608,0.0,0.0,0.0,-4.4671,-4.6278,-4.7625,-5.0164,0.0,-4.8394,0.0,0.0,0.0,0.0,0.0,0.0,0.0,0.0,0.0,0.0,0.0,0.0,0.0,0.0,0.0,0.0,0.0,0.0,0.0,0.0,0.0,0.0,-5.2346,-5.2308,-5.3164,-5.151,-5.1087,-5.1885,-5.1885,-5.2346,-5.3241,-5.4087,-5.4472,-5.4472,-5.4472,-5.4472,-5.4472,-5.4472,-5.3972,-5.328,-5.4126,-5.3933,-5.3395,-5.5049,-5.5164,-5.4587,0.0,0.0,0.0,0.0,0.0,0.0,0.0,0.0,-4.3431,-4.4355,-4.4902,0.0,0.0,0.0,0.0,0.0,0.0,0.0,-4.2354,-4.3585,-4.447,-4.4825,-4.4739,-4.4979,-4.5594,-4.5864,-4.6278,-4.6885,-4.6278,-4.5864,-4.5594,-4.4701,-4.4624,-4.5171,-4.3739,-4.3393,-4.3816,-4.2008,-4.1816,-4.2739,-4.3008,-4.2777,-4.2354,0.0,0.0,0.0,0.0,0.0,0.0,0.0,0.0,0.0,-3.7276,-3.8084,-3.9238,-3.8917,-3.9223,-3.969,-3.969,-3.9347,0.0,-3.9615,0.0,0.0,0.0,-4.6701,0.0,0.0,0.0,0.0,0.0,0.0,0.0,0.0,0.0,0.0,0.0,0.0,0.0,0.0,0.0,0.0,0.0,0.0,0.0,0.0,0.0,0.0,0.0,0.0,0.0,0.0,-5.1202,-5.1164,-5.1433,-5.0317,-5.0202,-5.1048,-5.1048,-5.151,-5.2269,-5.2538,-5.2654,-5.2654,-5.2654,-5.2654,-5.2654,-5.2654,-5.25,-5.2308,-5.2577,-5.2895,-5.328,-5.378,-5.378,-5.3703,0.0,0.0,0.0,0.0,0.0,0.0,-4.2354,-4.2893,-4.347,-4.447,-4.4902,-4.4739,0.0,0.0,0.0,0.0,0.0,0.0,-4.3124,-4.4162,-4.4893,-4.5094,-4.4893,-4.5056,-4.5594,-4.5594,-4.5701,-4.5855,-4.5355,-4.5248,-4.5594,-4.4701,-4.4778,-4.5556,-4.4547,-4.4162,-4.4162,-4.2316,-4.2124,-4.3085,-4.2739,-4.2585,-4.2585,0.0,0.0,0.0,0.0,0.0,0.0,0.0,0.0,0.0,-3.7392,-3.793,-3.8754,-3.8533,-3.9112,-3.9695,-3.9341,-3.9265,0.0,-4.0292,-4.1816,-4.3932,-4.7163,0.0,0.0,0.0,0.0,0.0,0.0,0.0,0.0,0.0,0.0,0.0,0.0,0.0,0.0,0.0,0.0,0.0,0.0,0.0,0.0,0.0,0.0,0.0,0.0,0.0,0.0,0.0,-4.9856,-4.9663,-4.9663,-4.9163,-4.9163,-4.9663,-4.9663,-4.9933,-5.0423,-5.1423,-5.1885,-5.1885,-5.1885,-5.1731,-5.1433,-5.1433,-5.1433,-5.1471,-5.1769,-5.2049,-5.2279,-5.2933,-5.2972,-5.2818,0.0,0.0,-4.0516,-4.0593,0.0,0.0,-4.1893,-4.2701,-4.3201,-4.3201,-4.3855,-4.397,0.0,0.0,0.0,-4.3085,0.0,0.0,0.0,-4.471,-4.5248,-4.4432,-4.5171,-4.5594,-4.5594,-4.5518,-4.5094,-4.4316,-4.4316,-4.4701,-4.5479,-4.4662,-4.4778,-4.5594,-4.5518,-4.5017,-4.4124,-4.3316,-4.297,-4.2893,-4.2124,-4.1846,-4.1923,-4.1808,0.0,0.0,0.0,0.0,0.0,0.0,0.0,0.0,-3.8123,-3.8123,-3.8123,-3.82,-3.8777,-3.9246,-3.843,0.0,0.0,0.0,0.0,0.0,0.0,0.0,0.0,0.0,0.0,0.0,0.0,0.0,0.0,0.0,0.0,0.0,0.0,0.0,0.0,0.0,0.0,0.0,0.0,0.0,0.0,0.0,0.0,0.0,0.0,0.0,0.0,-4.9394,-4.8548,-4.8086,-4.8086,-4.8048,-4.8048,-4.8086,-4.8048,-4.8048,-4.8202,-5.05,-5.1538,-5.1538,-5.1538,-5.1164,-5.0596,-5.0596,-5.0635,-5.0789,-5.151,-5.1356,-5.0866,-5.2395,-5.2472,-5.1923,0.0,0.0,-4.0708,-4.1393,0.0,0.0,-4.3547,-4.3932,-4.4047,-4.4047,-4.4201,-4.397,-4.3201,-4.2508,0.0,-4.3047,-4.3278,0.0,0.0,-4.5017,-4.5518,-4.5325,-4.5518,-4.5594,-4.5594,-4.494,-4.447,-4.4316,-4.4316,-4.4393,-4.4586,-4.4393,-4.4778,-4.5556,-4.4893,-4.4124,-4.3316,-4.2431,-4.2085,-4.2038,-4.1885,-4.22,-4.2739,-4.2038,-4.1692,0.0,0.0,0.0,0.0,0.0,0.0,0.0,-3.9015,-3.9015,-3.913,-3.9785,-4.0092,-4.0208,-4.0015,-4.0469,0.0,0.0,0.0,0.0,0.0,0.0,0.0,0.0,0.0,0.0,0.0,0.0,0.0,0.0,0.0,0.0,0.0,0.0,0.0,0.0,0.0,0.0,0.0,0.0,0.0,0.0,0.0,0.0,0.0,0.0,0.0,-4.9394,-4.8548,-4.8086,-4.8086,-4.7471,-4.7471,0.0,-4.7471,-4.7509,-4.8125,-4.8663,-4.8933,-4.8933,-4.8933,-4.9202,-4.9663,-4.9663,-5.0087,-5.0712,-5.0894,-5.0856,-5.075,-5.1097,-5.1125,-5.1087,0.0,0.0,0.0,0.0,0.0,0.0,0.0,0.0,-4.3855,-4.4239,-4.4316,-4.397,-4.3201,-4.2701,0.0,0.0,-4.3662,0.0,0.0,0.0,-4.5402,-4.5017,-4.4979,-4.4786,-4.4393,-4.397,-4.3739,-4.3739,-4.4124,-4.4316,-4.4316,-4.4316,-4.4778,-4.5556,-4.4701,-4.3855,-4.3047,-4.2162,-4.1808,-4.1808,-4.1808,-4.2077,-4.2431,-4.1962,-4.1546,-4.1123,-4.0669,0.0,0.0,0.0,0.0,0.0,0.0,0.0,-3.9284,-3.9284,-3.9861,-4.0439,-4.0015,0.0,0.0,0.0,0.0,0.0,0.0,0.0,0.0,0.0,0.0,0.0,0.0,0.0,0.0,0.0,0.0,0.0,0.0,0.0,0.0,0.0,0.0,0.0,0.0,0.0,0.0,0.0,0.0,0.0,0.0,-4.7971,-4.774,-4.8202,-4.7355,-4.6894,-4.6894,-4.6471,-4.6471,-4.6894,-4.6471,-4.6509,-4.6932,-4.774,-4.7894,-4.7548,-4.7932,-4.8125,-4.824,-4.8625,-4.9048,-4.9471,-4.9471,-4.9702,-5.0087,-5.0087,-5.0327,-5.075,0.0,0.0,0.0,0.0,0.0,0.0,0.0,0.0,0.0,-4.4201,-4.4162,-4.3778,-4.297,-4.2739,-4.297,0.0,0.0,0.0,0.0,0.0,0.0,-4.4355,-4.4432,-4.4085,-4.3124,-4.3085,-4.3085,-4.3085,-4.3778,-4.4162,-4.4316,-4.4432,-4.4893,-4.5556,-4.4701,-4.3855,-4.3047,-4.2162,-4.1692,-4.1585,-4.1585,-4.1585,-4.1585,-4.1585,-4.1123,-4.0516,-4.0516,-4.0516,-4.0516,-4.0516,0.0,0.0,0.0,0.0,-3.9361,-3.8623,-3.94,-4.0362,-3.9708,0.0,0.0,0.0,0.0,0.0,0.0,0.0,0.0,0.0,0.0,0.0,0.0,0.0,0.0,0.0,0.0,0.0,0.0,0.0,0.0,0.0,0.0,0.0,0.0,0.0,0.0,0.0,0.0,0.0,-4.7894,-4.7124,-4.674,-4.6885,-4.6047,-4.5594,-4.5594,-4.5594,-4.5594,-4.5594,-4.5594,-4.5594,-4.5633,-4.7048,-4.7317,-4.6701,-4.7394,-4.7394,-4.6962,-4.7625,-4.7971,-4.8086,-4.8086,-4.8625,-4.9394,-4.9394,-4.9933,-5.0712,0.0,0.0,0.0,0.0,0.0,0.0,0.0,0.0,0.0,0.0,-4.3701,-4.2931,-4.2085,-4.1316,-4.12,-4.2047,-4.2816,-4.3624,-4.4432,0.0,0.0,-4.4355,-4.5017,-4.471,-4.3124,-4.3085,-4.3085,-4.3085,-4.3201,-4.3624,-4.4316,-4.5056,-4.5479,-4.5556,-4.4701,-4.3855,-4.3047,-4.2162,-4.1354,-4.0669,-4.0669,-4.0669,-4.0669,-4.0669,-4.0593,-4.0516,-4.0516,-4.0516,-4.0516,-4.0516,-4.0439,0.0,0.0,0.0,-4.0323,-4.0208,-4.0323,-4.0477,0.0,0.0,0.0,0.0,0.0,0.0,0.0,0.0,0.0,0.0,0.0,0.0,0.0,0.0,0.0,0.0,0.0,0.0,0.0,0.0,0.0,0.0,0.0,0.0,0.0,0.0,0.0,0.0,0.0,0.0,-4.7009,-4.624,-4.6124,-4.6885,-4.6047,-4.5594,-4.5594,-4.5594,-4.5594,-4.5594,-4.5594,-4.5594,-4.5594,-4.5825,-4.5902,-4.5787,-4.5902,-4.6317,-4.6923,-4.7,-4.7471,-4.8086,-4.8086,-4.8625,-4.9394,-4.9394,-4.9933,-5.0712,0.0,0.0,0.0,0.0,0.0,0.0,0.0,0.0,0.0,0.0,0.0,-4.3431,-4.2624,-4.22,-4.2277,-4.3124,-4.3547,-4.4124,-4.4979,-4.5402,-4.521,-4.4355,-4.4662,-4.4316,-4.3124,-4.3085,-4.3085,-4.3085,-4.3547,-4.3932,-4.4316,-4.521,-4.5594,-4.5556,-4.4701,-4.3855,-4.3047,-4.2162,-4.1316,-4.0516,-4.0516,-4.0246,-3.99,-4.0323,-4.0208,-3.99,-4.0323,-4.0516,-4.0516,-4.0516,-4.0516,-4.0439,-3.9977,0.0,0.0,0.0,-4.0169,0.0,-4.1085,0.0,0.0,0.0,0.0,0.0,0.0,0.0,0.0,0.0,0.0,0.0,0.0,0.0,0.0,0.0,0.0,0.0,0.0,0.0,0.0,0.0,0.0,0.0,0.0,0.0,0.0,0.0,0.0,-4.5787,-4.6163,-4.5825,-4.5787,-4.6163,-4.5787,-4.5594,-4.5594,-4.5594,-4.5594,-4.5594,-4.5594,-4.5594,-4.5594,-4.5594,-4.5594,-4.5594,-4.5594,-4.5825,-4.6163,-4.6163,-4.6394,-4.6701,-4.6701,-4.724,-4.8009,-4.8009,-4.8856,-4.9971,0.0,0.0,0.0,0.0,0.0,0.0,0.0,0.0,0.0,0.0,0.0,0.0,-4.3431,0.0,0.0,0.0,-4.4162,-4.4662,-4.5556,-4.5594,-4.521,-4.4355,-4.4509,-4.4162,-4.3124,-4.3316,-4.3316,-4.3085,-4.3701,-4.4085,-4.4316,-4.4979,-4.5402,-4.5556,-4.4701,-4.397,-4.3316,-4.2277,-4.1431,-4.0785,-4.0362,-3.9823,-3.9361,-3.9708,-3.9631,-3.94,-3.9977,0.0,0.0,0.0,0.0,0.0,0.0,0.0,0.0,0.0,0.0,0.0,0.0,0.0,0.0,0.0,0.0,0.0,0.0,0.0,0.0,0.0,0.0,0.0,0.0,0.0,0.0,0.0,0.0,0.0,0.0,0.0,0.0,0.0,0.0,0.0,0.0,0.0,0.0,0.0,0.0,-4.5594,-4.5594,-4.5594,-4.5594,-4.5594,-4.5594,-4.5594,-4.5594,-4.5594,-4.5594,-4.5594,-4.5594,-4.5594,-4.5594,-4.5594,-4.5594,-4.5594,-4.5594,-4.5594,-4.5594,-4.5594,-4.5594,-4.5594,-4.5594,-4.6124,-4.6923,-4.7115,-4.8125,-4.9433,0.0,0.0,0.0,0.0,0.0,0.0,0.0,0.0,0.0,0.0,0.0,0.0,-4.4162,-4.3547,-4.3124,-4.3162,-4.3855,-4.4662,-4.5556,-4.5594,-4.521,-4.4355,-4.5094,0.0,-4.3124,-4.3855,-4.3855,-4.3085,-4.3124,-4.3547,-4.4316,-4.4355,-4.4816,-4.5556,-4.4701,-4.4278,-4.4124,-4.2508,-4.1769,-4.1577,-4.0008,-3.9361,-3.9207,-3.843,-3.8623,-3.9323,0.0,0.0,0.0,0.0,0.0,0.0,0.0,0.0,0.0,0.0,0.0,0.0,0.0,0.0,0.0,0.0,0.0,0.0,0.0,0.0,0.0,0.0,0.0,0.0,0.0,0.0,0.0,0.0,0.0,0.0,0.0,0.0,0.0,0.0,0.0,0.0,0.0,0.0,0.0,0.0,0.0,-4.5594,-4.5594,-4.5594,-4.5594,-4.5594,-4.5594,-4.5594,-4.5594,-4.5594,-4.5594,-4.5594,-4.5594,-4.5594,-4.5594,-4.5594,-4.5594,-4.5594,-4.5594,-4.5594,-4.5594,-4.5594,-4.5594,-4.5594,-4.5594,-4.6124,-4.7,-4.7778,-4.8625,-4.951,0.0,0.0,0.0,0.0,0.0,0.0,0.0,0.0,0.0,0.0,0.0,0.0,0.0,-4.4902,-4.4701,-4.4701,-4.4979,-4.5287,-4.5594,-4.5094,-4.4893,-4.5133,-4.4893,-4.4739,-4.471,-4.4979,-4.447,-4.3085,-4.3624,-4.347,-4.2701,-4.3278,-4.397,-4.4778,-4.5017,-4.4816,-4.4239,-4.3124,-4.2624,-4.247,-4.0746,-4.0054,-4.0054,-3.9708,0.0,0.0,0.0,0.0,0.0,0.0,0.0,0.0,0.0,0.0,0.0,0.0,0.0,0.0,0.0,0.0,0.0,0.0,0.0,0.0,0.0,0.0,0.0,0.0,0.0,0.0,0.0,0.0,0.0,0.0,0.0,0.0,0.0,0.0,0.0,0.0,0.0,0.0,0.0,0.0,0.0,0.0,0.0,0.0,-4.5594,-4.5594,-4.5594,-4.5594,-4.5594,-4.5325,-4.4778,-4.5325,-4.5325,-4.4778,-4.5325,-4.5594,-4.5594,-4.5594,-4.5594,-4.5594,-4.5594,-4.5594,-4.5594,-4.5594,-4.5594,-4.5594,-4.5594,-4.5787,-4.6163,-4.7009,-4.7855,-4.8702,0.0,0.0,0.0,0.0,0.0,-4.2701,-4.4085,-4.4316,-4.4316,-4.4316,0.0,0.0,0.0,0.0,-4.5594,-4.5594,-4.5594,-4.5594,-4.5594,-4.5056,-4.4855,-4.5171,-4.4893,-4.4855,-4.5171,-4.5171,-4.447,-4.3085,-4.3355,-4.2893,-4.1808,-4.2393,-4.3085,-4.3932,-4.4509,-4.4739,-4.4662,-4.3855,-4.3508,-4.3316,0.0,0.0,-4.0854,0.0,0.0,0.0,0.0,0.0,0.0,0.0,0.0,0.0,0.0,0.0,0.0,0.0,0.0,0.0,-4.0516,0.0,0.0,0.0,0.0,0.0,0.0,0.0,0.0,0.0,0.0,0.0,0.0,0.0,0.0,0.0,0.0,0.0,0.0,0.0,0.0,0.0,0.0,0.0,0.0,0.0,0.0,0.0,0.0,0.0,-4.5594,-4.5594,-4.5594,-4.5594,-4.5325,-4.4902,-4.4316,-4.4855,-4.4855,-4.4316,-4.5171,-4.5594,-4.5594,-4.5594,-4.5594,-4.5594,-4.5594,-4.5594,-4.5594,-4.5594,-4.5594,-4.5594,-4.5594,-4.5594,-4.5748,-4.6894,-4.7663,-4.8279,0.0,0.0,-4.2124,-4.297,-4.1739,-4.1439,-4.3932,-4.2931,-4.2508,-4.4085,0.0,0.0,0.0,0.0,0.0,-4.5594,-4.5594,-4.5594,-4.5594,-4.5594,-4.5171,-4.4355,-4.5133,-4.5171,-4.4316,-4.4316,-4.3893,-4.3085,-4.2239,-4.1769,-4.1769,-4.1769,-4.2239,-4.3047,-4.3047,-4.397,-4.5479,0.0,-4.4278,-4.4085,0.0,-4.1085,-4.1654,0.0,0.0,0.0,-4.1808,-4.2393,0.0,0.0,0.0,0.0,0.0,0.0,0.0,0.0,0.0,0.0,0.0,0.0,0.0,0.0,0.0,0.0,0.0,0.0,0.0,0.0,0.0,0.0,0.0,0.0,0.0,0.0,0.0,0.0,0.0,0.0,0.0,0.0,0.0,0.0,0.0,0.0,0.0,0.0,0.0,-4.5556,-4.5594,-4.5594,-4.5556,-4.5518,-4.4701,-4.4239,-4.4239,-4.4239,-4.4239,-4.4278,-4.5171,-4.5594,-4.5594,-4.5594,-4.5594,-4.5594,-4.5594,-4.5594,-4.5594,-4.5594,-4.5594,-4.5594,-4.5594,-4.5594,-4.5787,-4.7471,-4.8086,-4.8355,0.0,-4.2124,-4.3008,-4.3816,-4.3585,-4.347,-4.4201,-4.4432,-4.447,0.0,0.0,0.0,-4.5556,-4.5594,-4.5594,-4.5594,-4.5594,-4.5594,-4.5594,-4.5017,-4.4547,-4.4316,-4.4509,-4.4547,-4.4316,-4.4316,-4.3893,-4.3085,-4.2239,-4.147,-4.0854,-4.0854,-4.1316,-4.2162,-4.2162,-4.2777,-4.3778,-4.3547,0.0,-4.4201,-4.2893,-4.2547,0.0,0.0,0.0,0.0,0.0,-4.3278,-4.3893,0.0,-4.3316,-4.3393,0.0,0.0,0.0,0.0,0.0,0.0,-4.0516,0.0,0.0,0.0,0.0,0.0,0.0,0.0,0.0,0.0,0.0,0.0,0.0,0.0,0.0,0.0,0.0,0.0,0.0,0.0,0.0,0.0,0.0,0.0,0.0,0.0,0.0,0.0,-4.4662,-4.4932,-4.5556,-4.5017,-4.4393,-4.3816,-4.3547,-4.3124,-4.2508,-4.3124,-4.3431,-4.3431,-4.4278,-4.4979,-4.5594,-4.5594,-4.5594,-4.5594,-4.5594,-4.5594,-4.5594,-4.5594,-4.5594,-4.5594,-4.5594,-4.5594,-4.5787,-4.7471,-4.8086,-4.8355,-4.1808,-4.2508,-4.3355,-4.4162,-4.4008,-4.4047,-4.4739,-4.4979,-4.5017,0.0,0.0,0.0,-4.5594,-4.5594,-4.5594,-4.5594,-4.5594,-4.5594,-4.5594,-4.5133,-4.4662,-4.4316,-4.4662,-4.4662,-4.4316,-4.4316,-4.3893,-4.3085,-4.2239,-4.1354,-4.0516,-4.0516,-4.0785,-4.1277,-4.1277,-4.1546,-4.2047,0.0,0.0,0.0,-4.3778,0.0,0.0,-4.3739,-4.3508,0.0,0.0,0.0,-4.4778,-4.4278,-4.4201,0.0,0.0,0.0,0.0,0.0,0.0,0.0,0.0,0.0,0.0,0.0,0.0,0.0,-3.9823,-3.9554,-3.9515,0.0,0.0,0.0,0.0,0.0,0.0,0.0,0.0,0.0,0.0,0.0,0.0,0.0,0.0,0.0,0.0,0.0,0.0,-4.3816,-4.3816,-4.4008,-4.4509,-4.4085,-4.3585,-4.3124,-4.2739,-4.2316,-4.1808,-4.2316,-4.2739,-4.3124,-4.3932,-4.4739,-4.5594,-4.5594,-4.5594,-4.5594,-4.5594,-4.5594,-4.5594,-4.5594,-4.5594,-4.5594,-4.5594,-4.5594,-4.5787,-4.7471,-4.8086,-4.8355,0.0,-4.2585,-4.347,-4.4162,-4.3778,-4.3893,-4.5364,-4.4932,-4.4701,0.0,-4.5594,-4.5594,-4.5594,-4.5594,-4.5594,-4.5594,-4.5594,-4.5594,-4.5594,-4.5594,-4.521,-4.4355,-4.5133,-4.521,-4.4316,-4.4316,-4.3893,-4.3085,-4.2239,-4.1354,-4.0516,-4.0516,-4.0516,-4.0516,-4.0516,-4.0554,-4.0746,0.0,0.0,-4.4316,-4.4393,-4.4855,0.0,0.0,-4.4855,0.0,-4.5556,-4.5594,-4.5594,-4.5594,-4.5017,0.0,0.0,0.0,0.0,0.0,-4.1923,0.0,0.0,0.0,0.0,0.0,0.0,0.0,-4.0362,-3.9785,-3.9361,0.0,0.0,0.0,0.0,0.0,0.0,0.0,0.0,0.0,0.0,0.0,0.0,0.0,0.0,0.0,0.0,-4.2854,-4.2931,-4.2816,-4.3008,-4.3047,-4.297,-4.297,-4.2893,-4.2816,-4.2047,-4.1662,-4.1662,-4.1731,-4.2239,-4.3124,-4.3932,-4.4739,-4.5594,-4.5594,-4.5594,-4.5594,-4.5594,-4.5594,-4.5594,-4.5594,-4.5594,-4.5594,-4.5594,-4.5594,-4.5787,-4.7394,-4.8009,-4.8355,-4.1808,-4.3008,-4.4124,-4.4278,-4.4739,-4.521,-4.5556,-4.5479,-4.5402,-4.5594,-4.5594,-4.5594,-4.5594,-4.5594,-4.5594,-4.5594,-4.5594,-4.5594,-4.5594,-4.5594,-4.521,-4.4355,-4.5133,-4.521,-4.4316,-4.4316,-4.3893,-4.3085,-4.2239,-4.1354,-4.0516,-4.0516,-4.0516,-4.0516,-4.0516,-4.0893,-4.1623,0.0,0.0,-4.4355,-4.5056,0.0,-4.4624,-4.5133,-4.5017,-4.4662,-4.5364,-4.5594,-4.5594,0.0,-4.5017,-4.4278,0.0,0.0,0.0,0.0,0.0,0.0,0.0,0.0,0.0,0.0,0.0,0.0,-4.0631,-3.9315,-3.8315,0.0,0.0,0.0,0.0,0.0,0.0,0.0,0.0,0.0,0.0,0.0,0.0,0.0,0.0,0.0,0.0,-4.1277,-4.1777,-4.1054,-4.2316,-4.2777,-4.2085,-4.2038,-4.1739,-4.1016,-4.0862,-4.0746,-4.0746,-4.147,-4.2239,-4.3124,-4.3932,-4.4739,-4.5594,-4.5594,-4.5594,-4.5594,-4.5594,-4.5594,-4.5594,-4.5594,-4.5594,-4.5594,-4.5594,-4.5594,-4.571,-4.674,-4.7548,-4.824,-4.247,-4.3816,-4.494,-4.494,-4.5325,-4.5594,-4.5594,-4.5594,-4.5594,-4.5594,-4.5594,-4.5594,-4.5594,-4.5594,-4.5594,-4.5594,-4.5594,-4.5594,-4.5594,-4.5594,-4.5402,-4.4979,-4.5364,-4.5402,-4.4979,-4.494,-4.4355,-4.3085,-4.2662,-4.1777,-4.0516,-4.0516,-4.0516,-4.0516,-4.0516,-4.0969,-4.1846,0.0,-4.3547,-4.4393,-4.5248,0.0,-4.5017,-4.5441,-4.5325,-4.5017,-4.5441,-4.5594,-4.5594,-4.5594,-4.5325,0.0,0.0,-4.4662,-4.4239,0.0,-4.3701,-4.3701,0.0,0.0,0.0,-4.3585,0.0,0.0,0.0,-4.0508,-3.9777,0.0,0.0,0.0,0.0,0.0,0.0,0.0,0.0,0.0,0.0,0.0,0.0,0.0,0.0,0.0,0.0,-4.0431,-4.0969,-4.0516,-4.1324,-4.1623,-4.1162,-4.1162,-4.0931,-4.0516,-4.0516,-4.0708,-4.1123,-4.1585,-4.2431,-4.3701,-4.4124,-4.4739,-4.5594,-4.5594,-4.5594,-4.5594,-4.5594,-4.5594,-4.5594,-4.5594,-4.5594,-4.5594,-4.5594,-4.5594,-4.571,-4.6586,-4.7432,-4.824,-4.3316,-4.4547,-4.5594,-4.5594,-4.5594,-4.5594,-4.5594,-4.5594,-4.5594,-4.5594,-4.5594,-4.5594,-4.5594,-4.5594,-4.5671,-4.5825,-4.5556,-4.5479,-4.5825,-4.5556,-4.5364,-4.5364,-4.5518,-4.5518,-4.5364,-4.5364,-4.4624,-4.3085,-4.2931,-4.2047,-4.0516,-4.0516,-4.0593,-4.0746,-4.0554,-4.1162,0.0,0.0,0.0,-4.4624,0.0,-4.5594,-4.5594,-4.5594,-4.5594,-4.5594,-4.5594,-4.5594,-4.5594,-4.5594,0.0,-4.5594,-4.5594,-4.5594,0.0,0.0,0.0,0.0,0.0,0.0,0.0,0.0,0.0,-4.3162,0.0,0.0,0.0,0.0,0.0,0.0,0.0,0.0,0.0,0.0,0.0,0.0,0.0,0.0,0.0,0.0,0.0,0.0,0.0,-3.9554,-4.0169,-4.0477,-4.0362,-4.0323,-4.0477,-4.0669,-4.0746,-4.0746,-4.09,-4.1354,-4.2038,-4.22,-4.297,-4.4316,-4.447,-4.494,-4.5594,-4.5594,-4.5594,-4.5594,-4.5594,-4.5594,-4.5594,-4.5594,-4.5594,-4.5594,-4.5594,-4.5594,-4.571,-4.6394,-4.7278,-4.8202,-4.4162,-4.494,-4.5594,-4.5594,-4.5594,-4.5594,-4.5594,-4.5594,-4.5594,-4.5594,-4.5594,-4.5594,-4.5594,0.0,0.0,0.0,0.0,0.0,-4.6663,0.0,-4.4432,-4.4432,-4.521,-4.5248,-4.447,-4.4432,-4.4008,-4.3085,-4.2316,-4.147,-4.0516,-4.0516,-4.0893,-4.1623,-4.0854,0.0,0.0,0.0,-4.4008,0.0,-4.5556,-4.5594,0.0,-4.5594,-4.5594,-4.5594,-4.5594,-4.5594,-4.5594,0.0,-4.5594,-4.5594,0.0,-4.5594,0.0,0.0,0.0,0.0,0.0,0.0,0.0,0.0,-4.4778,0.0,0.0,0.0,0.0,0.0,0.0,0.0,0.0,0.0,0.0,0.0,0.0,0.0,0.0,0.0,0.0,0.0,0.0,0.0,0.0,0.0,-3.8892,-4.04,-3.9823,-3.9746,-4.0477,-4.1239,-4.1662,-4.1662,-4.2393,-4.2854,-4.2931,-4.3662,-4.4124,-4.4316,-4.5094,-4.5518,-4.5594,-4.5594,-4.5594,-4.5594,-4.5594,-4.5594,-4.5594,-4.5594,-4.5594,-4.5594,-4.5594,-4.5594,-4.5594,-4.571,-4.674,-4.8125,-4.3778,-4.4662,-4.5594,-4.5594,-4.5594,-4.5594,-4.5594,-4.5594,-4.5594,-4.5594,-4.5594,-4.5787,0.0,0.0,0.0,0.0,0.0,-4.5893,0.0,0.0,-4.5056,-4.5056,-4.5402,-4.5441,-4.5056,-4.5056,-4.4624,-4.3816,-4.297,-4.2354,-4.197,-4.0977,-4.1239,-4.2508,-4.1623,0.0,-4.4278,0.0,0.0,0.0,0.0,0.0,0.0,-4.5594,-4.5594,-4.5594,-4.5594,-4.5594,-4.5594,0.0,-4.5594,0.0,0.0,0.0,0.0,0.0,0.0,0.0,0.0,0.0,0.0,0.0,0.0,0.0,0.0,0.0,-4.2431,0.0,0.0,0.0,0.0,0.0,0.0,0.0,0.0,0.0,0.0,0.0,0.0,0.0,0.0,0.0,0.0,0.0,0.0,0.0,-3.9746,-3.9854,-4.1162,-4.1585,-4.2038,-4.2547,-4.2893,-4.3316,-4.3778,-4.4124,-4.4547,-4.5056,-4.5441,-4.5594,-4.5594,-4.5594,-4.5594,-4.5594,-4.5594,-4.5594,-4.5594,-4.5594,-4.5594,-4.5594,-4.5594,-4.5893,-4.6355,-4.6355,-4.7432,-4.8856,-4.3701,-4.4586,-4.5594,-4.5594,-4.5594,-4.5594,-4.5594,-4.5594,-4.571,-4.5932,0.0,0.0,-4.7471,-4.7586,0.0,0.0,-4.7317,-4.674,0.0,0.0,-4.5248,0.0,0.0,0.0,0.0,-4.5248,-4.494,-4.4316,-4.3508,-4.3085,-4.3085,-4.1816,-4.2008,-4.3393,0.0,-4.3085,-4.4624,0.0,0.0,-4.5594,-4.5594,-4.5594,-4.5594,-4.5594,-4.5594,-4.5594,-4.5594,-4.5594,-4.5594,-4.5594,-4.5594,0.0,-4.5594,0.0,0.0,0.0,0.0,0.0,-4.5594,0.0,0.0,0.0,0.0,0.0,0.0,0.0,0.0,0.0,0.0,0.0,0.0,0.0,0.0,0.0,0.0,0.0,0.0,0.0,0.0,0.0,0.0,0.0,0.0,0.0,0.0,-4.0092,-3.94,-3.9662,-4.1354,-4.1893,-4.247,-4.3085,-4.3547,-4.4085,-4.4662,-4.4662,-4.4979,-4.5594,-4.5594,-4.5594,-4.5594,-4.5594,-4.5594,-4.5594,-4.5594,-4.5594,-4.5594,-4.5594,-4.5594,-4.5594,-4.5594,-4.6124,-4.6885,-4.6885,-4.7971,-4.9394,-4.4432,-4.4979,0.0,-4.5594,-4.5594,-4.5594,-4.5594,-4.5594,-4.5893,0.0,0.0,0.0,0.0,0.0,0.0,0.0,0.0,-4.724,-4.7971,0.0,-4.4355,0.0,0.0,-4.521,0.0,0.0,-4.4316,-4.4316,-4.3508,-4.3085,-4.3085,-4.3047,-4.347,-4.4239,-4.3431,-4.397,-4.5518,-4.4662,-4.4778,-4.5594,-4.5594,-4.5594,-4.5594,0.0,-4.5594,-4.5594,-4.5594,0.0,0.0,-4.5594,-4.5594,0.0,0.0,0.0,0.0,0.0,0.0,0.0,0.0,0.0,0.0,-4.5594,0.0,0.0,0.0,0.0,-4.4278,0.0,0.0,0.0,0.0,0.0,0.0,0.0,0.0,0.0,0.0,0.0,0.0,0.0,0.0,0.0,0.0,0.0,0.0,-3.9207,-3.8546,-3.8777,-4.0439,-4.2124,-4.3085,-4.3085,-4.4662,-4.5518,-4.5556,-4.5556,-4.5556,-4.5594,-4.5594,-4.5594,-4.5594,-4.5594,-4.5594,-4.5594,-4.5594,-4.5594,-4.5594,-4.5594,-4.5594,-4.5594,-4.5594,-4.6124,-4.6885,-4.6885,-4.7971,-4.9394,-4.521,0.0,0.0,0.0,0.0,-4.5594,-4.5594,-4.6086,0.0,0.0,0.0,0.0,0.0,0.0,-5.2049,0.0,0.0,-4.9615,-4.8202,-4.7817,0.0,0.0,0.0,-4.6047,0.0,0.0,0.0,0.0,0.0,-4.4201,-4.4748,-4.3624,-4.3855,-4.5133,0.0,-4.4509,0.0,0.0,0.0,0.0,0.0,-4.5594,-4.5594,0.0,0.0,-4.5594,-4.5594,-4.5594,0.0,-4.5594,-4.5594,-4.5594,-4.5594,-4.5594,-4.5594,-4.5594,-4.5594,0.0,0.0,0.0,-4.5594,-4.5594,0.0,0.0,0.0,0.0,0.0,0.0,0.0,0.0,0.0,0.0,0.0,0.0,0.0,0.0,0.0,0.0,0.0,0.0,0.0,0.0,0.0,0.0,0.0,-3.8392,-3.87,-3.9585,-4.1277,-4.247,-4.3624,-4.471,-4.5287,-4.5594,-4.5594,-4.5594,-4.5594,-4.5594,-4.5594,-4.5594,-4.5594,-4.5594,-4.5594,-4.5594,-4.5594,-4.5594,-4.5594,-4.5594,-4.5594,-4.5671,-4.624,-4.6971,-4.7702,-4.7702,-4.8432,-4.9471,-4.5594,-4.5594,0.0,0.0,0.0,0.0,0.0,0.0,0.0,0.0,-5.1318,0.0,-5.4703,0.0,-5.4318,0.0,-5.3164,-5.1741,-4.9202,-4.924,0.0,-4.6586,-4.674,0.0,0.0,0.0,0.0,0.0,0.0,-4.5056,-4.5594,-4.447,-4.4547,-4.5594,0.0,0.0,0.0,0.0,-4.5594,0.0,0.0,-4.5594,0.0,0.0,-4.5594,-4.5594,0.0,-4.5594,-4.5594,-4.5594,-4.5594,-4.5594,-4.5594,-4.5594,-4.5594,-4.5594,-4.5594,-4.5594,-4.5594,-4.5594,0.0,-4.5594,-4.5594,0.0,-4.5594,0.0,0.0,0.0,0.0,0.0,0.0,0.0,0.0,0.0,0.0,0.0,0.0,-3.7084,0.0,0.0,0.0,0.0,0.0,0.0,-3.7353,-3.7969,-3.8507,-3.9585,0.0,0.0,-4.3739,-4.5094,-4.5441,-4.5594,-4.5594,-4.5594,-4.5594,-4.5594,-4.5594,-4.5594,-4.5594,-4.5594,-4.5594,-4.5594,-4.5594,-4.5594,-4.5594,-4.5594,-4.5594,-4.571,-4.6547,-4.7231,-4.774,-4.8355,-4.9125,-4.9933,-4.5594,-4.5594,0.0,0.0,-4.5671,0.0,0.0,0.0,-5.0125,0.0,-5.3587,-5.4972,-5.578,-5.6599,-5.6406,-5.478,-5.4587,0.0,-5.0981,-5.0087,0.0,0.0,-4.7471,-4.7038,-4.6885,0.0,0.0,0.0,0.0,0.0,-4.5594,-4.5594,-4.5594,0.0,-4.5594,0.0,-4.5594,-4.5594,-4.5594,-4.5594,-4.5594,-4.5594,-4.5594,-4.5594,-4.5594,-4.5594,-4.5594,-4.5594,-4.5594,-4.5594,-4.5594,-4.5594,-4.5594,-4.5594,-4.5594,-4.5594,-4.5594,-4.5594,-4.5594,-4.5594,-4.5594,-4.5594,0.0,0.0,0.0,0.0,-4.5594,0.0,0.0,0.0,0.0,0.0,0.0,0.0,0.0,0.0,0.0,0.0,0.0,0.0,0.0,0.0,0.0,-3.6,-3.6269,-3.7815,-3.8007,-3.8815,0.0,0.0,-4.3431,-4.4355,-4.5171,-4.5594,-4.5594,-4.5594,-4.5594,-4.5594,-4.5594,-4.5594,-4.5594,-4.5594,-4.5594,-4.5594,-4.5594,-4.5594,-4.5594,-4.5594,-4.5633,-4.5748,-4.6624,-4.7,-4.7278,-4.8817,-4.9933,-5.0712,-4.5594,-4.5594,-4.5787,0.0,-4.6586,-4.6624,0.0,0.0,0.0,0.0,-5.5857,-5.7627,-5.8434,-5.8204,-5.7511,-5.6445,-5.578,0.0,0.0,0.0,0.0,-4.9202,-4.9471,-4.8856,-4.6923,-4.6701,0.0,-4.5594,0.0,0.0,-4.5594,0.0,0.0,0.0,0.0,0.0,-4.5594,-4.5594,-4.5594,-4.5594,-4.5594,-4.5594,0.0,0.0,-4.5594,-4.5594,-4.5594,-4.5594,-4.5594,-4.5594,-4.5594,-4.5594,-4.5594,-4.5594,-4.5594,-4.5594,-4.5594,-4.5594,-4.5594,-4.5594,-4.5594,-4.5594,-4.5594,-4.5594,0.0,0.0,0.0,0.0,0.0,0.0,0.0,0.0,0.0,0.0,0.0,0.0,0.0,0.0,0.0,-3.77,0.0,0.0,0.0,-3.6731,-3.7276,-3.7038,-3.8238,-3.97,0.0,0.0,0.0,-4.521,-4.5479,-4.5594,-4.5594,-4.5594,-4.5594,-4.5594,-4.5594,-4.5594,-4.5594,-4.5594,-4.5594,-4.5594,-4.5594,-4.5594,-4.5594,-4.5594,-4.597,-4.6663,-4.7471,-4.8586,-4.9702,-4.9471,-4.9933,-5.0712,-4.5594,0.0,0.0,-4.7278,0.0,0.0,-4.9077,0.0,0.0,-5.528,-5.7165,0.0,-5.8934,-5.8896,-5.8319,-5.7099,-5.656,0.0,0.0,0.0,0.0,-5.0625,-5.0625,-4.9663,-4.7471,-4.7077,0.0,-4.5594,0.0,0.0,-4.5594,0.0,0.0,0.0,0.0,-4.5594,0.0,-4.5594,-4.5594,-4.5594,-4.5594,0.0,0.0,-4.5594,-4.5594,-4.5594,-4.5594,-4.5594,-4.5594,-4.5594,-4.5594,-4.5594,-4.5594,-4.5594,-4.5594,-4.5594,-4.5594,-4.5594,-4.5594,-4.5594,-4.5594,-4.5594,-4.5594,-4.5594,-4.5594,-4.5594,-4.5594,0.0,0.0,0.0,0.0,0.0,0.0,0.0,0.0,0.0,0.0,0.0,0.0,0.0,0.0,0.0,0.0,-3.7469,-3.7623,-3.6769,-3.8315,0.0,0.0,0.0,0.0,-4.5518,-4.5594,-4.5594,-4.5594,-4.5594,-4.5594,-4.5594,-4.5594,-4.5594,-4.5594,-4.5594,-4.5594,-4.5594,-4.5594,-4.5594,-4.5633,-4.6009,-4.6471,-4.7038,-4.8625,-4.9817,-5.0673,-5.0548,-5.0587,-5.0712,0.0,0.0,0.0,0.0,0.0,0.0,0.0,-5.2577,0.0,-5.6791,0.0,-5.8434,-5.8319,-5.8819,-5.855,-5.6983,0.0,-5.6175,-5.4587,-5.4511,-5.3703,-5.1962,-5.1241,-4.9971,-4.8125,-4.7432,0.0,0.0,0.0,0.0,0.0,0.0,0.0,0.0,0.0,0.0,0.0,-4.5594,-4.5594,0.0,-4.5594,-4.5594,-4.5594,-4.5594,-4.5594,-4.5594,-4.5594,-4.5594,-4.5594,-4.5594,-4.5594,-4.5594,-4.5594,-4.5594,-4.5594,-4.5594,-4.5594,-4.5594,-4.5594,-4.5594,-4.5594,-4.5594,-4.5594,-4.5594,-4.5594,-4.5594,-4.5594,-4.5594,-4.5594,-4.5594,0.0,0.0,0.0,0.0,0.0,0.0,0.0,0.0,0.0,0.0,0.0,0.0,0.0,0.0,0.0,-3.7084,-3.843,0.0,0.0,0.0,0.0,-4.5556,-4.5594,-4.5671,-4.5787,0.0,-4.5787,-4.5787,-4.5787,-4.571,-4.5594,-4.5594,-4.5594,-4.5594,-4.571,-4.5787,-4.5825,-4.6701,-4.7115,-4.7471,-4.9779,-5.0712,-5.0789,-5.1587,-5.1395,-5.0712,0.0,0.0,0.0,0.0,0.0,-5.3433,-5.4818,-5.6242,-5.7396,-5.8011,-5.8781,-5.905,-5.8357,-5.778,-5.7022,-5.6011,-5.5934,0.0,0.0,0.0,0.0,-5.1962,-5.1769,-5.0538,-4.8163,-4.7971,-4.7124,0.0,0.0,0.0,-4.5594,0.0,0.0,0.0,0.0,0.0,-4.5594,-4.5594,0.0,-4.5594,-4.5594,-4.5594,-4.5594,-4.5594,-4.5594,-4.5594,-4.5594,-4.5594,-4.5594,-4.5594,-4.5594,-4.5594,-4.5594,-4.5594,-4.5594,-4.5594,-4.5594,-4.5594,-4.5594,-4.5594,-4.5594,-4.5594,-4.5594,-4.5594,-4.5594,-4.5594,-4.5594,-4.5594,-4.5594,-4.5594,-4.5594,0.0,0.0,0.0,0.0,0.0,0.0,0.0,0.0,0.0,0.0,0.0,0.0,0.0,0.0,0.0,0.0,0.0,0.0,0.0,0.0,0.0,-4.5594,0.0,0.0,0.0,-4.6663,-4.6663,-4.6663,-4.6317,-4.5594,-4.5594,-4.5594,-4.5633,-4.6355,-4.6663,-4.674,-4.7548,-4.8317,-4.9086,-5.025,-5.0712,-5.0789,-5.1587,-5.1395,-5.0712,0.0,0.0,0.0,0.0,0.0,0.0,0.0,-5.8511,0.0,-5.8973,-5.8511,-5.8242,-5.828,-5.7511,-5.683,-5.6395,-5.5972,-5.5357,-5.4549,-5.4895,-5.4164,-5.2,-5.2308,0.0,-4.8163,-4.8086,-4.7509,-4.6278,0.0,0.0,-4.6278,0.0,0.0,0.0,0.0,-4.5594,0.0,0.0,0.0,-4.5594,-4.5594,-4.5594,-4.5594,-4.5594,-4.5594,-4.5594,-4.5594,-4.5594,-4.5594,-4.5594,-4.5594,-4.5594,-4.5594,-4.5594,-4.5594,-4.5594,-4.5594,-4.5594,-4.5594,-4.5594,-4.5594,-4.5594,-4.5594,-4.5594,-4.5594,-4.5594,-4.5594,-4.5594,-4.5594,-4.5594,-4.5594,-4.5594,0.0,0.0,0.0,0.0,0.0,0.0,0.0,0.0,0.0,0.0,0.0,0.0,0.0,0.0,0.0,0.0,0.0,0.0,0.0,0.0,0.0,0.0,0.0,0.0,0.0,-4.624,-4.6701,-4.6432,-4.5594,-4.5594,-4.5594,-4.5633,-4.6509,-4.6885,-4.7,-4.8279,-4.9279,-5.0164,-5.101,-5.1087,-5.0866,-5.2125,-5.2049,-5.1395,0.0,-5.1635,0.0,0.0,-5.628,0.0,-5.8204,-5.9704,-6.0473,-5.9627,-5.8204,-5.7473,-5.7973,-5.7242,-5.6703,-5.6742,-5.6088,-5.5357,-5.4549,-5.5088,-5.4472,-5.2269,-5.2654,-5.1587,-4.8702,-4.8471,-4.7894,0.0,0.0,0.0,0.0,0.0,0.0,0.0,0.0,0.0,0.0,0.0,-4.5902,-4.5893,-4.6056,-4.6018,-4.5902,-4.5902,-4.5902,-4.5864,-4.5671,-4.5594,-4.5594,-4.5594,-4.5594,-4.5594,-4.5594,-4.5594,-4.5594,-4.5594,-4.5594,-4.5594,-4.5594,-4.5594,-4.5594,-4.5594,-4.5594,-4.5594,-4.5594,-4.5594,-4.5594,-4.5594,-4.5594,-4.5594,-4.5594,-4.5594,0.0,0.0,0.0,0.0,0.0,0.0,0.0,0.0,0.0,0.0,0.0,0.0,0.0,0.0,0.0,0.0,0.0,0.0,0.0,0.0,0.0,-4.571,-4.5855,0.0,-4.6817,-4.6133,-4.6817,-4.6701,-4.5864,-4.5671,-4.571,-4.5932,-4.6778,-4.7355,-4.7817,-4.9125,-5.0087,-5.075,-5.1395,-5.1279,-5.0904,-5.2587,-5.2654,-5.2077,0.0,0.0,0.0,0.0,0.0,0.0,-5.8396,-5.9704,-6.0473,-5.9627,-5.8742,-5.7896,-5.7214,-5.6319,-5.5818,-5.5818,-5.5742,-5.5357,-5.4549,-5.4549,-5.4164,-5.3126,-5.2385,-5.1548,-5.0481,-4.9663,-4.8509,0.0,0.0,0.0,0.0,0.0,0.0,0.0,0.0,0.0,0.0,-4.6778,-4.6778,-4.6855,-4.7586,-4.7432,-4.6778,-4.6778,-4.6778,-4.6663,-4.5893,-4.5594,-4.5594,-4.5594,-4.5594,-4.5594,-4.5594,-4.5594,-4.5594,-4.5594,-4.5594,-4.5594,-4.5594,-4.5594,-4.5594,-4.5594,-4.5594,-4.5594,-4.5594,-4.5594,-4.5594,-4.5594,-4.5594,-4.5594,-4.5594,-4.5594,-4.5594,0.0,0.0,0.0,0.0,0.0,0.0,0.0,0.0,0.0,0.0,0.0,0.0,0.0,0.0,0.0,0.0,0.0,0.0,-4.5556,0.0,-4.597,-4.6778,-4.7586,-4.7971,-4.7855,-4.7971,-4.7548,-4.674,-4.597,-4.6009,-4.6817,-4.7625,-4.8894,-5.0366,-5.0519,-5.0635,-5.0712,-5.0789,-5.0789,-5.0904,-5.2587,-5.2654,-5.2231,0.0,0.0,0.0,0.0,0.0,0.0,0.0,-6.0358,-6.0473,-5.9627,-5.9204,-5.8896,-5.855,-5.728,-5.6483,-5.6483,-5.6011,-5.5357,-5.4549,-5.4934,-5.4626,-5.328,-5.3356,-5.2587,-5.075,-5.0366,-4.9586,0.0,0.0,0.0,0.0,0.0,0.0,0.0,0.0,-4.6586,-4.6923,-4.7432,-4.7625,-4.7663,-4.7971,-4.7932,-4.7625,-4.7625,-4.7317,-4.6846,-4.6509,-4.6047,-4.5594,-4.5594,-4.5594,-4.5594,-4.5594,-4.5594,-4.5594,-4.5594,-4.5594,-4.5594,-4.5594,-4.5594,-4.5594,-4.5594,-4.5594,-4.5594,-4.5594,-4.5594,-4.5594,-4.5594,-4.5594,-4.5594,-4.5594,-4.5594,-4.5594,0.0,0.0,0.0,0.0,0.0,0.0,0.0,0.0,0.0,0.0,0.0,0.0,0.0,0.0,0.0,0.0,0.0,0.0,-4.4778,0.0,-4.6547,-4.6885,-4.824,-4.8625,-4.8125,-4.8625,-4.8163,-4.6885,-4.6547,-4.6817,-4.7663,-4.8509,-4.9586,-5.0712,-5.0712,-5.0712,-5.075,-5.1241,-5.1433,-5.1625,-5.3356,-5.378,-5.3664,-5.7511,0.0,-5.8204,0.0,-5.9896,-6.0089,-6.0704,-6.0781,-6.0589,-5.9973,-5.9896,-5.9704,-5.9204,-5.8088,-5.7357,-5.7357,-5.6588,-5.5857,-5.528,-5.5511,-5.5164,-5.3972,-5.4318,0.0,-5.1866,-5.1318,-5.0625,-4.9779,-4.8894,0.0,0.0,0.0,0.0,0.0,-4.6971,-4.7394,-4.7663,-4.824,-4.8471,-4.8509,-4.8779,-4.8548,-4.8086,-4.8086,-4.7586,-4.6885,-4.6624,-4.6124,-4.5594,-4.5594,-4.5594,-4.5594,-4.5594,-4.5594,-4.5594,-4.5594,-4.5594,-4.5594,-4.5594,-4.5594,-4.5594,-4.5594,-4.5594,-4.5594,-4.5594,-4.5594,-4.5594,-4.5594,-4.5594,-4.5594,-4.5594,-4.5594,-4.5594,-4.5594,0.0,0.0,0.0,0.0,0.0,0.0,0.0,-4.5094,-4.4701,0.0,0.0,0.0,0.0,0.0,0.0,0.0,0.0,0.0,0.0,0.0,0.0,-4.8663,-4.9086,-4.8509,-4.9125,-4.8779,-4.7625,-4.7625,-4.8086,-4.8894,-4.951,-5.0394,-5.1433,-5.1164,-5.1202,-5.1471,-5.2049,-5.2269,-5.2462,-5.3933,-5.4511,-5.4626,-5.9127,-5.9473,-5.9742,-6.0627,-6.0781,-6.0781,-6.0781,-6.0781,-6.0781,-6.0781,-6.0781,-6.0165,-5.8511,-5.8319,-5.828,-5.828,-5.75,-5.6973,-5.6983,-5.6165,-5.5703,0.0,0.0,-5.4472,-5.4434,-5.2779,-5.151,-5.0673,0.0,0.0,-4.8125,0.0,-4.8086,-4.8086,-4.8086,-4.8548,-4.9356,-4.9394,-4.9394,-4.9471,-5.0327,-4.9625,-4.8086,-4.8086,-4.7586,-4.6778,-4.5932,-4.5594,-4.5594,-4.5594,-4.5594,-4.5594,-4.5594,-4.5594,-4.5594,-4.5594,-4.5594,-4.5594,-4.5594,-4.5594,-4.5594,-4.5594,-4.5594,-4.5594,-4.5594,-4.5594,-4.5594,-4.5594,-4.5594,-4.5594,-4.5594,-4.5594,-4.5594,-4.5594,0.0,0.0,0.0,0.0,0.0,0.0,-4.4855,-4.4662,-4.5518,0.0,0.0,0.0,0.0,0.0,0.0,0.0,0.0,-4.6808,-4.6885,0.0,-4.8086,-4.8971,-4.9394,-4.9394,-4.9394,-4.9394,-4.9356,-4.9356,-4.9817,-5.0673,-5.0673,-5.1625,-5.3087,-5.2231,-5.2385,-5.3164,-5.3164,-5.3203,-5.328,-5.4164,-5.4511,-5.4626,-6.0281,-6.0396,-6.0473,-6.0742,-6.0781,-6.0781,-6.0781,-6.0781,-6.0781,-6.0781,-6.0781,-6.0589,-6.005,-5.8973,-5.8319,0.0,-5.7511,-5.7011,0.0,-5.6753,-5.6329,-5.5742,-5.5434,-5.5049,-5.4511,-5.3356,-5.2356,-5.151,0.0,0.0,0.0,-4.8971,-4.8663,-4.8125,-4.8702,-4.9125,-4.9433,-5.001,-5.0289,-5.0327,-5.0596,-5.001,-4.8971,-4.8971,-4.8125,-4.6846,-4.6586,-4.6086,-4.5594,-4.5594,-4.5594,-4.5594,-4.5594,-4.5594,-4.5594,-4.5594,-4.5594,-4.5594,-4.5594,-4.5594,-4.5594,-4.5594,-4.5594,-4.5594,-4.5594,-4.5594,-4.5594,-4.5594,-4.5594,-4.5594,-4.5594,-4.5594,-4.5594,-4.5594,-4.5594,0.0,0.0,0.0,0.0,0.0,-4.5364,-4.5287,0.0,-4.4586,0.0,0.0,0.0,0.0,0.0,0.0,0.0,0.0,-4.7702,0.0,-4.8971,-4.9856,-5.0289,-5.0289,-5.0289,-5.0289,-5.0289,-5.0289,-5.0741,-5.1548,-5.2164,-5.2702,-5.3164,-5.2895,-5.2972,-5.328,-5.3857,-5.4087,-5.4203,-5.5011,-5.5318,-5.5357,-6.0781,-6.0781,-6.0781,-6.0781,-6.0781,-6.0781,-6.0781,-6.0781,-6.0781,-6.0781,-6.0781,-6.0666,-6.0358,-5.9396,0.0,-5.9204,-5.8165,-5.7473,-5.7473,-5.6868,-5.6291,-5.5703,-5.5703,-5.5472,-5.4972,-5.4126,0.0,-5.2385,-5.1241,-5.0442,-4.9894,-4.9894,-4.9586,-4.9086,-4.9663,-4.9894,-4.9933,-5.0481,-5.0712,-5.0712,-5.0712,-5.0164,-4.9394,-4.9394,-4.8355,-4.6885,-4.6885,-4.6355,-4.5594,-4.5594,-4.5594,-4.5594,-4.5594,-4.5825,-4.6009,-4.571,-4.5594,-4.5594,-4.5594,-4.5594,-4.5594,-4.5594,-4.5594,-4.571,-4.6009,-4.5825,-4.571,-4.6009,-4.5825,-4.5594,-4.5594,-4.5594,-4.5594,-4.5594,-4.5594,-4.5594,-4.5594,0.0,0.0,0.0,0.0,0.0,0.0,-4.5094,-4.4778,0.0,0.0,0.0,0.0,0.0,0.0,-4.6509,-4.8394,0.0,-4.9894,-5.0442,-5.0712,-5.0712,-5.0712,-5.0856,-5.1164,-5.1164,-5.1779,-5.2895,-5.3126,-5.3549,-5.4126,-5.3818,-5.3857,-5.4203,-5.4741,-5.4934,-5.5011,-5.5511,-5.5703,-5.5742,-6.0781,-6.0781,0.0,0.0,-6.0781,0.0,-6.0781,-6.0781,-6.0781,-6.0781,-6.0781,-6.0473,-5.9665,-5.9588,-5.9935,-6.0742,0.0,0.0,0.0,-5.6819,-5.5857,-5.578,-5.5742,-5.5703,-5.5703,-5.4895,-5.4087,-5.3203,-5.1587,-5.0789,-5.0789,-5.075,-5.0712,-5.0712,-5.0712,-5.0712,-5.0712,-5.0712,-5.0712,-5.0712,-5.0712,-5.0164,-4.9394,-4.9394,-4.8394,-4.6962,-4.6923,-4.6394,-4.5748,-4.5633,-4.5671,-4.5748,-4.571,-4.6278,-4.6817,-4.5864,-4.5633,-4.571,-4.571,-4.571,-4.571,-4.571,-4.571,-4.5893,-4.674,-4.6278,-4.5932,-4.674,-4.6201,-4.5594,-4.5594,-4.5594,-4.5594,-4.5594,-4.5594,-4.5594,-4.5594,0.0,0.0,0.0,0.0,0.0,0.0,-4.571,-4.571,0.0,0.0,0.0,0.0,0.0,-4.6586,-4.8125,-4.9048,-4.9894,-5.0712,-5.0712,-5.075,-5.0789,-5.0789,-5.1241,-5.2077,-5.2077,-5.301,-5.4549,-5.3741,-5.4241,-5.5626,-5.4895,-5.5011,-5.5703,-5.5703,-5.5703,-5.5703,-5.5703,-5.5742,-5.5895,0.0,0.0,-6.0781,-6.0781,-6.0781,-6.0781,-6.0781,-6.0781,-6.0781,-6.0781,-6.0781,-6.0704,-6.0512,-6.0473,-6.0589,-6.0781,-5.9819,-5.9204,-5.9204,-5.8242,-5.7396,-5.6714,-5.6049,-5.5703,-5.5703,-5.4895,-5.4087,-5.3203,-5.2125,-5.1625,-5.1587,-5.0971,-5.0712,-5.0712,-5.0712,-5.0712,-5.0712,-5.0712,-5.0712,-5.0712,-5.0712,-5.0164,-4.9394,-4.9394,-4.874,-4.774,-4.7115,-4.7163,-4.7317,-4.6018,-4.6432,-4.7394,-4.6778,-4.7163,-4.7509,-4.6056,-4.6086,-4.6586,-4.6586,-4.6586,-4.6586,-4.6586,-4.6586,-4.6663,-4.6846,-4.674,-4.6663,-4.6846,-4.6201,-4.5594,-4.5594,-4.5594,-4.5594,-4.5594,-4.5594,-4.5594,-4.5594,-4.5594,0.0,0.0,-4.6201,-4.6586,-4.6586,-4.6586,-4.6586,0.0,0.0,0.0,0.0,-4.7932,-4.8663,-4.9086,-4.9933,-5.0481,-5.0712,-5.0712,-5.101,-5.1625,-5.1625,-5.2395,-5.3895,-5.3895,-5.4434,-5.5395,-5.5203,-5.5318,-5.5703,-5.5472,-5.5511,-5.5703,-5.5703,-5.5703,-5.5703,-5.5703,-5.6126,-5.6714,-6.0781,-6.0781,-6.0781,-6.0781,-6.0781,-6.0781,-6.0781,-6.0781,-6.0781,-6.0781,-6.0781,-6.0781,-6.0781,-6.0781,-6.0781,-6.0781,-5.9665,-5.9127,-5.9473,-5.8011,-5.7088,-5.6983,-5.6175,-5.5703,-5.5703,-5.528,-5.4626,-5.378,-5.25,-5.1885,-5.1885,-5.1087,-5.0712,-5.0712,-5.0712,-5.0712,-5.0712,-5.0712,-5.0712,-5.0712,-5.0712,-5.0442,-4.9971,-4.9971,-4.9433,-4.8625,-4.8202,-4.8086,-4.7971,-4.7048,-4.7355,-4.8009,-4.7586,-4.8009,-4.8432,-4.7124,-4.7086,-4.7471,-4.7471,-4.7471,-4.7471,-4.7471,-4.7471,-4.7548,-4.7971,-4.774,-4.7548,-4.7971,-4.7355,-4.674,-4.674,-4.6432,-4.6201,-4.6201,-4.5864,-4.5594,-4.5594,-4.5594,0.0,-4.6163,-4.6624,-4.7038,-4.7432,-4.7471,-4.7471,-4.7471,-4.7471,0.0,-4.8009,-4.8894,-4.9394,-4.9394,-5.025,-5.0856,-5.1241,-5.1625,-5.2049,-5.25,-5.25,-5.3203,-5.4511,-5.4511,-5.4934,-5.5703,-5.5703,-5.5703,-5.5703,-5.5703,-5.5703,-5.5703,-5.5703,-5.5703,-5.5742,-5.6137,-5.6599,-5.7099,-6.0781,-6.0781,-6.0781,-6.0781,-6.0781,-6.0781,-6.0781,-6.0781,-6.0781,-6.0781,-6.0781,-6.0781,-6.0781,-6.0781,-6.0781,-6.0781,-5.9396,-5.8819,-5.9627,-5.7434,-5.6434,-5.7176,-5.6242,-5.5703,-5.5703,-5.5703,-5.5357,-5.4664,-5.3087,-5.2269,-5.2269,-5.1471,-5.102,-5.0894,-5.0894,-5.0827,-5.0712,-5.0712,-5.0712,-5.0712,-5.0712,-5.0712,-5.0712,-5.0712,-5.025,-4.9586,-4.9433,-4.9009,-4.8471,-4.8202,-4.8279,-4.8471,-4.8355,-4.8894,-4.9433,-4.8702,-4.8509,-4.8471,-4.8317,-4.8317,-4.8317,-4.8317,-4.8317,-4.8509,-4.924,-4.8817,-4.8509,-4.924,-4.8702,-4.8086,-4.8086,-4.7548,-4.7038,-4.6923,-4.6278,-4.5748,-4.5633,0.0,-4.6086,-4.6817,-4.7115,-4.7548,-4.824,-4.8317,-4.8317,-4.8317,-4.8317,-4.8625,-4.9356,-4.951,-4.9586,-4.9586,-5.0433,-5.1279,-5.2077,-5.2818,-5.328,-5.3395,-5.3395,-5.3857,-5.4664,-5.4664,-5.5049,-5.5703,-5.5703,-5.5703,-5.5703,-5.5703,-5.5703,-5.5703,-5.5703,-5.5703,-5.5818,-5.6676,-5.7099,-5.7407,-6.0781,-6.0781,-6.0781,-6.0781,-6.0781,-6.0781,-6.0781,-6.0781,-6.0781,-6.0781,-6.0781,-6.0781,-6.0781,-6.0781,-6.0781,-6.0781,-5.9896,-5.9665,-6.055,-5.8896,-5.7973,-5.8088,-5.6549,-5.5703,-5.5703,-5.5703,-5.5626,-5.5511,-5.4549,-5.4087,-5.4087,-5.3203,-5.2433,-5.1692,-5.1692,-5.1356,-5.0712,-5.0712,-5.0712,-5.0712,-5.0712,-5.0712,-5.0712,-5.0712,-5.0635,-5.0404,-4.9663,-4.9779,-5.0048,-4.8586,-4.9086,-5.0173,-4.9433,-4.9779,-5.0481,-5.0327,-5.0289,-5.0125,-4.9394,-4.9202,-4.9202,-4.9202,-4.9202,-4.924,-4.9356,-4.9317,-4.924,-4.9356,-4.8702,-4.8086,-4.8086,-4.8009,-4.7702,-4.7,-4.6778,-4.6432,-4.571,0.0,-4.674,-4.6885,-4.8163,-4.9048,-4.9202,-4.9202,-4.9202,-4.9202,-4.9202,-4.924,-4.9394,-5.0087,-5.0519,-5.0519,-5.1279,-5.2115,-5.301,-5.3126,-5.3587,-5.428,-5.428,-5.4741,-5.5511,-5.5511,-5.5588,-5.5703,-5.5703,-5.5703,-5.5703,-5.5703,-5.5703,-5.5703,-5.5703,-5.5703,-5.5818,-5.6676,-5.7473,-5.8242,-6.0781,-6.0781,-6.0781,-6.0781,-6.0781,-6.0973,-6.1435,-6.1512,-6.1512,-6.1512,-6.1512,-6.132,-6.0858,-6.0781,-6.0781,-6.0781,-6.0435,-6.0358,-6.0781,-5.8781,-5.7819,-5.828,-5.6626,-5.5703,-5.5703,-5.5703,-5.5703,-5.5703,-5.4895,-5.4511,-5.4472,-5.3626,-5.301,-5.2577,-5.2577,-5.2125,-5.1356,-5.1356,-5.1087,-5.0712,-5.0712,-5.0712,-5.0712,-5.0712,-5.0712,-5.0635,-5.025,-5.0366,-5.0596,-4.9779,-5.001,-5.0635,-5.025,-5.0366,-5.0712,-5.0712,-5.0712,-5.0596,-5.0212,-5.0433,-5.0625,-5.0202,-5.0433,-5.0625,-5.0202,-5.0087,-5.0087,-5.0087,-4.9779,-4.951,-4.951,-4.9125,-4.8663,-4.8317,-4.7509,0.0,0.0,-4.6932,-4.724,-4.8125,-4.8933,-4.9586,-5.0048,-5.0087,-5.0087,-5.0087,-5.051,-5.0741,-5.0741,-5.1587,-5.2049,-5.2049,-5.2395,-5.301,-5.3895,-5.4318,-5.4741,-5.5164,-5.5164,-5.5318,-5.5703,-5.5703,-5.5703,-5.5703,-5.5703,-5.5972,-5.6368,-5.5895,-5.5972,-5.6406,-5.6406,-5.6406,-5.656,-5.7857,-5.8588,-5.9088,-6.1089,-6.1089,-6.1166,-6.1358,-6.105,-6.1166,-6.2204,-6.2216,-6.2101,-6.2101,-6.2101,-6.1793,-6.0896,-6.0781,-6.0781,-6.0781,-6.0781,-6.0781,-6.0781,-5.8792,-5.7896,-5.855,-5.6934,-5.6011,-5.6011,-5.578,-5.5703,-5.5703,-5.5088,-5.478,-5.4741,-5.4087,-5.3664,-5.351,-5.351,-5.2933,-5.1885,-5.1885,-5.1433,-5.0712,-5.0712,-5.0712,-5.0712,-5.0712,-5.0712,-5.0712,-5.0712,-5.0712,-5.0712,-5.0712,-5.0712,-5.0712,-5.0712,-5.0712,-5.0712,-5.0712,-5.0827,-5.0933,-5.075,-5.1279,-5.1731,-5.1125,-5.1433,-5.1731,-5.1125,-5.0827,-5.0712,-5.0712,-5.0712,-5.0712,-5.0712,-5.0164,-4.9625,-4.9433,0.0,0.0,0.0,-4.774,-4.7971,-4.924,-4.9586,-4.9971,-5.0635,-5.0856,-5.0971,-5.0971,-5.1741,-5.2192,-5.2192,-5.2856,-5.328,-5.351,-5.351,-5.3895,-5.478,-5.5395,-5.5703,-5.5703,-5.5703,-5.5703,-5.5703,-5.5703,-5.5703,-5.5703,-5.5703,-5.6088,-5.6637,-5.5972,-5.6214,-5.6983,-5.6983,-5.7137,-5.7484,-5.8973,-5.9511,-5.9627,-6.1985,-6.1985,-6.2243,-6.3012,-6.182,-6.1358,-6.2974,-6.2589,-6.2101,-6.2101,-6.2101,-6.1793,-6.0896,-6.0781,-6.0781,-6.0781,-6.0781,-6.0781,-6.0781,-5.9858,-5.9358,-5.9396,-5.778,-5.6907,-5.6907,-5.6088,-5.5703,-5.5703,-5.5626,-5.5588,-5.5588,-5.5549,-5.5126,-5.4395,-5.4395,-5.3472,-5.1885,-5.1885,-5.1433,-5.0712,-5.0712,-5.0712,-5.0712,-5.0712,-5.0712,-5.0712,-5.0712,-5.0712,-5.0712,-5.0712,-5.0712,-5.0712,-5.0712,-5.0712,-5.0712,-5.0712,-5.1241,-5.1654,-5.0894,-5.1279,-5.1885,-5.1846,-5.1846,-5.1885,-5.1846,-5.1241,-5.0712,-5.0712,-5.0712,-5.0712,-5.0712,-5.0635,-5.0327,-4.951,0.0,0.0,-4.8202,-4.874,-4.924,-4.9394,-5.0087,-5.0635,-5.0712,-5.1356,-5.1808,-5.1808,-5.2615,-5.3087,-5.3087,-5.3164,-5.3587,-5.4395,-5.4395,-5.478,-5.5588,-5.5665,-5.5703,-5.5703,-5.5703,-5.5703,-5.5703,-5.5703,-5.5703,-5.5703,-5.5703,-5.5742,-5.578,-5.5742,-5.6214,-5.6983,-5.6983,-5.7473,-5.8319,-5.9165,-5.9511,-5.9627,-6.2858,-6.2858,-6.2781,-6.2589,-6.2012,-6.182,-6.2474,-6.2293,-6.2293,-6.2781,-6.2397,-6.1985,-6.1639,-6.1127,-6.0781,-6.0781,-6.0781,-6.0781,-6.0781,-6.0473,-5.9858,-5.8819,-5.7627,-5.6983,-5.6983,-5.6137,-5.5703,-5.5703,-5.5703,-5.5703,-5.5703,-5.5703,-5.5549,-5.5241,-5.5241,-5.4587,-5.351,-5.351,-5.2702,-5.1433,-5.1433,-5.1433,-5.1433,-5.1433,-5.1779,-5.2241,-5.2241,-5.2241,-5.2241,-5.2241,-5.2241,-5.2241,-5.2241,-5.2241,-5.2241,-5.2241,-5.2472,-5.2626,-5.2318,-5.2856,-5.3395,-5.2856,-5.3126,-5.3356,-5.2818,-5.2049,-5.1587,-5.2125,-5.1433,-5.102,-5.2049,-5.1395,-5.0741,-5.0933,0.0,-4.9471,-4.9663,-5.001,-5.0394,-5.0894,-5.1241,-5.1433,-5.1433,-5.1731,-5.1885,-5.1885,-5.3203,-5.401,-5.401,-5.4472,-5.4895,-5.5241,-5.5241,-5.5395,-5.5703,-5.5703,-5.5703,-5.5703,-5.5703,-5.5703,-5.5703,-5.5703,-5.5703,-5.5742,-5.6291,-5.6819,-5.7319,-5.7319,-5.778,-5.855,-5.855,-5.8742,-5.9165,-5.9973,-6.0319,-6.0358,-6.3705,-6.3705,-6.3551,-6.2974,-6.2447,-6.2293,-6.2781,-6.2627,-6.2781,-6.3589,-6.2974,-6.2358,-6.2139,-6.132,-6.0781,-6.0781,-6.0781,-6.0781,-6.0781,-6.0781,-6.0281,-5.9127,-5.8011,-5.7407,-5.7407,-5.628,-5.5703,-5.5703,-5.5703,-5.5703,-5.5703,-5.5703,-5.5703,-5.5703,-5.5703,-5.5241,-5.4511,-5.4511,-5.3664,-5.2308,-5.2308,-5.2308,-5.2308,-5.2308,-5.2692,-5.3203,-5.3203,-5.3203,-5.3203,-5.3203,-5.3203,-5.3203,-5.3203,-5.3203,-5.3241,-5.3549,-5.3626,-5.3664,-5.3933,-5.4434,-5.4664,-5.3818,-5.4049,-5.4357,-5.3741,-5.2933,-5.2462,-5.3087,-5.2279,-5.1856,-5.301,-5.2241,-5.1664,-5.2231,-5.1356,-5.0818,-5.1395,-5.1471,-5.1702,-5.2231,-5.2308,-5.2308,-5.2308,-5.2538,-5.2731,-5.2731,-5.4049,-5.4895,-5.4895,-5.5395,-5.5703,-5.5703,-5.5703,-5.5703,-5.5703,-5.5703,-5.5703,-5.5703,-5.5703,-5.5703,-5.5703,-5.5703,-5.5703,-5.5742,-5.6637,-5.7319,-5.7896,-5.8204,-5.8781,-5.9511,-5.9511,-5.9665,-5.9973,-6.0589,-6.0781,-6.0781,-6.4628,-6.4628,-6.4628,-6.4589,-6.3205,-6.2666,-6.4359,-6.3858,-6.3628,-6.4474,-6.3858,-6.3012,-6.2216,-6.132,-6.0819,-6.0781,-6.0781,-6.0781,-6.0781,-6.0781,-6.0781,-6.0781,-5.9204,-5.8319,-5.8319,-5.6626,-5.5703,-5.5703,-5.5703,-5.5703,-5.5703,-5.5703,-5.5703,-5.5703,-5.5703,-5.5241,-5.4511,-5.4511,-5.401,-5.3203,-5.3203,-5.3203,-5.3203,-5.3203,-5.3203,-5.3241,-5.3241,-5.3241,-5.3241,-5.3241,-5.3241,-5.3241,-5.3241,-5.3241,-5.3395,-5.4241,-5.4511,-5.4664,-5.5472,-5.5703,-5.5511,-5.4703,-5.4511,-5.4511,-5.4511,-5.3857,-5.3203,-5.3241,-5.3203,-5.3203,-5.3241,-5.3203,-5.3203,-5.3203,-5.3203,-5.3203,-5.3203,-5.3203,-5.3203,-5.3203,-5.3203,-5.3203,-5.3203,-5.3972,-5.4511,-5.4511,-5.5241,-5.5703,-5.5703,-5.5703,-5.5703,-5.5703,-5.5703,-5.5703,-5.5703,-5.5703,-5.5703,-5.5703,-5.5703,-5.5703,-5.5703,-5.5703,-5.5703,-5.5742,-5.6637,-5.6983,-5.7099,-5.7934,-5.8781,-5.9511,-5.9511,-6.005,-6.0781,-6.0781,-6.0781,-6.0781,-6.5513,-6.5513,-6.532,-6.4705,-6.4205,-6.382,-6.3705,-6.3462,-6.3628,-6.4474,-6.3858,-6.3205,-6.2974,-6.2204,-6.1485,-6.0858,-6.0781,-6.0781,-6.0781,-6.0781,-6.0781,-6.0781,-5.9742,-5.9127,-5.9127,-5.8088,-5.7511,-5.7511,-5.7511,-5.7511,-5.7511,-5.6896,-5.6599,-5.6599,-5.5972,-5.5549,-5.5318,-5.5318,-5.4857,-5.4126,-5.4126,-5.4126,-5.4126,-5.4126,-5.4472,-5.4934,-5.4934,-5.4934,-5.4934,-5.4934,-5.4934,-5.4934,-5.4934,-5.4934,-5.5011,-5.528,-5.5318,-5.5395,-5.5626,-5.5703,-5.5626,-5.5395,-5.5318,-5.5318,-5.5318,-5.4703,-5.428,-5.4857,-5.401,-5.3549,-5.4741,-5.3972,-5.3395,-5.401,-5.3587,-5.3203,-5.3203,-5.3741,-5.4126,-5.4126,-5.4126,-5.4126,-5.4126,-5.4357,-5.4511,-5.4511,-5.5241,-5.5703,-5.5703,-5.5703,-5.5703,-5.5703,-5.6291,-5.6599,-5.6599,-5.6011,-5.5703,-5.5703,-5.5703,-5.5703,-5.5703,-5.5703,-5.6011,-5.6637,-5.6907,-5.7368,-5.7973,-5.8819,-5.9281,-5.955,-6.0165,-6.055,-6.0781,-6.0781,-6.0781,-6.0781,-6.5897,-6.5897,-6.5628,-6.4743,-6.4589,-6.4436,-6.3897,-6.382,-6.4128,-6.5013,-6.4051,-6.3435,-6.3782,-6.2474,-6.1524,-6.132,-6.1012,-6.0781,-6.0781,-6.0781,-6.0781,-6.0781,-6.0281,-5.9858,-5.9511,-5.8704,-5.8319,-5.8319,-5.8319,-5.8319,-5.828,-5.7742,-5.7319,-5.6983,-5.6445,-5.6011,-5.5703,-5.5703,-5.5434,-5.4972,-5.4972,-5.4972,-5.4972,-5.4972,-5.528,-5.5742,-5.6088,-5.5972,-5.5742,-5.6088,-5.5972,-5.5703,-5.5703,-5.5934,-5.6214,-5.6214,-5.6472,-5.6742,-5.6742,-5.6742,-5.6742,-5.6742,-5.6203,-5.5703,-5.5703,-5.5318,-5.5203,-5.6049,-5.5395,-5.5126,-5.6472,-5.5895,-5.528,-5.5472,-5.5049,-5.4587,-5.4241,-5.4626,-5.4972,-5.4972,-5.4972,-5.4972,-5.4972,-5.4972,-5.4972,-5.4972,-5.5434,-5.5857,-5.6214,-5.5895,-5.6011,-5.6703,-5.6907,-5.7176,-5.7511,-5.6973,-5.6549,-5.6214,-5.6549,-5.6357,-5.5703,-5.6395,-5.6819,-5.706,-5.7715,-5.828,-5.8858,-5.9665,-6.0012,-6.0089,-6.0589,-6.0781,-6.0781,-6.0781,-6.0781,-6.0781,-6.5897,-6.5897,-6.5628,-6.4859,-6.4705,-6.4705,-6.4705,-6.4705,-6.5013,-6.5782,-6.4512,-6.382,-6.4512,-6.2512,-6.1435,-6.2139,-6.1396,-6.0935,-6.0935,-6.0819,-6.0781,-6.0781,-6.0781,-6.0435,-5.9627,-5.8896,-5.8511,-5.8511,-5.8511,-5.8511,-5.8511,-5.8434,-5.7973,-5.7214,-5.7137,-5.6676,-5.5934,-5.5934,-5.5934,-5.5934,-5.5934,-5.5934,-5.5934,-5.5934,-5.5934,-5.6049,-5.683,-5.6599,-5.6049,-5.6753,-5.6522,-5.5934,-5.5818,-5.6406,-5.7137,-5.7137,-5.7665,-5.8319,-5.8319,-5.8319,-5.8319,-5.8319,-5.7126,-5.5934,-5.5934,-5.5934,-5.6165,-5.6945,-5.7137,-5.7368,-5.8165,-5.8319,-5.805,-5.7253,-5.706,-5.6714,-5.5934,-5.5742,-5.5703,-5.5703,-5.5703,-5.5703,-5.5703,-5.578,-5.5857,-5.5934,-5.5934,-5.628,-5.706,-5.6357,-5.6665,-5.8242,-5.7588,-5.7588,-5.8396,-5.8473,-5.805,-5.7137,-5.7934,-5.7473,-5.5972,-5.7588,-5.7896,-5.7291,-5.8742,-5.9435,-5.955,-6.0358,-6.0666,-6.0704,-6.0781,-6.0781,-6.0781,-6.0781,-6.0781,-6.0819,-6.5897,-6.5897,-6.582,-6.5628,-6.5628,-6.5628,-6.5628,-6.5628,-6.5705,-6.5859,-6.5551,-6.5166,-6.4666,-6.4128,-6.3589,-6.3089,-6.2281,-6.1831,-6.1831,-6.1166,-6.0781,-6.0781,-6.0781,-6.0704,-6.0512,-6.0358,-6.0242,-6.0242,-6.0242,-6.0242,-6.0242,-5.955,-5.9127,-5.8934,-5.8319,-5.7896,-5.7742,-5.7742,-5.7742,-5.7742,-5.7742,-5.7742,-5.7742,-5.7742,-5.7742,-5.778,-5.7934,-5.7896,-5.7665,-5.7176,-5.7319,-5.7627,-5.6934,-5.7319,-5.8011,-5.8011,-5.8165,-5.8319,-5.8319,-5.8319,-5.8319,-5.8319,-5.8011,-5.7742,-5.7742,-5.7742,-5.778,-5.7973,-5.8011,-5.8088,-5.828,-5.8319,-5.8242,-5.805,-5.7434,-5.6945,-5.6753,-5.6126,-5.5703,-5.5703,-5.5703,-5.5703,-5.5703,-5.6329,-5.7011,-5.7703,-5.7742,-5.7819,-5.8011,-5.7857,-5.7896,-5.828,-5.8742,-5.905,-5.9242,-5.9935,-5.9511,-5.8011,-5.8204,-5.8088,-5.7742,-5.8127,-5.855,-5.8934,-5.8665,-5.8934,-5.9511,-5.9704,-5.9781,-5.9858,-6.0512,-6.0781,-6.0781,-6.0781,-6.0781,-6.0973,-6.5897,-6.5897,-6.5897,-6.5897,-6.5897,-6.5897,-6.5897,-6.5897,-6.5897,-6.5897,-6.5551,-6.5243,-6.5205,-6.4474,-6.382,-6.3346,-6.2935,-6.2512,-6.2139,-6.1678,-6.1243,-6.0819,-6.0781,-6.0781,-6.0781,-6.0781,-6.0781,-6.0781,-6.0781,-6.0781,-6.0781,-6.0319,-5.9896,-5.9473,-5.905,-5.8665,-5.8319,-5.8319,-5.8319,-5.8319,-5.8319,-5.8319,-5.8319,-5.8319,-5.8319,-5.8357,-5.8742,-5.8858,-5.8742,-5.7896,-5.7934,-5.8204,-5.7742,-5.8204,-5.8858,-5.8858,-5.9165,-5.9473,-5.9473,-5.9473,-5.9473,-5.9473,-5.9473,-5.9281,-5.8473,-5.8319,-5.8396,-5.8781,-5.8858,-5.9011,-5.9435,-5.9473,-5.9358,-5.8934,-5.8473,-5.7896,-5.7099,-5.6973,-5.678,-5.6368,-5.6703,-5.6934,-5.6934,-5.7357,-5.7819,-5.828,-5.8319,-5.8473,-5.8858,-5.8511,-5.8665,-5.9473,-5.9511,-5.9704,-6.0127,-6.055,-6.0358,-5.9473,-5.9473,-5.9088,-5.8319,-5.9127,-5.9511,-5.9511,-5.9473,-5.9742,-6.0127,-6.0127,-6.0127,-6.0165,-6.0627,-6.0781,-6.0781,-6.0781,-6.105,-6.1589,-6.5897,-6.5897,-6.5897,-6.5897,-6.5897,-6.5897,-6.5897,-6.5897,-6.5897,-6.5897,-6.5282,-6.5089,-6.582,-6.4628,-6.3743,-6.3743,-6.3628,-6.3243,-6.2551,-6.2255,-6.1793,-6.105,-6.0858,-6.0781,-6.0781,-6.0781,-6.0781,-6.0781,-6.0781,-6.0781,-6.0781,-6.0781,-6.0396,-5.9704,-5.9704,-5.9358,-5.8742,-5.8742,-5.8742,-5.8742,-5.8742,-5.8742,-5.8742,-5.8742,-5.8742,-5.8819,-5.9473,-5.9704,-5.9588,-5.8781,-5.8588,-5.8704,-5.855,-5.9088,-5.9704,-5.9704,-6.0242,-6.0781,-6.0781,-6.0781,-6.0781,-6.0781,-6.0781,-6.0435,-5.905,-5.8742,-5.8934,-5.9588,-5.9704,-5.9935,-6.0666,-6.0781,-6.055,-5.9858,-5.9588,-5.9011,-5.7638,-5.7934,-5.805,-5.733,-5.7857,-5.8357,-5.8511,-5.8511,-5.8588,-5.8704,-5.8742,-5.9011,-5.9704,-5.9088,-5.9358,-6.0742,-6.0089,-6.0089,-6.0781,-6.0781,-6.0781,-6.0781,-6.0781,-6.005,-5.8781,-6.0165,-6.0396,-5.9742,-6.0473,-6.0781,-6.0781,-6.0781,-6.0781,-6.0781,-6.0781,-6.0781,-6.0819,-6.0973,-6.1485,-6.2255,-6.5897,-6.5897,-6.5897,-6.5897,-6.5897,-6.5897,-6.5897,-6.5897,-6.5897,-6.5897,-6.5782,-6.5782,-6.5897,-6.5705,-6.5551,-6.5551,-6.4859,-6.4397,-6.4282,-6.2897,-6.2062,-6.1947,-6.1204,-6.0781,-6.0781,-6.0781,-6.0781,-6.0781,-6.0781,-6.0781,-6.0781,-6.0781,-6.0742,-6.0627,-6.0627,-6.055,-6.0473,-6.0473,-6.0473,-6.0473,-6.0473,-6.0473,-6.0473,-6.0473,-6.0473,-6.0473,-6.0589,-6.0627,-6.0473,-5.9627,-5.9858,-6.0319,-5.9588,-5.9935,-6.0627,-6.0627,-6.0704,-6.0781,-6.0781,-6.0781,-6.0781,-6.0781,-6.0781,-6.0742,-6.0512,-6.0473,-6.0473,-6.0589,-6.0627,-6.0666,-6.0781,-6.0781,-6.0742,-6.0627,-5.9973,-5.9435,-5.9204,-5.8665,-5.828,-5.8127,-5.8242,-5.8588,-5.9281,-5.9358,-5.9665,-6.0396,-6.0473,-6.0512,-6.0627,-6.0512,-6.055,-6.0781,-6.0704,-6.0666,-6.0781,-6.0781,-6.0781,-6.0781,-6.0781,-6.0666,-6.0473,-6.0704,-6.0742,-6.0627,-6.0742,-6.0781,-6.0781,-6.0781,-6.0781,-6.0781,-6.0781,-6.0781,-6.0896,-6.1639,-6.1985,-6.2332,-6.5897,-6.5897,-6.5897,-6.5897,-6.5897,-6.5897,-6.5897,-6.6282,-6.6551,-6.6551,-6.6551,-6.6744,-6.7244,-6.6859,-6.6397,-6.5936,-6.5551,-6.5128,-6.4628,-6.3897,-6.3281,-6.2781,-6.2397,-6.2204,-6.2204,-6.1743,-6.1524,-6.1524,-6.105,-6.0781,-6.0781,-6.0781,-6.0781,-6.0781,-6.0781,-6.0781,-6.0781,-6.0781,-6.0781,-6.0781,-6.0781,-6.0781,-6.0781,-6.0781,-6.0781,-6.0781,-6.0781,-6.0781,-6.0742,-6.0358,-6.0473,-6.0742,-6.0358,-6.0473,-6.0781,-6.0781,-6.0781,-6.0781,-6.0781,-6.0781,-6.0781,-6.0781,-6.0781,-6.0781,-6.0781,-6.0781,-6.0781,-6.0781,-6.0781,-6.0781,-6.0781,-6.0781,-6.0781,-6.0781,-6.0473,-6.005,-5.9588,-5.9627,-5.9704,-5.9704,-5.9704,-5.9858,-6.0204,-6.0242,-6.0396,-6.0781,-6.0781,-6.0781,-6.0781,-6.0781,-6.0781,-6.0781,-6.0781,-6.0781,-6.0781,-6.0781,-6.0781,-6.0781,-6.0781,-6.0781,-6.0781,-6.0781,-6.0781,-6.0781,-6.0781,-6.0781,-6.0781,-6.0781,-6.0781,-6.0781,-6.0781,-6.0781,-6.0896,-6.1793,-6.2358,-6.2935]},{"header":{"parameterUnit":"m.s-1","parameterCategory":1,"la1":30.6,"la2":28.766,"lo1":-90.7593,"lo2":-88.6598,"dy":0.0162,"dx":0.0183,"nx":116,"ny":114,"refTime":"2024-03-31T12:00:00:Z","depth":0,"parameterNumber":3,"parameterNumberName":"V-component_of_WINDS"},"data":[0.0,0.0,0.0,0.0,0.0,0.0,0.0,0.0,0.0,0.0,0.0,0.0,0.0,0.0,0.0,0.0,0.0,0.0,0.0,0.0,0.0,0.0,0.0,0.0,0.0,0.0,0.0,0.0,0.0,0.0,0.0,0.0,0.0,0.0,0.0,0.0,0.0,0.0,0.0,0.0,0.0,0.0,0.0,0.0,0.0,0.0,0.0,0.0,0.0,0.0,0.0,0.0,0.0,0.0,0.0,0.0,0.0,0.0,0.0,0.0,0.0,0.0,0.0,0.0,0.0,0.0,0.0,0.0,0.0,0.0,0.0,0.0,0.0,0.0,0.0,0.0,0.0,0.0,0.0,0.0,0.0,0.0,0.0,0.0,0.0,0.0,0.0,0.0,0.0,0.0,0.0,0.0,0.0,0.0,0.0,0.0,0.0,0.0,0.0,0.0,0.0,0.0,0.0,0.0,0.0,0.0,0.0,0.0,0.0,0.0,0.0,0.0,0.0,0.0,0.0,0.0,0.0,0.0,0.0,0.0,0.0,0.0,0.0,0.0,0.0,0.0,0.0,0.0,0.0,0.0,0.0,0.0,0.0,0.0,0.0,0.0,0.0,0.0,0.0,0.0,0.0,0.0,0.0,0.0,0.0,0.0,0.0,0.0,0.0,0.0,0.0,0.0,0.0,0.0,0.0,0.0,0.0,0.0,0.0,0.0,0.0,0.0,0.0,0.0,0.0,0.0,0.0,0.0,0.0,0.0,0.0,0.0,0.0,0.0,0.0,0.0,0.0,0.0,0.0,0.0,0.0,0.0,0.0,0.0,0.0,0.0,0.0,0.0,0.0,0.0,0.0,0.0,0.0,0.0,0.0,0.0,0.0,0.0,0.0,0.0,0.0,0.0,0.0,0.0,0.0,0.0,0.0,0.0,0.0,0.0,0.0,0.0,0.0,0.0,0.0,0.0,0.0,0.0,0.0,0.0,0.0,0.0,0.0,0.0,0.0,0.0,0.0,0.0,0.0,0.0,0.0,0.0,0.0,0.0,0.0,0.0,0.0,0.0,0.0,0.0,0.0,0.0,0.0,0.0,0.0,0.0,0.0,0.0,0.0,0.0,0.0,0.0,0.0,0.0,0.0,0.0,0.0,0.0,0.0,0.0,0.0,0.0,0.0,0.0,0.0,0.0,0.0,0.0,0.0,0.0,0.0,0.0,0.0,0.0,0.0,0.0,0.0,0.0,0.0,0.0,0.0,0.0,0.0,0.0,0.0,0.0,0.0,0.0,0.0,0.0,0.0,0.0,0.0,0.0,0.0,0.0,0.0,0.0,0.0,0.0,0.0,0.0,0.0,0.0,0.0,0.0,0.0,0.0,0.0,0.0,0.0,0.0,0.0,0.0,0.0,0.0,0.0,0.0,0.0,0.0,0.0,0.0,0.0,0.0,0.0,0.0,0.0,0.0,0.0,0.0,0.0,0.0,0.0,0.0,0.0,0.0,0.0,0.0,0.0,0.0,0.0,0.0,0.0,0.0,0.0,0.0,0.0,0.0,0.0,0.0,0.0,0.0,0.0,0.0,0.0,0.0,0.0,0.0,0.0,0.0,0.0,0.0,0.0,0.0,0.0,0.0,0.0,0.0,0.0,0.0,0.0,0.0,0.0,0.0,0.0,0.0,0.0,0.0,0.0,0.0,0.0,0.0,0.0,0.0,0.0,0.0,0.0,0.0,0.0,0.0,0.0,0.0,0.0,0.0,0.0,0.0,0.0,0.0,0.0,0.0,0.0,0.0,0.0,0.0,0.0,0.0,0.0,0.0,0.0,0.0,0.0,0.0,0.0,0.0,0.0,0.0,0.0,0.0,0.0,0.0,0.0,0.0,0.0,0.0,0.0,0.0,0.0,0.0,0.0,0.0,0.0,0.0,0.0,0.0,0.0,0.0,0.0,0.0,0.0,0.0,0.0,0.0,0.0,0.0,0.0,0.0,0.0,0.0,0.0,0.0,0.0,0.0,0.0,0.0,0.0,0.0,0.0,0.0,0.0,0.0,0.0,0.0,0.0,0.0,0.0,0.0,0.0,0.0,0.0,0.0,0.0,0.0,0.0,0.0,0.0,0.0,0.0,0.0,0.0,0.0,0.0,0.0,0.0,0.0,0.0,0.0,0.0,0.0,0.0,0.0,0.0,0.0,0.0,0.0,0.0,0.0,0.0,0.0,0.0,0.0,0.0,0.0,0.0,0.0,0.0,0.0,0.0,0.0,0.0,0.0,0.0,0.0,0.0,0.0,0.0,0.0,0.0,0.0,0.0,0.0,0.0,0.0,0.0,0.0,0.0,0.0,0.0,0.0,0.0,0.0,0.0,0.0,0.0,0.0,0.0,0.0,0.0,0.0,0.0,0.0,0.0,0.0,0.0,0.0,0.0,0.0,0.0,0.0,0.0,0.0,0.0,0.0,0.0,0.0,0.0,0.0,0.0,0.0,0.0,0.0,0.0,0.0,0.0,0.0,0.0,0.0,0.0,0.0,0.0,0.0,0.0,0.0,0.0,0.0,0.0,0.0,0.0,0.0,0.0,0.0,0.0,0.0,0.0,0.0,0.0,0.0,0.0,0.0,0.0,0.0,0.0,0.0,0.0,0.0,0.0,0.0,0.0,0.0,0.0,0.0,0.0,0.0,0.0,0.0,0.0,0.0,0.0,0.0,0.0,0.0,0.0,0.0,0.0,0.0,0.0,0.0,0.0,0.0,0.0,0.0,0.0,0.0,0.0,0.0,0.0,0.0,0.0,0.0,0.0,0.0,0.0,0.0,0.0,0.0,0.0,0.0,0.0,0.0,0.0,0.0,0.0,0.0,0.0,0.0,0.0,0.0,0.0,0.0,0.0,0.0,0.0,0.0,0.0,0.0,0.0,0.0,0.0,0.0,0.0,0.0,0.0,0.0,0.0,0.0,0.0,0.0,0.0,0.0,0.0,0.0,0.0,0.0,0.0,0.0,0.0,0.0,0.0,0.0,0.0,0.0,0.0,0.0,0.0,0.0,0.0,0.0,0.0,0.0,0.0,0.0,0.0,0.0,0.0,0.0,0.0,0.0,0.0,0.0,0.0,0.0,0.0,0.0,0.0,0.0,0.0,0.0,0.0,0.0,0.0,0.0,0.0,0.0,0.0,0.0,0.0,0.0,0.0,0.0,0.0,0.0,0.0,0.0,0.0,0.0,0.0,0.0,0.0,0.0,0.0,0.0,0.0,0.0,0.0,0.0,0.0,0.0,0.0,0.0,0.0,0.0,0.0,0.0,0.0,0.0,0.0,0.0,0.0,0.0,0.0,0.0,0.0,0.0,0.0,0.0,0.0,0.0,0.0,0.0,0.0,0.0,0.0,0.0,0.0,0.0,0.0,0.0,0.0,0.0,0.0,0.0,0.0,0.0,0.0,0.0,0.0,0.0,0.0,0.0,0.0,0.0,0.0,0.0,0.0,0.0,0.0,0.0,0.0,0.0,0.0,0.0,0.0,0.0,0.0,0.0,0.0,0.0,0.0,0.0,0.0,0.0,0.0,0.0,0.0,0.0,0.0,0.0,0.0,0.0,0.0,0.0,0.0,0.0,0.0,0.0,0.0,0.0,0.0,0.0,0.0,0.0,0.0,0.0,0.0,0.0,0.0,0.0,0.0,0.0,0.0,0.0,0.0,0.0,0.0,0.0,0.0,0.0,0.0,0.0,0.0,0.0,0.0,0.0,0.0,0.0,0.0,0.0,0.0,0.0,0.0,0.0,0.0,0.0,0.0,0.0,0.0,0.0,0.0,0.0,0.0,0.0,0.0,0.0,0.0,0.0,0.0,0.0,0.0,0.0,0.0,0.0,0.0,0.0,0.0,0.0,0.0,0.0,0.0,0.0,0.0,0.0,0.0,0.0,0.0,0.0,0.0,0.0,0.0,0.0,0.0,0.0,0.0,0.0,0.0,0.0,0.0,0.0,0.0,0.0,0.0,0.0,0.0,0.0,0.0,0.0,0.0,0.0,0.0,0.0,0.0,0.0,0.0,0.0,0.0,0.0,0.0,0.0,0.0,0.0,0.0,0.0,0.0,0.0,0.0,0.0,0.0,0.0,0.0,0.0,0.0,0.0,0.0,0.0,0.0,0.0,0.0,0.0,0.0,0.0,0.0,0.0,0.0,0.0,0.0,0.0,0.0,0.0,0.0,0.0,0.0,0.0,0.0,0.0,0.0,0.0,0.0,0.0,0.0,0.0,0.0,0.0,0.0,0.0,0.0,0.0,0.0,0.0,0.0,0.0,0.0,0.0,0.0,0.0,0.0,0.0,0.0,0.0,0.0,0.0,0.0,0.0,0.0,0.0,0.0,0.0,0.0,0.0,0.0,0.0,0.0,0.0,0.0,0.0,0.0,0.0,0.0,0.0,0.0,0.0,0.0,0.0,0.0,0.0,0.0,0.0,0.0,0.0,0.0,0.0,0.0,0.0,0.0,0.0,0.0,0.0,0.0,0.0,0.0,0.0,0.0,0.0,0.0,0.0,0.0,0.0,0.0,0.0,0.0,0.0,0.0,0.0,0.0,0.0,0.0,0.0,0.0,0.0,0.0,0.0,0.0,0.0,0.0,0.0,0.0,0.0,0.0,0.0,0.0,0.0,0.0,0.0,0.0,0.0,0.0,0.0,0.0,0.0,0.0,0.0,0.0,0.0,0.0,0.0,0.0,0.0,0.0,0.0,0.0,0.0,0.0,0.0,0.0,0.0,0.0,0.0,0.0,0.0,0.0,0.0,0.0,0.0,0.0,0.0,0.0,0.0,0.0,0.0,0.0,0.0,0.0,0.0,0.0,0.0,0.0,0.0,0.0,0.0,0.0,0.0,0.0,0.0,0.0,0.0,0.0,0.0,0.0,0.0,0.0,0.0,0.0,0.0,0.0,0.0,0.0,0.0,0.0,0.0,0.0,0.0,0.0,0.0,0.0,0.0,0.0,0.0,0.0,0.0,0.0,0.0,0.0,0.0,0.0,0.0,0.0,0.0,0.0,0.0,0.0,0.0,0.0,0.0,0.0,0.0,0.0,0.0,0.0,0.0,0.0,0.0,0.0,0.0,0.0,0.0,0.0,0.0,0.0,0.0,0.0,0.0,0.0,0.0,0.0,0.0,0.0,0.0,0.0,0.0,0.0,0.0,0.0,0.0,0.0,0.0,0.0,0.0,0.0,0.0,0.0,0.0,0.0,0.0,0.0,0.0,0.0,0.0,0.0,0.0,0.0,0.0,0.0,0.0,0.0,0.0,0.0,0.0,0.0,0.0,0.0,0.0,0.0,0.0,0.0,0.0,0.0,0.0,0.0,0.0,0.0,0.0,0.0,0.0,0.0,0.0,0.0,0.0,0.0,0.0,0.0,0.0,0.0,0.0,0.0,0.0,0.0,0.0,0.0,0.0,0.0,0.0,0.0,0.0,0.0,0.0,0.0,0.0,0.0,0.0,0.0,0.0,0.0,0.0,0.0,0.0,0.0,0.0,0.0,0.0,0.0,0.0,0.0,0.0,0.0,0.0,0.0,0.0,0.0,0.0,0.0,0.0,0.0,0.0,0.0,0.0,0.0,0.0,0.0,0.0,0.0,0.0,0.0,0.0,0.0,0.0,0.0,0.0,0.0,0.0,0.0,0.0,0.0,0.0,0.0,0.0,0.0,0.0,0.0,0.0,0.0,0.0,0.0,0.0,0.0,0.0,0.0,0.0,0.0,0.0,0.0,0.0,0.0,0.0,0.0,0.0,0.0,0.0,0.0,0.0,0.0,0.0,0.0,0.0,0.0,0.0,0.0,0.0,0.0,0.0,0.0,0.0,0.0,0.0,0.0,0.0,0.0,0.0,0.0,0.0,0.0,0.0,0.0,0.0,0.0,0.0,0.0,0.0,0.0,0.0,0.0,0.0,0.0,0.0,0.0,0.0,0.0,0.0,0.0,0.0,0.0,0.0,0.0,0.0,0.0,0.0,0.0,0.0,0.0,0.0,0.0,0.0,0.0,0.0,0.0,0.0,0.0,0.0,0.0,0.0,0.0,0.0,0.0,0.0,0.0,0.0,0.0,0.0,0.0,0.0,0.0,0.0,0.0,0.0,0.5005,0.0,0.0,0.0,0.0,0.0,0.0,0.0,0.0,0.0,0.0,0.0,0.0,0.0,0.0,0.0,0.0,0.0,0.0,0.0,0.0,0.0,0.0,0.0,0.0,0.3389,0.4568,0.4615,0.6251,0.7251,0.7251,0.0,0.0,0.0,0.0,0.0,0.6991,0.6991,0.6957,0.6883,0.6783,0.688,0.7245,0.7447,0.7318,0.6997,0.0,0.0,0.0,0.0,0.0,0.0,0.0,0.0,0.0,0.0,0.0,0.0,0.0,0.0,0.0,0.0,0.0,0.0,0.0,0.0,0.0,0.0,0.0,0.0,0.0,0.0,0.0,0.0,0.0,0.0,0.0,0.0,0.0,0.0,0.0,0.0,0.0,0.0,0.0,0.0,0.0,0.0,0.0,0.0,0.0,0.0,0.0,0.0,0.0,0.0,0.0,0.0,0.0,0.0,0.0,0.0,0.0,0.0,0.0,0.0,0.0,0.0,0.0,0.0,0.0,0.0,0.0,0.0,0.0,0.0,0.0,0.5705,0.0,0.0,0.0,0.0,0.0,0.0,0.0,0.0,0.0,0.0,0.0,0.0,0.0,0.0,0.0,0.0,0.0,0.0,0.0,0.0,0.0,0.2224,0.1708,0.3075,0.4016,0.4154,0.6156,0.746,0.746,0.7433,0.0,0.0,0.7112,0.7098,0.7098,0.7098,0.7024,0.6883,0.6647,0.6896,0.7665,0.8147,0.7984,0.7303,0.7302,0.0,0.0,0.0,0.0,0.0,0.0,0.0,0.0,0.0,0.0,0.0,0.0,0.0,0.0,0.0,0.0,0.0,0.0,0.0,0.0,0.0,0.0,0.0,0.0,0.0,0.0,0.0,0.0,0.0,0.0,0.0,0.0,0.0,0.0,0.0,0.0,0.0,0.0,0.0,0.0,0.0,0.0,0.0,0.0,0.0,0.0,0.0,0.0,0.0,0.0,0.0,0.0,0.0,0.0,0.0,0.0,0.0,0.0,0.0,0.0,0.0,0.0,0.0,0.747,0.8042,0.8002,0.835,0.8282,0.7923,0.7807,0.7017,0.5835,0.0,0.0,0.0,0.0,0.0,0.0,0.0,0.0,0.0,0.0,0.0,0.0,0.0,0.0,0.0,0.0,0.0,0.0,0.0,0.0,0.4166,0.2148,0.4085,0.5494,0.5524,0.6807,0.757,0.757,0.7448,0.7405,0.7339,0.721,0.7098,0.7098,0.7098,0.7024,0.6883,0.6756,0.6812,0.7056,0.8373,0.8999,0.8938,0.831,0.8414,0.892,0.0,0.0,0.0,0.0,0.0,0.0,0.0,0.0,0.0,0.0,0.0,0.0,0.0,0.0,0.0,0.0,0.0,0.0,0.0,0.0,0.0,0.0,0.0,0.0,0.0,0.0,0.0,0.0,0.0,0.0,0.0,0.0,0.0,0.0,0.0,0.0,0.0,0.0,0.0,0.0,0.0,0.6634,0.6546,0.0,0.0,0.0,0.0,0.0,0.0,0.0,0.0,0.0,0.0,0.0,0.0,0.0,0.6344,0.7661,0.7837,0.7842,0.773,0.818,0.8289,0.8002,0.835,0.8452,0.8391,0.8377,0.0,0.7404,0.6138,0.0,0.0,0.0,0.0,0.0,0.0,0.0,0.0,0.0,0.0,0.0,0.0,0.0,0.0,0.0,0.0,0.0,0.0,0.0,0.0,0.0,0.472,0.581,0.5926,0.7063,0.7807,0.7726,0.774,0.7638,0.7426,0.7305,0.7231,0.7098,0.7018,0.6903,0.6803,0.6898,0.7197,0.7773,0.8541,0.9684,1.1107,1.0033,0.9826,1.0203,0.8736,0.0,0.0,0.0,0.0,0.0,0.0,0.0,0.0,0.0,0.0,0.0,0.0,0.0,0.0,0.0,0.0,0.0,0.0,0.0,0.0,0.0,0.0,0.0,0.0,0.0,0.0,0.0,0.0,0.0,0.0,0.0,0.0,0.0,0.0,0.0,0.0,0.0,0.0,0.0,0.6837,0.7021,0.6865,0.7244,0.7461,0.0,0.0,0.0,0.0,0.0,0.0,0.0,0.0,0.0,0.6942,0.7217,0.7661,0.814,0.8391,0.8486,0.8418,0.8716,0.875,0.8501,0.8852,0.894,0.892,0.8947,0.8784,0.8366,0.7491,0.71,0.6874,0.0,0.0,0.0,0.0,0.5012,0.5156,0.0,0.0,0.0,0.0,0.0,0.0,0.0,0.0,0.0,0.0,0.0,0.0,0.4625,0.5613,0.639,0.6485,0.7427,0.7941,0.7875,0.7853,0.778,0.7448,0.7439,0.7299,0.7098,0.6991,0.6869,0.6756,0.7051,0.7553,0.8225,0.8751,1.0048,1.1919,1.1254,1.122,1.1671,1.0162,0.9464,0.9204,0.0,0.0,0.0,0.0,0.0,0.0,0.0,0.0,0.0,0.0,0.0,0.0,0.0,0.0,0.0,0.0,0.0,0.0,0.0,0.0,0.0,0.0,0.0,0.0,0.0,0.0,0.0,0.0,0.0,0.0,0.0,0.0,0.0,0.0,0.0,0.0,0.0,0.7,0.7204,0.7004,0.7428,0.7645,0.0,0.0,0.0,0.0,0.0,0.0,0.7821,0.8072,0.811,0.8045,0.8404,0.8513,0.8323,0.8655,0.8845,0.8886,0.9144,0.9191,0.9062,0.932,0.9334,0.9214,0.933,0.9157,0.8797,0.852,0.8221,0.7885,0.6918,0.6553,0.6575,0.6542,0.6531,0.6631,0.0,0.0,0.0,0.0,0.0,0.0,0.0,0.0,0.0,0.0,0.0,0.6966,0.6021,0.7088,0.7869,0.7875,0.7988,0.7988,0.7982,0.7773,0.7611,0.759,0.7448,0.7299,0.7098,0.7092,0.7018,0.6876,0.736,0.7617,0.7664,0.9204,0.9992,1.0196,1.1298,1.2469,1.3421,1.1549,1.0422,0.9909,0.9267,0.0,0.0,0.0,0.0,0.0,0.0,0.0,0.0,0.0,0.0,0.0,0.0,0.0,0.0,0.0,0.0,0.0,0.0,0.0,0.0,0.0,0.0,0.0,0.0,0.0,0.0,0.0,0.0,0.0,0.0,0.0,0.0,0.0,0.0,0.0,0.0,0.0,0.0,0.6742,0.7115,0.0,0.0,0.0,0.0,0.776,0.788,0.814,0.8425,0.8587,0.8676,0.8662,0.8825,0.8974,0.9152,0.9173,0.9262,0.9347,0.951,0.9503,0.9367,0.9523,0.9435,0.9207,0.9221,0.8994,0.8723,0.8696,0.8594,0.8425,0.8046,0.8026,0.8139,0.7992,0.7889,0.7889,0.0,0.0,0.0,0.0,0.0,0.6566,0.6614,0.6912,0.7032,0.6857,0.7329,0.7622,0.7516,0.7901,0.8187,0.8187,0.8187,0.8106,0.7909,0.7794,0.7692,0.7604,0.755,0.7448,0.7292,0.7146,0.7166,0.736,0.7611,0.7787,0.7882,0.8428,0.9164,0.9993,1.0485,1.1365,1.249,1.1614,1.1486,1.1848,1.082,0.9756,0.0,0.0,0.0,0.0,0.0,0.0,0.0,0.0,0.0,0.0,0.0,0.0,0.0,0.0,0.0,0.0,0.0,0.0,0.0,0.0,0.0,0.0,0.0,0.0,0.0,0.0,0.0,0.0,0.0,0.0,0.0,0.0,0.0,0.0,0.0,0.0,0.0,0.7496,0.7868,0.0,0.7882,0.7997,0.8092,0.8106,0.833,0.856,0.8764,0.8913,0.9042,0.9137,0.9293,0.9395,0.9449,0.9537,0.9612,0.9666,0.972,0.972,0.9666,0.972,0.9686,0.9578,0.949,0.9334,0.9137,0.9035,0.8791,0.8472,0.8364,0.8357,0.8397,0.8343,0.8323,0.8323,0.0,0.0,0.0,0.0,0.6463,0.658,0.6681,0.6993,0.7292,0.7495,0.7651,0.7855,0.816,0.8241,0.832,0.832,0.8221,0.8106,0.7902,0.7794,0.7719,0.7672,0.7624,0.7482,0.7231,0.7319,0.7441,0.7597,0.7794,0.7887,0.7988,0.7988,0.8514,0.9406,0.9406,1.0145,1.1295,1.1154,1.1656,1.2527,1.1956,1.1231,1.038,0.0,0.0,0.0,0.0,0.0,0.0,0.0,0.0,0.0,0.0,0.0,0.0,0.0,0.0,0.0,0.0,0.0,0.0,0.0,0.0,0.0,0.0,0.0,0.0,0.0,0.0,0.0,0.0,0.0,0.0,0.0,0.0,0.0,0.0,0.0,0.7841,0.8085,0.8336,0.8465,0.8425,0.8506,0.854,0.8499,0.8771,0.9001,0.9101,0.93,0.9429,0.953,0.9625,0.968,0.968,0.9774,0.9822,0.9822,0.9822,0.9795,0.9747,0.9693,0.9646,0.9585,0.9442,0.9327,0.9225,0.9123,0.8906,0.8628,0.8581,0.856,0.856,0.856,0.856,0.8554,0.0,0.0,0.0,0.63,0.6498,0.6688,0.6702,0.7075,0.7405,0.7412,0.7502,0.7719,0.7961,0.818,0.8327,0.8327,0.8126,0.7982,0.7982,0.7753,0.7658,0.7801,0.7672,0.7394,0.6923,0.7516,0.774,0.7611,0.7847,0.7988,0.7988,0.7988,0.8126,0.832,0.832,0.8969,1.0163,1.0163,1.0753,1.1748,1.2676,1.2716,1.22,0.0,0.0,0.0,0.0,0.0,0.0,0.0,0.0,0.0,0.0,0.0,0.0,0.0,0.0,0.0,0.0,0.0,0.0,0.0,0.0,0.0,0.0,0.0,0.0,0.0,0.0,0.0,0.0,0.0,0.0,0.0,0.0,0.0,0.7105,0.7624,0.8106,0.8275,0.8418,0.8567,0.8716,0.8737,0.8798,0.8892,0.9232,0.9469,0.9612,0.9754,0.9829,0.9829,0.9822,0.9822,0.9822,0.9822,0.9822,0.9822,0.9822,0.9747,0.9612,0.9456,0.9306,0.9214,0.9008,0.8892,0.8892,0.8885,0.8885,0.8871,0.8777,0.8716,0.8716,0.8716,0.8716,0.8689,0.0,0.0,0.63,0.63,0.6368,0.6497,0.6668,0.6898,0.7088,0.719,0.7522,0.7828,0.7968,0.818,0.8361,0.8418,0.8085,0.7875,0.7875,0.7597,0.7502,0.7651,0.7516,0.7475,0.7563,0.7631,0.7746,0.7867,0.7948,0.7988,0.7988,0.7988,0.8126,0.832,0.832,0.8473,0.8874,0.9903,1.0433,1.0771,1.2567,1.3182,1.305,0.0,0.0,0.0,0.0,0.0,0.0,0.0,0.0,0.0,0.0,0.0,0.0,0.0,0.0,0.0,0.0,0.0,0.0,0.0,0.0,0.0,0.0,0.0,0.0,0.0,0.0,0.0,0.0,0.0,0.0,0.0,0.0,0.7617,0.7725,0.8031,0.8343,0.871,0.8981,0.915,0.9191,0.93,0.9381,0.9422,0.97,0.9822,0.9862,0.9903,0.9923,0.9923,0.9876,0.9822,0.9822,0.9822,0.9822,0.9822,0.9822,0.9802,0.9754,0.9612,0.9523,0.9469,0.9205,0.9096,0.9083,0.8981,0.8885,0.8878,0.8838,0.8817,0.8817,0.8817,0.8804,0.8689,0.0,0.6252,0.6279,0.6173,0.6306,0.647,0.6668,0.6878,0.6984,0.7004,0.6978,0.7185,0.7751,0.754,0.7566,0.815,0.7963,0.7787,0.7726,0.7617,0.7543,0.7502,0.7536,0.7611,0.7719,0.776,0.7868,0.7988,0.7988,0.7988,0.7988,0.7988,0.8153,0.8357,0.8357,0.8397,0.8511,0.9324,0.9935,1.0416,1.1628,1.251,1.3001,1.2614,1.221,1.1849,1.1542,1.1562,1.1586,1.0648,0.0,0.0,0.0,0.0,0.0,0.0,0.0,0.0,0.0,0.0,0.0,0.0,0.0,0.0,0.0,0.0,0.0,0.0,0.0,0.0,0.0,0.0,0.0,0.0,0.7753,0.7975,0.8319,0.8492,0.8696,0.9076,0.9334,0.9503,0.9557,0.9707,0.9768,0.97,1.0032,1.0181,0.9997,1.0051,1.0114,0.999,0.9897,0.9822,0.9822,0.9822,0.9822,0.9822,0.9822,0.9822,0.9815,0.9673,0.9612,0.0,0.9354,0.9268,0.9207,0.913,0.9049,0.0,0.0,0.0,0.0,0.0,0.8845,0.8696,0.602,0.6152,0.6252,0.602,0.6261,0.6538,0.6654,0.6912,0.6997,0.6856,0.6328,0.6351,0.7256,0.652,0.6432,0.7504,0.7574,0.7569,0.7604,0.7719,0.7672,0.7453,0.7665,0.7753,0.7624,0.7847,0.7988,0.7988,0.7988,0.7988,0.7988,0.7988,0.8194,0.8479,0.8479,0.8567,0.871,0.873,0.9282,1.022,1.0237,1.1148,1.2496,1.1934,1.2003,1.2303,1.2178,1.1973,1.1809,1.1779,0.0,0.0,0.0,0.0,0.0,0.0,0.0,0.0,0.0,0.0,0.0,0.0,0.0,0.0,0.0,0.0,0.0,0.0,0.0,0.0,0.0,0.0,0.0,0.0,0.8018,0.8271,0.8871,0.8959,0.911,0.9374,0.9544,0.9686,0.9808,0.9883,0.9909,0.9856,1.0229,1.0358,1.0051,0.0,0.0,0.0,0.0,0.9822,0.9822,0.9822,0.9822,0.9822,0.9822,0.9822,0.9815,0.9673,0.9612,0.9598,0.9449,0.9306,0.9248,0.9327,0.9218,0.8905,0.8892,0.8885,0.8885,0.8885,0.8845,0.871,0.602,0.6152,0.6252,0.602,0.6179,0.6388,0.6532,0.6668,0.6729,0.658,0.6862,0.6755,0.5928,0.585,0.5977,0.6336,0.6252,0.6601,0.7543,0.7624,0.7617,0.7556,0.7719,0.7801,0.7773,0.7894,0.7988,0.7988,0.7988,0.7988,0.7988,0.7988,0.8194,0.8479,0.8479,0.8567,0.8716,0.8845,0.8913,0.9044,0.9124,1.0502,1.2423,1.2003,1.1934,1.2144,1.3045,1.3445,1.3596,1.3476,1.3366,1.2921,1.0608,0.9563,0.0,0.0,0.0,0.0,0.0,0.0,0.0,0.0,0.0,0.0,0.0,0.0,0.0,0.0,0.0,0.0,0.0,0.0,0.0,0.8282,0.8479,0.8791,0.9395,0.9483,0.9503,0.9557,0.9693,0.9788,0.9815,0.9849,0.9903,0.9936,1.0202,1.0344,1.0405,1.0324,0.0,1.0236,0.9964,0.9822,0.9822,0.9822,0.9822,0.9822,0.0,0.0,0.9815,0.9673,0.9612,0.9598,0.9449,0.9361,0.934,0.9367,0.9273,0.9096,0.8981,0.8885,0.8885,0.8885,0.8845,0.871,0.602,0.6152,0.6252,0.602,0.6159,0.6347,0.6491,0.66,0.6675,0.66,0.6474,0.637,0.6262,0.5874,0.5847,0.6487,0.6412,0.6725,0.753,0.7529,0.755,0.7699,0.7773,0.7848,0.7923,0.7948,0.7988,0.7988,0.7988,0.7988,0.7988,0.7988,0.8194,0.8479,0.8479,0.8608,0.8832,0.8851,0.8838,0.8832,0.8851,0.9603,1.0601,1.0418,1.0647,1.1207,1.1812,1.2473,1.3,1.2931,1.2545,1.1776,1.0364,0.9381,0.8605,0.0,0.0,0.0,0.0,0.0,0.0,0.0,0.0,0.0,0.0,0.0,0.0,0.0,0.0,0.757,0.7489,0.0,0.8248,0.8547,0.8852,0.9178,0.9557,0.9673,0.9713,0.9713,0.9781,0.9822,0.9822,0.9958,1.0053,0.9984,1.0331,1.05,1.0493,1.0358,1.0283,1.0283,0.9985,0.9822,0.9822,0.9822,0.9822,0.9822,0.9822,0.9822,0.9822,0.9747,0.9713,0.9713,0.9632,0.9557,0.9483,0.9334,0.9323,0.9245,0.9022,0.8885,0.8885,0.8885,0.8838,0.8825,0.602,0.6,0.5976,0.602,0.6132,0.63,0.645,0.6559,0.6654,0.6654,0.6101,0.5958,0.663,0.593,0.5795,0.6745,0.685,0.7088,0.757,0.7455,0.7516,0.7841,0.7882,0.797,0.8069,0.8076,0.8076,0.8076,0.8076,0.8076,0.8076,0.8076,0.8269,0.8526,0.8526,0.8682,0.8885,0.8967,0.896,0.8892,0.8946,0.9008,0.8967,0.8845,0.9341,1.0128,1.0402,1.0946,1.1565,1.1914,1.1154,1.0138,0.992,0.9187,0.828,0.7767,0.7678,0.0,0.0,0.0,0.0,0.0,0.0,0.0,0.0,0.0,0.7448,0.7467,0.7692,0.7929,0.7902,0.8289,0.8662,0.8818,0.9171,0.9476,0.9632,0.9747,0.9822,0.9822,0.9849,0.9863,0.9863,1.012,1.0243,1.0078,1.0473,1.0636,1.0541,1.0399,1.031,1.0283,1.0012,0.9849,0.9822,0.9822,0.9822,0.9822,0.9822,0.9822,0.9822,0.9822,0.9822,0.9822,0.9822,0.9754,0.9632,0.9354,0.9313,0.9401,0.913,0.8972,0.8966,0.8905,0.8885,0.8885,0.0,0.5378,0.5118,0.5863,0.6006,0.6105,0.63,0.6443,0.6538,0.6538,0.6651,0.6355,0.5446,0.5374,0.5485,0.5753,0.6373,0.6973,0.7563,0.7455,0.7563,0.7948,0.8147,0.8289,0.8431,0.8431,0.8431,0.8431,0.8431,0.8431,0.8431,0.8431,0.852,0.8682,0.8682,0.8777,0.8892,0.9076,0.9055,0.8905,0.9225,0.9252,0.9187,0.9166,0.9126,0.9249,1.0428,1.0561,1.0448,1.1865,1.1952,1.1326,1.0427,0.9971,0.9518,0.8174,0.0,0.738,0.7146,0.7004,0.697,0.7258,0.7244,0.7186,0.0,0.0,0.7726,0.7597,0.8018,0.837,0.8241,0.8743,0.9187,0.9279,0.9462,0.9632,0.9774,0.9808,0.9822,0.9822,0.9876,0.9963,0.9963,1.0181,1.0324,1.0432,1.0487,1.0568,1.069,1.0555,1.0412,1.0283,1.0114,0.9896,0.9822,0.9822,0.9822,0.9822,0.9822,0.9822,0.9822,0.9822,0.9822,0.9822,0.9822,0.9815,0.9788,0.9625,0.9571,0.9564,0.9401,0.9334,0.93,0.9035,0.8885,0.8885,0.0,0.3944,0.3805,0.4218,0.4849,0.5484,0.6209,0.6422,0.6545,0.6593,0.6797,0.6718,0.63,0.635,0.6411,0.6467,0.6616,0.6953,0.7563,0.7455,0.7611,0.8147,0.8316,0.8425,0.8479,0.8479,0.8479,0.8479,0.8479,0.8479,0.8479,0.8479,0.8567,0.871,0.871,0.8838,0.9069,0.9187,0.9171,0.9205,0.9334,0.935,0.92,0.9062,0.8832,0.8659,0.9248,0.9272,0.0,0.963,0.9788,0.9631,0.9229,0.8959,0.8696,0.8001,0.7665,0.0,0.7058,0.7119,0.7305,0.0,0.7409,0.7651,0.7779,0.797,0.8085,0.8106,0.8452,0.8757,0.8832,0.913,0.9442,0.0,0.9639,0.9754,0.9815,0.9747,0.9666,0.9578,0.97,0.9802,0.997,1.0188,1.0337,1.048,1.0575,1.0656,1.0717,1.0575,1.0466,1.0405,1.0263,1.0107,0.9896,0.9889,0.9849,0.9822,0.9822,0.9822,0.9822,0.9822,0.9822,0.9822,0.9822,0.9822,0.9808,0.9666,0.9612,0.9591,0.9442,0.9381,0.9354,0.9144,0.9062,0.9049,0.0,0.2784,0.2635,0.2998,0.348,0.4303,0.5661,0.6218,0.6566,0.6681,0.6831,0.6923,0.7024,0.6997,0.6977,0.6977,0.6783,0.6878,0.7434,0.7407,0.7624,0.818,0.8384,0.8499,0.8547,0.8587,0.8608,0.8608,0.8608,0.8628,0.8669,0.8669,0.875,0.8893,0.8893,0.9015,0.9275,0.9316,0.935,0.9327,0.9408,0.9306,0.9076,0.8886,0.8587,0.8327,0.8336,0.8187,0.7957,0.7929,0.7963,0.8088,0.8119,0.8092,0.7955,0.7807,0.7617,0.7414,0.7129,0.7292,0.7502,0.7314,0.7638,0.8008,0.814,0.8282,0.8431,0.8581,0.8818,0.9028,0.9187,0.9401,0.9612,0.9612,0.9727,0.9822,0.9822,0.9659,0.9503,0.9395,0.9408,0.9557,0.9835,1.0141,1.0337,1.048,1.0636,1.0717,1.0717,1.0616,1.0534,1.0493,1.0392,1.0263,1.0051,1.0011,0.993,0.9883,0.9842,0.9822,0.9822,0.9822,0.9822,0.9822,0.9822,0.9822,0.9815,0.9707,0.9666,0.9659,0.9544,0.9503,0.9483,0.9334,0.9282,0.9187,0.0,0.0,0.1924,0.2756,0.2228,0.2398,0.4438,0.5738,0.6566,0.6681,0.6831,0.6889,0.6889,0.6803,0.6715,0.6715,0.6573,0.6668,0.7078,0.7292,0.7577,0.7975,0.8323,0.8554,0.8703,0.8797,0.8871,0.8871,0.8871,0.8994,0.9187,0.9187,0.9268,0.9361,0.9361,0.9367,0.9388,0.953,0.9429,0.9241,0.9483,0.934,0.8858,0.8608,0.8404,0.8248,0.8106,0.7624,0.7173,0.7516,0.7516,0.7494,0.7733,0.7923,0.0,0.7692,0.7394,0.7139,0.7319,0.7412,0.7448,0.7719,0.7867,0.8062,0.8404,0.8587,0.8743,0.8838,0.9042,0.9207,0.9207,0.9401,0.9612,0.9612,0.9727,0.9822,0.9822,0.9571,0.9388,0.9381,0.913,0.908,0.0,1.0019,1.0337,1.048,1.0636,1.0717,1.0717,1.0717,1.0643,1.0493,1.0487,1.0419,1.0276,1.0127,0.9984,0.9977,0.989,0.9822,0.9822,0.9822,0.9822,0.9822,0.9822,0.9822,0.9822,0.9815,0.9815,0.9815,0.9808,0.9808,0.9788,0.9646,0.9408,0.9187,0.0,0.0,0.0,0.0,0.0,0.183,0.2527,0.4169,0.5371,0.5617,0.6359,0.0,0.0,0.0,0.0,0.0,0.6803,0.6926,0.7272,0.7346,0.7529,0.7875,0.818,0.8364,0.8418,0.856,0.8635,0.8635,0.8737,0.8811,0.8859,0.896,0.9035,0.9089,0.9184,0.9344,0.9388,0.9435,0.9456,0.9449,0.9347,0.9157,0.8851,0.8601,0.8269,0.7957,0.0,0.7631,0.7292,0.7292,0.7326,0.7433,0.7489,0.7556,0.7556,0.7353,0.7292,0.7305,0.7405,0.759,0.7882,0.818,0.837,0.856,0.8914,0.8893,0.8824,0.8871,0.8899,0.8859,0.8859,0.894,0.9076,0.9273,0.9435,0.9598,0.9795,0.9652,0.9422,0.9123,0.9083,0.0,0.0,0.0,0.0,1.046,1.0541,1.0616,1.0717,1.0717,1.0697,1.0643,1.0643,1.0568,1.0419,1.0371,1.0297,1.0202,1.0046,0.9856,0.9822,0.9822,0.9822,0.9822,0.9822,0.9822,0.9822,0.9822,0.9822,0.9822,0.9822,0.9822,0.9802,0.9659,0.9483,0.9279,0.0,0.0,0.0,0.0,0.0,0.0,0.0,0.0,0.0,0.0,0.0,0.0,0.0,0.0,0.0,0.0,0.0,0.7007,0.7204,0.7312,0.7455,0.7645,0.7943,0.8106,0.8106,0.8303,0.8404,0.8404,0.8506,0.8581,0.8628,0.8237,0.8089,0.8139,0.8276,0.8439,0.8521,0.8987,0.9198,0.9266,0.9015,0.8825,0.8669,0.8357,0.8031,0.0,0.7672,0.7495,0.7285,0.7238,0.7251,0.7292,0.7292,0.7292,0.7278,0.7238,0.7333,0.7489,0.7699,0.7977,0.835,0.8648,0.8838,0.9001,0.9248,0.9083,0.8865,0.8811,0.8696,0.8533,0.8479,0.8472,0.8567,0.892,0.9042,0.9266,0.9612,0.9537,0.9361,0.9123,0.9083,0.0,0.0,0.0,0.0,1.0215,1.0399,1.0534,1.0636,1.069,1.0717,1.0717,1.0717,1.067,1.0575,1.0521,1.0392,1.0195,1.0038,0.9909,0.9822,0.9822,0.9822,0.9822,0.9822,0.9822,0.9822,0.9822,0.9822,0.9822,0.9822,0.9822,0.9808,0.972,0.9591,0.9435,0.0,0.0,0.0,0.0,0.0,0.0,0.0,0.0,0.0,0.0,0.0,0.0,0.0,0.0,0.0,0.0,0.0,0.0,0.6896,0.7204,0.7405,0.7405,0.7638,0.7787,0.7787,0.8092,0.8299,0.8299,0.8313,0.8336,0.8472,0.7206,0.6685,0.6802,0.6913,0.7017,0.7066,0.8221,0.871,0.8696,0.8533,0.8391,0.8286,0.7936,0.774,0.7604,0.7455,0.7299,0.7139,0.0,0.0,0.0,0.7098,0.7098,0.7139,0.7346,0.7509,0.7733,0.8174,0.8506,0.8804,0.9159,0.933,0.9367,0.9367,0.913,0.8817,0.871,0.8438,0.8187,0.0,0.0,0.8119,0.8431,0.8615,0.8886,0.9347,0.935,0.9309,0.0,0.0,0.0,0.0,0.0,0.0,0.9815,0.0,1.0487,1.05,1.0643,1.0717,1.0717,1.0717,1.0717,1.0717,1.0575,1.0358,1.0011,1.0004,0.9916,0.9836,0.9822,0.9822,0.9822,0.9822,0.9822,0.9822,0.9822,0.9822,0.9822,0.9822,0.9822,0.9822,0.9822,0.9734,0.9564,0.0,0.0,0.0,0.0,0.0,0.0,0.0,0.0,0.0,0.0,0.0,0.0,0.0,0.0,0.0,0.0,0.0,0.0,0.7045,0.7112,0.7152,0.7152,0.738,0.7482,0.7482,0.7773,0.7929,0.7929,0.816,0.834,0.833,0.8112,0.8026,0.8064,0.8205,0.8215,0.8269,0.8561,0.871,0.8689,0.8431,0.8354,0.8248,0.8058,0.7907,0.7874,0.7882,0.7706,0.0,0.0,0.0,0.0,0.0,0.7217,0.7366,0.7624,0.7889,0.8174,0.8506,0.8818,0.9117,0.9415,0.9354,0.9268,0.9268,0.8893,0.8526,0.8211,0.7977,0.7726,0.0,0.0,0.0,0.8397,0.871,0.0,0.9727,0.9842,0.0,0.0,0.0,0.9647,0.9564,0.9747,0.0,0.0,1.0202,1.0432,1.0649,1.0697,1.0717,1.0717,1.0717,1.0717,1.0717,1.0683,1.0568,1.0378,1.027,1.0141,0.9923,0.9876,0.9822,0.9822,0.9822,0.9822,0.9822,0.9822,0.9822,0.9822,0.9822,0.9822,0.9822,0.9822,0.9734,0.9585,0.0,0.0,0.0,0.0,0.0,0.0,0.0,0.0,0.0,0.0,0.0,0.0,0.0,0.0,0.0,0.0,0.0,0.0,0.0,0.7058,0.7098,0.7098,0.7224,0.7272,0.7272,0.7502,0.7651,0.7719,0.7889,0.8011,0.8072,0.7535,0.7319,0.7325,0.7458,0.7519,0.7571,0.8085,0.8357,0.0,0.0,0.8113,0.816,0.8022,0.7907,0.7855,0.7867,0.0,0.0,0.0,0.0,0.7132,0.7328,0.7543,0.7726,0.8018,0.0,0.8628,0.8927,0.9178,0.9408,0.9646,0.9476,0.9275,0.9089,0.871,0.8289,0.7923,0.7658,0.0,0.0,0.0,0.0,0.0,0.0,0.0,0.9652,0.9869,0.9964,0.0,1.01,0.0,0.9917,1.0053,1.0175,0.0,1.0324,1.0446,1.0609,1.0683,1.0717,1.0717,1.0717,1.0717,1.0717,1.0717,1.0643,1.0487,1.0412,1.0263,0.9984,0.9896,0.9883,0.9822,0.0,0.9822,0.9822,0.9822,0.9822,0.9822,0.9822,0.9822,0.9822,0.9822,0.9768,0.968,0.0,0.0,0.0,0.0,0.0,0.0,0.0,0.0,0.0,0.0,0.6552,0.6709,0.0,0.0,0.0,0.0,0.0,0.0,0.0,0.0,0.7058,0.7092,0.7078,0.7078,0.7098,0.7292,0.7448,0.7597,0.7617,0.7699,0.7793,0.6614,0.6079,0.6079,0.6234,0.6282,0.6326,0.74,0.7916,0.7975,0.7896,0.7874,0.7988,0.0,0.7868,0.7638,0.0,0.0,0.0,0.0,0.7159,0.7233,0.7706,0.7957,0.816,0.8479,0.8791,0.9089,0.9367,0.9551,0.9693,0.9795,0.9585,0.9266,0.8947,0.8533,0.8085,0.7658,0.0,0.7299,0.7119,0.7112,0.728,0.7794,0.0,0.8574,0.9361,0.9693,0.9971,1.0297,1.0337,1.0337,1.0337,1.0337,1.0392,1.0514,1.0521,1.0521,1.0521,1.0649,1.0717,1.0717,1.0717,1.0717,1.0717,1.0717,1.0656,1.0521,1.05,1.0344,1.0017,1.0017,0.9923,0.9822,0.0,0.0,0.9822,0.9822,0.9822,0.9822,0.9822,0.9822,0.9822,0.9822,0.9822,0.9802,0.0,0.0,0.0,0.0,0.0,0.0,0.0,0.0,0.0,0.0,0.6749,0.6749,0.0,0.0,0.0,0.0,0.0,0.0,0.0,0.0,0.0,0.7085,0.6984,0.6977,0.7092,0.7292,0.7448,0.7597,0.7719,0.7848,0.7948,0.775,0.7601,0.7601,0.7627,0.7633,0.7683,0.7862,0.7968,0.7988,0.7961,0.7968,0.7988,0.7988,0.0,0.0,0.0,0.0,0.0,0.0,0.7522,0.7577,0.7847,0.8187,0.8486,0.8968,0.9252,0.953,0.97,0.9856,0.9889,0.9849,0.9503,0.9139,0.8655,0.8214,0.0,0.0,0.0,0.7125,0.7098,0.7244,0.0,0.8099,0.0,0.0,0.0,0.0,1.0105,0.0,0.0,0.0,0.0,0.0,0.0,0.0,0.0,1.0677,1.0677,1.0704,1.0717,1.0717,1.0717,1.0717,1.0717,1.0717,1.0704,1.0677,1.0555,1.0405,1.0243,1.0243,1.0086,0.9829,0.9896,0.0,0.9822,0.9822,0.9822,0.9822,0.9822,0.9822,0.9822,0.9822,0.9822,0.9802,0.0,0.0,0.0,0.0,0.0,0.0,0.0,0.4695,0.5507,0.6977,0.7095,0.7048,0.6997,0.7058,0.7038,0.0,0.0,0.0,0.0,0.0,0.0,0.0,0.0,0.0,0.0,0.721,0.0,0.0,0.0,0.7773,0.7874,0.0,0.0,0.0,0.7988,0.7988,0.7988,0.7988,0.7988,0.7988,0.7988,0.7988,0.0,0.0,0.0,0.0,0.0,0.0,0.0,0.0,0.7536,0.7678,0.8126,0.8479,0.8791,0.9164,0.9483,0.9754,0.9835,1.0053,1.0114,0.9876,0.9429,0.8927,0.8472,0.0,0.0,0.0,0.7679,0.7841,0.7224,0.0,0.0,0.0,0.0,0.0,0.0,0.0,0.0,0.0,0.0,0.0,0.0,0.0,0.0,0.0,0.0,1.0717,1.0717,1.0717,1.0717,1.0717,1.0717,1.0717,1.0717,1.0717,1.0717,1.0717,1.0643,1.0534,1.0392,1.0392,1.0222,0.9883,0.9957,0.0,0.9822,0.9822,0.9822,0.9822,0.9822,0.9822,0.9822,0.9822,0.9822,0.9808,0.0,0.0,0.0,0.0,0.0,0.0,0.4851,0.5351,0.5964,0.7309,0.7441,0.7373,0.7206,0.7166,0.7058,0.0,0.0,0.0,0.0,0.0,0.0,0.0,0.0,0.0,0.0,0.0,0.0,0.0,0.0,0.0,0.0,0.0,0.0,0.0,0.0,0.0,0.7988,0.7988,0.7988,0.0,0.0,0.0,0.0,0.0,0.0,0.0,0.0,0.0,0.0,0.0,0.7475,0.7685,0.818,0.8567,0.8906,0.9232,0.9564,0.9856,0.9943,1.0161,1.0202,0.9863,0.9327,0.8825,0.8676,0.8678,0.0,0.0,0.8017,0.8221,0.7234,0.0,0.0,0.0,0.0,0.0,0.0,0.0,0.0,0.0,0.0,0.0,0.0,0.0,0.0,0.0,0.0,0.0,1.0717,1.0717,1.0717,1.0717,1.0717,1.0717,1.0717,1.0717,1.0717,1.0717,1.0717,1.0636,1.0493,1.0527,1.0358,0.999,1.0024,0.0,0.0,0.9822,0.9822,0.9822,0.9822,0.9822,0.9822,0.9822,0.9822,0.9822,0.0,0.0,0.0,0.0,0.0,0.0,0.5294,0.6172,0.6983,0.7692,0.7658,0.757,0.7556,0.7434,0.7183,0.0,0.0,0.0,0.0,0.0,0.0,0.0,0.0,0.0,0.0,0.0,0.0,0.0,0.0,0.0,0.0,0.0,0.0,0.0,0.0,0.0,0.0,0.0,0.0,0.0,0.0,0.0,0.0,0.0,0.0,0.0,0.0,0.0,0.0,0.0,0.0,0.7631,0.7814,0.8174,0.8608,0.9105,0.0,0.0,0.9943,1.0161,1.0175,0.9741,0.9178,0.8874,0.9504,0.0,0.0,0.8576,0.7973,0.719,0.6973,0.6916,0.7061,0.0,0.0,0.7977,0.0,0.0,0.0,0.0,0.0,0.0,0.0,0.0,0.0,0.0,0.0,0.0,1.0717,1.0717,1.0717,1.0717,1.0717,1.0717,1.0717,1.0717,1.0717,1.0717,1.0717,1.0636,1.0493,1.0636,1.046,0.9997,1.0202,0.0,0.0,0.9822,0.9822,0.9822,0.9822,0.9822,0.9822,0.9822,0.9822,0.9822,0.0,0.0,0.0,0.0,0.0,0.0,0.6129,0.6625,0.7098,0.7733,0.776,0.7726,0.7726,0.7597,0.736,0.6993,0.0,0.0,0.0,0.0,0.0,0.0,0.0,0.0,0.0,0.0,0.7125,0.7231,0.0,0.0,0.0,0.0,0.0,0.0,0.0,0.0,0.0,0.0,0.0,0.0,0.0,0.0,0.0,0.0,0.0,0.0,0.0,0.0,0.0,0.0,0.0,0.0,0.7341,0.7597,0.0,0.0,0.9137,0.951,0.9876,1.0161,1.0195,0.9829,0.9218,0.8694,0.8736,0.0,0.8234,0.79,0.7933,0.7829,0.7135,0.6943,0.695,0.7197,0.0,0.0,0.0,0.0,0.0,0.0,0.0,0.0,0.0,0.0,0.0,0.0,0.0,0.0,1.0717,1.0717,1.0717,1.0717,1.0717,1.0717,1.0717,1.0717,1.0717,1.0717,1.0717,1.069,1.0629,1.069,1.0527,1.0188,1.0256,0.0,0.0,0.9822,0.9822,0.9822,0.9822,0.9822,0.9822,0.9822,0.9822,0.9822,0.0,0.0,0.0,0.0,0.0,0.5564,0.673,0.6883,0.7085,0.7678,0.7746,0.7746,0.7746,0.7617,0.7448,0.7224,0.6991,0.0,0.0,0.0,0.0,0.0,0.0,0.0,0.0,0.0,0.7098,0.7098,0.7448,0.7597,0.0,0.0,0.0,0.0,0.0,0.0,0.0,0.0,0.0,0.0,0.0,0.0,0.0,0.0,0.0,0.0,0.0,0.0,0.0,0.0,0.0,0.0,0.0,0.0,0.0,0.0,0.8716,0.913,0.9646,0.9958,1.0184,1.0187,0.9687,0.9189,0.0,0.0,0.8663,0.8045,0.8021,0.7881,0.7061,0.6898,0.6849,0.695,0.0,0.7152,0.0,0.0,0.0,0.0,0.0,0.0,0.0,0.0,0.0,0.0,0.0,0.0,0.0,1.0717,1.0717,1.0717,1.0717,1.0717,1.0717,1.0717,1.0717,1.0717,1.0717,1.0717,1.0717,1.0717,1.0561,1.0283,0.0,0.0,0.0,0.9822,0.9822,0.9822,0.9822,0.9822,0.9822,0.9822,0.9822,0.9822,0.0,0.0,0.0,0.0,0.0,0.0,0.6815,0.6883,0.7045,0.7543,0.7604,0.7604,0.7604,0.7468,0.7419,0.7412,0.7102,0.0,0.0,0.0,0.0,0.0,0.0,0.0,0.0,0.0,0.7098,0.7098,0.7448,0.7597,0.7604,0.7853,0.0,0.0,0.0,0.0,0.0,0.0,0.0,0.0,0.0,0.0,0.0,0.0,0.0,0.0,0.0,0.0,0.0,0.0,0.0,0.0,0.0,0.7098,0.7186,0.0,0.8241,0.8784,0.9139,0.949,1.0014,1.085,1.065,1.0612,0.0,0.0,0.8926,0.9704,0.8205,0.6654,0.6545,0.66,0.6702,0.6702,0.6903,0.0,0.0,0.0,0.0,0.0,0.0,0.0,0.0,0.0,0.0,0.0,0.0,0.0,0.0,1.0717,1.0717,1.0717,1.0717,1.0717,1.0717,1.0717,1.0717,1.0717,1.0717,1.0717,1.0717,1.0717,1.0561,0.0,0.0,0.0,0.0,0.9822,0.9822,0.9822,0.9822,0.9822,0.9822,0.9822,0.9822,0.9822,0.0,0.0,0.0,0.0,0.0,0.0,0.6722,0.677,0.6932,0.7387,0.7441,0.7482,0.759,0.7461,0.7419,0.7419,0.719,0.0,0.0,0.0,0.0,0.0,0.0,0.0,0.0,0.7217,0.7299,0.7299,0.7597,0.7746,0.7746,0.7894,0.7988,0.7988,0.0,0.0,0.0,0.0,0.0,0.0,0.0,0.0,0.0,0.0,0.0,0.0,0.0,0.0,0.0,0.0,0.0,0.0,0.0,0.0,0.0,0.8252,0.8317,0.818,0.8587,0.8798,0.914,1.0222,1.0092,0.981,1.0177,0.0,0.8514,0.7834,0.7097,0.6559,0.662,0.6668,0.677,0.6923,0.717,0.0,0.0,0.0,0.0,0.0,0.0,0.0,0.0,0.0,0.0,0.0,0.0,0.0,0.0,1.0717,1.0717,1.0717,1.0717,1.0717,1.0717,1.0717,1.0717,1.0717,1.0616,1.0616,1.0717,1.0609,0.0,0.0,0.0,0.0,0.0,0.9863,0.9822,0.9822,0.9822,0.9822,0.9822,0.9822,0.9822,0.9822,0.0,0.0,0.0,0.0,0.0,0.0,0.6661,0.6749,0.6905,0.7238,0.7285,0.7339,0.7495,0.7373,0.7305,0.7412,0.7285,0.0,0.0,0.0,0.0,0.0,0.0,0.0,0.7224,0.7265,0.7339,0.7455,0.7645,0.776,0.7814,0.7921,0.7988,0.7988,0.7988,0.7934,0.0,0.0,0.0,0.0,0.0,0.0,0.7961,0.0,0.0,0.0,0.0,0.0,0.0,0.0,0.0,0.0,0.0,0.0,0.0,0.0,0.8906,0.8313,0.875,0.8575,0.8603,0.975,0.9672,0.0,0.0,0.0,0.8263,0.7329,0.673,0.6477,0.6586,0.6661,0.6776,0.6977,0.7183,0.0,0.0,0.0,0.0,0.0,0.0,0.0,0.0,0.0,0.0,0.0,0.0,0.0,0.0,1.0717,1.0697,1.0636,1.069,1.0717,1.0717,1.0717,1.0717,1.0717,1.0568,1.0541,1.0629,1.048,0.0,0.0,0.0,0.0,0.0,0.9863,0.9822,0.9822,0.9822,0.9822,0.9822,0.9822,0.9822,0.9822,0.0,0.0,0.0,0.0,0.0,0.0,0.0,0.6831,0.6937,0.7078,0.7098,0.7152,0.7339,0.7238,0.721,0.7346,0.7419,0.0,0.0,0.0,0.0,0.0,0.0,0.0,0.7398,0.7238,0.7267,0.7597,0.7617,0.7699,0.7828,0.7921,0.7988,0.7988,0.7988,0.7982,0.7961,0.7868,0.7814,0.7814,0.7821,0.7916,0.0,0.0,0.0,0.0,0.0,0.0,0.0,0.0,0.0,0.0,0.0,0.0,0.0,0.0,0.0,0.0,0.0,0.8761,0.8217,0.9442,0.9359,0.9262,0.9998,0.0,0.0,0.7992,0.7196,0.6549,0.6617,0.6736,0.6846,0.6919,0.0,0.0,0.0,0.0,0.0,0.0,0.0,0.0,0.0,0.0,0.0,0.0,0.0,0.0,0.0,1.0717,1.0643,1.048,1.0622,1.0697,1.069,1.0697,1.0697,1.0683,1.0534,1.0466,1.0473,1.0331,0.0,0.0,0.0,0.0,0.0,0.9829,0.9822,0.9822,0.9822,0.9822,0.9822,0.9822,0.9822,0.9822,0.0,0.0,0.0,0.0,0.0,0.0,0.0,0.0,0.0,0.0,0.7098,0.7112,0.7146,0.7272,0.7285,0.0,0.0,0.0,0.0,0.0,0.0,0.0,0.0,0.0,0.7146,0.7387,0.7529,0.7597,0.7828,0.7901,0.7934,0.7975,0.7988,0.7988,0.7988,0.7928,0.7862,0.7828,0.7814,0.7821,0.7887,0.7961,0.0,0.0,0.0,0.0,0.7305,0.7152,0.0,0.0,0.0,0.0,0.0,0.0,0.0,0.0,1.0486,0.9104,0.9947,0.0,0.7443,0.8659,0.8777,0.877,0.0,0.9587,0.0,0.0,0.0,0.0,0.0,0.0,0.0,0.0,0.0,0.0,0.0,0.0,0.0,0.0,0.0,0.0,0.0,0.0,0.0,0.0,0.0,0.0,0.0,1.0656,1.0602,1.0337,1.0473,1.0493,1.0385,1.0493,1.0493,1.0385,1.0229,1.0215,1.0324,1.0175,0.0,0.0,0.0,0.0,0.9923,0.9869,0.9822,0.9822,0.9822,0.9822,0.9822,0.9822,0.9822,0.9822,0.0,0.0,0.0,0.0,0.0,0.0,0.0,0.0,0.0,0.0,0.7098,0.7098,0.7098,0.7278,0.7339,0.0,0.0,0.0,0.0,0.0,0.0,0.0,0.0,0.7132,0.7244,0.7407,0.7563,0.7699,0.7855,0.7921,0.7988,0.7988,0.7988,0.7988,0.7988,0.7941,0.7916,0.7916,0.7916,0.7874,0.7955,0.0,0.0,0.0,0.0,0.0,0.7206,0.7098,0.0,0.7098,0.8229,0.9662,0.0,0.0,0.0,0.0,1.1401,0.9652,1.0306,0.9134,0.775,0.775,0.8114,0.8472,0.8836,0.0,0.0,0.0,0.0,0.0,0.0,0.0,0.0,0.0,0.0,0.0,0.0,0.0,0.0,0.0,0.0,0.0,0.0,0.0,0.0,0.0,0.0,0.0,0.0,1.0507,1.0412,1.0181,1.0317,1.0358,1.0283,1.0358,1.0358,1.0276,1.0127,1.0031,1.0168,1.0012,0.9992,0.0,0.0,0.0,0.9876,0.9856,0.9822,0.9822,0.9822,0.9822,0.9822,0.9822,0.9822,0.9822,0.0,0.0,0.0,0.0,0.0,0.0,0.0,0.0,0.0,0.0,0.0,0.0,0.0,0.0,0.0,0.0,0.0,0.0,0.0,0.0,0.0,0.0,0.7146,0.7238,0.7412,0.7439,0.7536,0.7814,0.7834,0.7916,0.7988,0.7988,0.7975,0.7955,0.7982,0.7948,0.7894,0.7961,0.7961,0.7928,0.7975,0.0,0.0,0.0,0.0,0.0,0.0,0.0,0.0,0.7098,0.8528,1.0356,1.0356,0.0,0.0,0.0,0.0,0.0,1.0507,0.9762,0.8632,0.7076,0.7432,0.8106,0.8011,0.0,0.0,0.0,0.0,0.0,0.0,0.0,0.0,0.0,0.0,0.0,0.0,0.0,0.0,0.0,0.0,0.0,0.0,0.0,0.0,0.0,0.0,0.0,0.0,1.0331,1.0202,0.9957,1.0168,1.0236,1.0209,1.0236,1.0236,1.0209,1.0073,0.995,0.995,0.9883,0.9822,0.9822,0.0,0.0,0.9822,0.9822,0.9822,0.9822,0.9822,0.9822,0.9822,0.9822,0.9822,0.9822,0.0,0.0,0.0,0.0,0.0,0.0,0.0,0.0,0.0,0.0,0.0,0.0,0.0,0.0,0.0,0.0,0.0,0.0,0.0,0.0,0.0,0.7529,0.7407,0.7346,0.7419,0.7495,0.7645,0.7814,0.7894,0.7968,0.7988,0.7988,0.7921,0.7848,0.7934,0.7828,0.7495,0.7875,0.7847,0.7692,0.7887,0.0,0.0,0.0,0.0,0.0,0.0,0.0,0.0,0.7098,0.8017,0.9148,0.9148,0.0,0.0,0.0,0.0,0.0,1.0285,1.0221,0.9876,0.7343,0.6819,0.7148,0.7852,0.8112,0.0,0.0,0.0,0.0,0.0,0.0,0.0,0.0,0.0,0.0,0.0,0.0,0.0,0.0,0.0,0.0,0.0,0.0,0.0,0.0,0.0,0.0,0.0,1.0222,1.0148,0.9863,0.9943,0.9963,0.9897,1.0019,1.0019,0.989,0.9869,0.9856,0.9856,0.9829,0.9822,0.9822,0.0,0.9822,0.9822,0.9822,0.9822,0.9822,0.9822,0.9822,0.9822,0.9822,0.9822,0.9822,0.0,0.0,0.0,0.0,0.0,0.0,0.0,0.0,0.0,0.0,0.0,0.0,0.0,0.0,0.0,0.0,0.0,0.0,0.0,0.0,0.7597,0.7597,0.7536,0.7495,0.7495,0.7638,0.7787,0.7887,0.8092,0.8167,0.816,0.7997,0.7875,0.7814,0.7801,0.7733,0.7624,0.7828,0.7882,0.7848,0.0,0.0,0.0,0.0,0.0,0.0,0.0,0.0,0.0,0.0,0.7885,0.8894,0.8894,0.0,0.0,0.0,0.0,0.0,1.0367,0.9718,0.8973,0.7232,0.7411,0.8041,0.8082,0.8338,0.0,0.0,0.0,0.0,0.0,0.0,0.0,0.0,0.0,0.0,0.0,0.0,0.0,0.0,0.0,0.0,0.0,0.0,0.0,0.0,0.0,0.0,0.0,0.0,0.9964,0.9829,0.989,0.9829,0.9822,0.989,0.989,0.9822,0.9822,0.9822,0.9822,0.9822,0.9822,0.9822,0.0,0.9822,0.9822,0.9822,0.9822,0.9822,0.9822,0.9822,0.9822,0.9822,0.9822,0.9822,0.0,0.0,0.0,0.0,0.0,0.0,0.0,0.0,0.0,0.0,0.0,0.0,0.0,0.0,0.0,0.0,0.0,0.0,0.0,0.7692,0.7651,0.7651,0.7685,0.7685,0.7651,0.7787,0.7936,0.8092,0.8214,0.8255,0.8208,0.7936,0.7794,0.7753,0.7645,0.7617,0.7658,0.7767,0.7841,0.7889,0.0,0.0,0.0,0.0,0.0,0.0,0.0,0.0,0.0,0.0,0.0,0.0,0.0,0.0,0.0,1.1408,1.156,1.1375,1.044,0.9493,0.8472,0.7155,0.7716,0.8504,0.8098,0.8308,0.8774,0.0,0.0,0.0,0.0,0.0,0.0,0.0,0.0,0.0,0.0,0.0,0.0,0.0,0.0,0.0,0.0,0.0,0.0,0.0,0.0,0.0,0.0,0.0,0.9822,0.9822,0.9788,0.9788,0.9822,0.9754,0.9754,0.9822,0.9822,0.9822,0.9822,0.9822,0.9822,0.9822,0.9822,0.9822,0.9822,0.9822,0.9822,0.9822,0.9822,0.9822,0.9822,0.9822,0.9822,0.9822,0.0,0.0,0.0,0.0,0.0,0.0,0.0,0.0,0.0,0.0,0.0,0.0,0.0,0.0,0.0,0.0,0.0,0.0,0.0,0.7726,0.7794,0.7794,0.788,0.7894,0.7801,0.7894,0.8099,0.8255,0.832,0.8201,0.8002,0.7889,0.774,0.7611,0.7604,0.7448,0.7173,0.7631,0.7658,0.7455,0.7875,0.0,0.0,0.0,0.0,0.0,0.0,0.0,0.0,0.0,0.0,0.0,0.0,0.0,0.8861,0.9989,1.1064,1.1633,1.0481,1.0296,0.9833,0.7321,0.688,0.7107,0.74,0.7586,0.0,0.791,0.0,0.0,0.0,0.0,0.0,0.0,0.0,0.0,0.0,0.0,0.0,0.0,0.0,0.0,0.0,0.0,0.0,0.0,0.0,0.0,0.0,0.0,0.0,0.9822,0.9693,0.9686,0.9822,0.9551,0.9551,0.9822,0.9822,0.9822,0.9822,0.9822,0.9822,0.9822,0.9822,0.9822,0.9822,0.9822,0.9822,0.9822,0.9822,0.9822,0.9822,0.9822,0.9822,0.9822,0.0,0.0,0.0,0.0,0.0,0.0,0.0,0.0,0.0,0.0,0.0,0.7934,0.7828,0.0,0.0,0.0,0.0,0.0,0.0,0.7563,0.7617,0.7801,0.778,0.7828,0.7901,0.8106,0.8255,0.8404,0.8404,0.833,0.818,0.7929,0.778,0.7726,0.7543,0.7495,0.7556,0.7543,0.7577,0.7658,0.7828,0.778,0.0,0.0,0.0,0.0,0.0,0.0,0.0,0.0,0.693,0.6876,0.6878,0.7718,0.8863,0.9737,1.0914,1.1656,1.0491,1.02,0.9609,0.7387,0.6842,0.0,0.0,0.7489,0.7746,0.7801,0.7963,0.0,0.0,0.0,0.0,0.0,0.0,0.0,0.0,0.0,0.0,0.0,0.0,0.0,0.0,0.0,0.0,0.0,0.0,0.0,0.0,0.0,0.0,0.9551,0.9496,0.9496,0.9544,0.9435,0.9435,0.9551,0.9646,0.9686,0.9686,0.9686,0.9686,0.9686,0.9686,0.9686,0.9686,0.9686,0.9686,0.9686,0.9686,0.9741,0.9822,0.9822,0.9822,0.9822,0.0,0.0,0.0,0.0,0.0,0.0,0.0,0.0,0.7617,0.0,0.0,0.0,0.0,0.7699,0.0,0.0,0.0,0.0,0.7461,0.7489,0.7584,0.774,0.774,0.7834,0.7982,0.8187,0.8368,0.8418,0.8418,0.8343,0.8194,0.7929,0.7814,0.7801,0.7556,0.7556,0.7733,0.7529,0.7529,0.7678,0.7726,0.7624,0.0,0.0,0.0,0.0,0.0,0.0,0.0,0.0,0.6856,0.6837,0.6736,0.7423,0.8449,0.9271,1.0161,1.0731,0.9947,0.9536,0.8968,0.7273,0.0,0.0,0.7301,0.7699,0.7997,0.814,0.8255,0.0,0.0,0.0,0.0,0.0,0.0,0.0,0.0,0.0,0.0,0.0,0.0,0.0,0.0,0.0,0.0,0.0,0.0,0.0,0.0,0.0,0.0,0.0,0.9334,0.9334,0.9381,0.9286,0.9266,0.9313,0.9415,0.949,0.9537,0.9585,0.9612,0.9612,0.9612,0.9612,0.9612,0.9612,0.9585,0.9544,0.9591,0.9639,0.9693,0.9788,0.9795,0.9761,0.0,0.0,0.0,0.0,0.0,0.0,0.0,0.0,0.755,0.7446,0.7631,0.0,0.0,0.0,0.0,0.0,0.0,0.0,0.7112,0.7563,0.7746,0.7611,0.7833,0.7988,0.7988,0.8187,0.832,0.832,0.832,0.8187,0.7988,0.7882,0.7814,0.7807,0.7665,0.7597,0.7604,0.7597,0.7509,0.7433,0.7536,0.7421,0.7119,0.0,0.0,0.0,0.0,0.0,0.0,0.0,0.6824,0.6702,0.6702,0.6803,0.714,0.8361,0.8692,0.8692,0.8692,0.8468,0.7948,0.0,0.0,0.0,0.7826,0.816,0.8397,0.8845,0.0,0.8533,0.0,0.0,0.0,0.0,0.0,0.0,0.0,0.0,0.0,0.0,0.0,0.0,0.0,0.0,0.0,0.0,0.0,0.0,0.0,0.0,0.0,0.0,0.9289,0.9282,0.9374,0.9083,0.9008,0.9207,0.9207,0.9289,0.9388,0.9537,0.9605,0.9605,0.9605,0.9605,0.9605,0.9605,0.9517,0.9395,0.9544,0.951,0.9415,0.9707,0.9727,0.9625,0.0,0.0,0.0,0.0,0.0,0.0,0.0,0.0,0.7658,0.7821,0.7867,0.0,0.0,0.0,0.0,0.0,0.0,0.0,0.7468,0.7685,0.7841,0.7853,0.7889,0.788,0.7988,0.8035,0.816,0.832,0.816,0.8035,0.7988,0.7882,0.7868,0.7914,0.7712,0.7651,0.7726,0.7407,0.7373,0.7536,0.7584,0.7543,0.7468,0.0,0.0,0.0,0.0,0.0,0.0,0.0,0.0,0.0,0.6573,0.6715,0.714,0.8361,0.8785,0.8845,0.8845,0.8768,0.0,0.7253,0.0,0.0,0.0,0.8235,0.0,0.0,0.0,0.0,0.0,0.0,0.0,0.0,0.0,0.0,0.0,0.0,0.0,0.0,0.0,0.0,0.0,0.0,0.0,0.0,0.0,0.0,0.0,0.0,0.0,0.0,0.9028,0.9022,0.9069,0.8872,0.8852,0.9001,0.9001,0.9083,0.9275,0.9323,0.9344,0.9344,0.9344,0.9344,0.9344,0.9344,0.9316,0.9282,0.933,0.9327,0.9395,0.9483,0.9483,0.9469,0.0,0.0,0.0,0.0,0.0,0.0,0.7468,0.7563,0.7665,0.7841,0.7867,0.7889,0.0,0.0,0.0,0.0,0.0,0.0,0.7604,0.7787,0.7916,0.7901,0.7916,0.7894,0.7988,0.7988,0.8058,0.8085,0.7997,0.7928,0.7988,0.7882,0.7896,0.7982,0.7855,0.7787,0.7787,0.7461,0.7428,0.7597,0.7536,0.7509,0.7509,0.0,0.0,0.0,0.0,0.0,0.0,0.0,0.0,0.0,0.6593,0.6688,0.6964,0.7708,0.8002,0.8076,0.8049,0.8033,0.0,0.7241,0.7373,0.7746,0.8316,0.0,0.0,0.0,0.0,0.0,0.0,0.0,0.0,0.0,0.0,0.0,0.0,0.0,0.0,0.0,0.0,0.0,0.0,0.0,0.0,0.0,0.0,0.0,0.0,0.0,0.0,0.0,0.8791,0.8757,0.8757,0.8669,0.8669,0.8757,0.8757,0.8804,0.8948,0.9125,0.9207,0.9207,0.9207,0.918,0.9069,0.9069,0.9069,0.9076,0.9187,0.9178,0.9218,0.9334,0.934,0.9313,0.0,0.0,0.7098,0.7112,0.0,0.0,0.7387,0.7529,0.7617,0.7617,0.7733,0.7753,0.0,0.0,0.0,0.7597,0.0,0.0,0.0,0.7833,0.7928,0.7834,0.7914,0.7988,0.7988,0.7975,0.7901,0.7814,0.7814,0.7882,0.7968,0.7875,0.7896,0.7988,0.7975,0.7887,0.778,0.7638,0.7577,0.7563,0.7428,0.7426,0.7439,0.7419,0.0,0.0,0.0,0.0,0.0,0.0,0.0,0.0,0.6722,0.6722,0.6722,0.6736,0.6837,0.6876,0.6776,0.0,0.0,0.0,0.0,0.0,0.0,0.0,0.0,0.0,0.0,0.0,0.0,0.0,0.0,0.0,0.0,0.0,0.0,0.0,0.0,0.0,0.0,0.0,0.0,0.0,0.0,0.0,0.0,0.0,0.0,0.0,0.0,0.871,0.856,0.8479,0.8479,0.8472,0.8472,0.8479,0.8472,0.8472,0.8499,0.8961,0.9146,0.9146,0.9146,0.9022,0.8865,0.8865,0.8871,0.8898,0.9083,0.9055,0.8912,0.9239,0.9252,0.9214,0.0,0.0,0.7132,0.7299,0.0,0.0,0.7678,0.7746,0.7767,0.7767,0.7794,0.7753,0.7617,0.7495,0.0,0.759,0.7631,0.0,0.0,0.7887,0.7975,0.7941,0.7975,0.7988,0.7988,0.7874,0.7841,0.7814,0.7814,0.7828,0.7862,0.7828,0.7896,0.7982,0.7916,0.778,0.7638,0.7482,0.7421,0.746,0.7433,0.7441,0.7536,0.746,0.7398,0.0,0.0,0.0,0.0,0.0,0.0,0.0,0.6836,0.6836,0.6856,0.697,0.7024,0.7045,0.7011,0.7136,0.0,0.0,0.0,0.0,0.0,0.0,0.0,0.0,0.0,0.0,0.0,0.0,0.0,0.0,0.0,0.0,0.0,0.0,0.0,0.0,0.0,0.0,0.0,0.0,0.0,0.0,0.0,0.0,0.0,0.0,0.0,0.871,0.856,0.8479,0.8479,0.837,0.837,0.0,0.837,0.8377,0.8486,0.8581,0.8628,0.8628,0.8628,0.8676,0.8757,0.8757,0.8832,0.8885,0.8974,0.8967,0.8892,0.8952,0.9015,0.9008,0.0,0.0,0.0,0.0,0.0,0.0,0.0,0.0,0.7733,0.7801,0.7814,0.7753,0.7617,0.7529,0.0,0.0,0.7699,0.0,0.0,0.0,0.7955,0.7887,0.788,0.7847,0.7828,0.7753,0.7712,0.7712,0.778,0.7814,0.7814,0.7814,0.7896,0.7982,0.7882,0.7733,0.759,0.7434,0.7419,0.7419,0.7419,0.7467,0.7482,0.7446,0.7326,0.7251,0.7125,0.0,0.0,0.0,0.0,0.0,0.0,0.0,0.6883,0.6883,0.6984,0.7085,0.7011,0.0,0.0,0.0,0.0,0.0,0.0,0.0,0.0,0.0,0.0,0.0,0.0,0.0,0.0,0.0,0.0,0.0,0.0,0.0,0.0,0.0,0.0,0.0,0.0,0.0,0.0,0.0,0.0,0.0,0.0,0.8459,0.8418,0.8499,0.835,0.8269,0.8269,0.8194,0.8194,0.8269,0.8194,0.8201,0.8275,0.8418,0.8445,0.8384,0.8452,0.8486,0.8506,0.8574,0.8648,0.8723,0.8723,0.8764,0.8832,0.8832,0.8817,0.8892,0.0,0.0,0.0,0.0,0.0,0.0,0.0,0.0,0.0,0.7794,0.7787,0.7719,0.7577,0.7536,0.7577,0.0,0.0,0.0,0.0,0.0,0.0,0.7821,0.7834,0.7773,0.7604,0.7597,0.7597,0.7597,0.7719,0.7787,0.7814,0.7834,0.7916,0.7982,0.7882,0.7733,0.759,0.7434,0.7398,0.7333,0.7333,0.7333,0.7333,0.7333,0.7251,0.7098,0.7098,0.7098,0.7098,0.7098,0.0,0.0,0.0,0.0,0.6896,0.681,0.6903,0.7071,0.6957,0.0,0.0,0.0,0.0,0.0,0.0,0.0,0.0,0.0,0.0,0.0,0.0,0.0,0.0,0.0,0.0,0.0,0.0,0.0,0.0,0.0,0.0,0.0,0.0,0.0,0.0,0.0,0.0,0.0,0.8445,0.8309,0.8241,0.832,0.8119,0.7988,0.7988,0.7988,0.7988,0.7988,0.7988,0.7988,0.7995,0.8296,0.8343,0.8235,0.8357,0.8357,0.8333,0.8397,0.8459,0.8479,0.8479,0.8574,0.871,0.871,0.8804,0.8885,0.0,0.0,0.0,0.0,0.0,0.0,0.0,0.0,0.0,0.0,0.7706,0.757,0.7421,0.7285,0.7265,0.7414,0.755,0.7692,0.7834,0.0,0.0,0.7821,0.7887,0.7833,0.7604,0.7597,0.7597,0.7597,0.7617,0.7692,0.7814,0.7894,0.7968,0.7982,0.7882,0.7733,0.759,0.7434,0.7292,0.7125,0.7125,0.7125,0.7125,0.7125,0.7112,0.7098,0.7098,0.7098,0.7098,0.7098,0.7085,0.0,0.0,0.0,0.7065,0.7045,0.7065,0.7092,0.0,0.0,0.0,0.0,0.0,0.0,0.0,0.0,0.0,0.0,0.0,0.0,0.0,0.0,0.0,0.0,0.0,0.0,0.0,0.0,0.0,0.0,0.0,0.0,0.0,0.0,0.0,0.0,0.0,0.0,0.8289,0.8153,0.8133,0.832,0.8119,0.7988,0.7988,0.7988,0.7988,0.7988,0.7988,0.7988,0.7988,0.8029,0.8042,0.8022,0.8042,0.8167,0.8327,0.834,0.837,0.8479,0.8479,0.8574,0.871,0.871,0.8804,0.8885,0.0,0.0,0.0,0.0,0.0,0.0,0.0,0.0,0.0,0.0,0.0,0.7658,0.7516,0.7441,0.7455,0.7604,0.7678,0.778,0.788,0.7955,0.7921,0.7821,0.7875,0.7814,0.7604,0.7597,0.7597,0.7597,0.7678,0.7746,0.7814,0.7921,0.7988,0.7982,0.7882,0.7733,0.759,0.7434,0.7285,0.7098,0.7098,0.7051,0.6991,0.7065,0.7045,0.6991,0.7065,0.7098,0.7098,0.7098,0.7098,0.7085,0.7004,0.0,0.0,0.0,0.7038,0.0,0.7244,0.0,0.0,0.0,0.0,0.0,0.0,0.0,0.0,0.0,0.0,0.0,0.0,0.0,0.0,0.0,0.0,0.0,0.0,0.0,0.0,0.0,0.0,0.0,0.0,0.0,0.0,0.0,0.0,0.8022,0.814,0.8029,0.8022,0.814,0.8022,0.7988,0.7988,0.7988,0.7988,0.7988,0.7988,0.7988,0.7988,0.7988,0.7988,0.7988,0.7988,0.8029,0.814,0.814,0.818,0.8235,0.8235,0.833,0.8465,0.8465,0.8615,0.8811,0.0,0.0,0.0,0.0,0.0,0.0,0.0,0.0,0.0,0.0,0.0,0.0,0.7658,0.0,0.0,0.0,0.7787,0.7875,0.7982,0.7988,0.7921,0.7821,0.7848,0.7787,0.7604,0.7638,0.7638,0.7597,0.7706,0.7773,0.7814,0.788,0.7955,0.7982,0.7882,0.7753,0.7638,0.7455,0.7305,0.7146,0.7071,0.6977,0.6896,0.6957,0.6943,0.6903,0.7004,0.0,0.0,0.0,0.0,0.0,0.0,0.0,0.0,0.0,0.0,0.0,0.0,0.0,0.0,0.0,0.0,0.0,0.0,0.0,0.0,0.0,0.0,0.0,0.0,0.0,0.0,0.0,0.0,0.0,0.0,0.0,0.0,0.0,0.0,0.0,0.0,0.0,0.0,0.0,0.0,0.7988,0.7988,0.7988,0.7988,0.7988,0.7988,0.7988,0.7988,0.7988,0.7988,0.7988,0.7988,0.7988,0.7988,0.7988,0.7988,0.7988,0.7988,0.7988,0.7988,0.7988,0.7988,0.7988,0.7988,0.8133,0.8327,0.8361,0.8486,0.8716,0.0,0.0,0.0,0.0,0.0,0.0,0.0,0.0,0.0,0.0,0.0,0.0,0.7787,0.7678,0.7604,0.7611,0.7733,0.7875,0.7982,0.7988,0.7921,0.7821,0.7901,0.0,0.7604,0.7733,0.7733,0.7597,0.7604,0.7678,0.7814,0.7821,0.7902,0.7982,0.7882,0.7807,0.778,0.7495,0.7412,0.7378,0.7054,0.6896,0.6869,0.6776,0.681,0.6889,0.0,0.0,0.0,0.0,0.0,0.0,0.0,0.0,0.0,0.0,0.0,0.0,0.0,0.0,0.0,0.0,0.0,0.0,0.0,0.0,0.0,0.0,0.0,0.0,0.0,0.0,0.0,0.0,0.0,0.0,0.0,0.0,0.0,0.0,0.0,0.0,0.0,0.0,0.0,0.0,0.0,0.7988,0.7988,0.7988,0.7988,0.7988,0.7988,0.7988,0.7988,0.7988,0.7988,0.7988,0.7988,0.7988,0.7988,0.7988,0.7988,0.7988,0.7988,0.7988,0.7988,0.7988,0.7988,0.7988,0.7988,0.8133,0.834,0.8425,0.8574,0.873,0.0,0.0,0.0,0.0,0.0,0.0,0.0,0.0,0.0,0.0,0.0,0.0,0.0,0.7867,0.7882,0.7882,0.788,0.7934,0.7988,0.7901,0.7916,0.7907,0.7916,0.7889,0.7833,0.788,0.7841,0.7597,0.7692,0.7665,0.7529,0.7631,0.7753,0.7896,0.7887,0.7902,0.7801,0.7604,0.7516,0.7489,0.7139,0.7018,0.7018,0.6957,0.0,0.0,0.0,0.0,0.0,0.0,0.0,0.0,0.0,0.0,0.0,0.0,0.0,0.0,0.0,0.0,0.0,0.0,0.0,0.0,0.0,0.0,0.0,0.0,0.0,0.0,0.0,0.0,0.0,0.0,0.0,0.0,0.0,0.0,0.0,0.0,0.0,0.0,0.0,0.0,0.0,0.0,0.0,0.0,0.7988,0.7988,0.7988,0.7988,0.7988,0.7941,0.7896,0.7941,0.7941,0.7896,0.7941,0.7988,0.7988,0.7988,0.7988,0.7988,0.7988,0.7988,0.7988,0.7988,0.7988,0.7988,0.7988,0.8022,0.814,0.8289,0.8438,0.8587,0.0,0.0,0.0,0.0,0.0,0.7529,0.7773,0.7814,0.7814,0.7814,0.0,0.0,0.0,0.0,0.7988,0.7988,0.7988,0.7988,0.7988,0.7894,0.7909,0.7914,0.7916,0.7909,0.7914,0.7914,0.7841,0.7597,0.7645,0.7563,0.7419,0.7475,0.7597,0.7746,0.7848,0.7889,0.7875,0.7733,0.7672,0.7638,0.0,0.0,0.7204,0.0,0.0,0.0,0.0,0.0,0.0,0.0,0.0,0.0,0.0,0.0,0.0,0.0,0.0,0.0,0.7098,0.0,0.0,0.0,0.0,0.0,0.0,0.0,0.0,0.0,0.0,0.0,0.0,0.0,0.0,0.0,0.0,0.0,0.0,0.0,0.0,0.0,0.0,0.0,0.0,0.0,0.0,0.0,0.0,0.0,0.7988,0.7988,0.7988,0.7988,0.7941,0.7867,0.7814,0.7909,0.7909,0.7814,0.7914,0.7988,0.7988,0.7988,0.7988,0.7988,0.7988,0.7988,0.7988,0.7988,0.7988,0.7988,0.7988,0.7988,0.8015,0.8269,0.8404,0.8513,0.0,0.0,0.7428,0.7577,0.736,0.726,0.7746,0.757,0.7495,0.7773,0.0,0.0,0.0,0.0,0.0,0.7988,0.7988,0.7988,0.7988,0.7988,0.7914,0.7821,0.7907,0.7914,0.7814,0.7814,0.774,0.7597,0.7448,0.7412,0.7412,0.7412,0.7448,0.759,0.759,0.7753,0.7968,0.0,0.7807,0.7773,0.0,0.7244,0.7392,0.0,0.0,0.0,0.7419,0.7475,0.0,0.0,0.0,0.0,0.0,0.0,0.0,0.0,0.0,0.0,0.0,0.0,0.0,0.0,0.0,0.0,0.0,0.0,0.0,0.0,0.0,0.0,0.0,0.0,0.0,0.0,0.0,0.0,0.0,0.0,0.0,0.0,0.0,0.0,0.0,0.0,0.0,0.0,0.0,0.7982,0.7988,0.7988,0.7982,0.7975,0.7882,0.7801,0.7801,0.7801,0.7801,0.7807,0.7914,0.7988,0.7988,0.7988,0.7988,0.7988,0.7988,0.7988,0.7988,0.7988,0.7988,0.7988,0.7988,0.7988,0.8022,0.837,0.8479,0.8526,0.0,0.7428,0.7584,0.7726,0.7685,0.7665,0.7794,0.7834,0.7841,0.0,0.0,0.0,0.7982,0.7988,0.7988,0.7988,0.7988,0.7988,0.7988,0.7887,0.7855,0.7814,0.7848,0.7855,0.7814,0.7814,0.774,0.7597,0.7448,0.7312,0.7204,0.7204,0.7285,0.7434,0.7434,0.7543,0.7719,0.7678,0.0,0.7794,0.7563,0.7502,0.0,0.0,0.0,0.0,0.0,0.7631,0.774,0.0,0.7638,0.7651,0.0,0.0,0.0,0.0,0.0,0.0,0.7098,0.0,0.0,0.0,0.0,0.0,0.0,0.0,0.0,0.0,0.0,0.0,0.0,0.0,0.0,0.0,0.0,0.0,0.0,0.0,0.0,0.0,0.0,0.0,0.0,0.0,0.0,0.0,0.7875,0.7923,0.7982,0.7887,0.7828,0.7726,0.7678,0.7604,0.7495,0.7604,0.7658,0.7658,0.7807,0.788,0.7988,0.7988,0.7988,0.7988,0.7988,0.7988,0.7988,0.7988,0.7988,0.7988,0.7988,0.7988,0.8022,0.837,0.8479,0.8526,0.7419,0.7495,0.7645,0.7787,0.776,0.7767,0.7889,0.788,0.7887,0.0,0.0,0.0,0.7988,0.7988,0.7988,0.7988,0.7988,0.7988,0.7988,0.7907,0.7875,0.7814,0.7875,0.7875,0.7814,0.7814,0.774,0.7597,0.7448,0.7292,0.7098,0.7098,0.7146,0.7278,0.7278,0.7326,0.7414,0.0,0.0,0.0,0.7719,0.0,0.0,0.7712,0.7672,0.0,0.0,0.0,0.7896,0.7807,0.7794,0.0,0.0,0.0,0.0,0.0,0.0,0.0,0.0,0.0,0.0,0.0,0.0,0.0,0.6977,0.693,0.6923,0.0,0.0,0.0,0.0,0.0,0.0,0.0,0.0,0.0,0.0,0.0,0.0,0.0,0.0,0.0,0.0,0.0,0.0,0.7726,0.7726,0.776,0.7848,0.7773,0.7685,0.7604,0.7536,0.7461,0.7419,0.7461,0.7536,0.7604,0.7746,0.7889,0.7988,0.7988,0.7988,0.7988,0.7988,0.7988,0.7988,0.7988,0.7988,0.7988,0.7988,0.7988,0.8022,0.837,0.8479,0.8526,0.0,0.7509,0.7665,0.7787,0.7719,0.774,0.7948,0.7923,0.7882,0.0,0.7988,0.7988,0.7988,0.7988,0.7988,0.7988,0.7988,0.7988,0.7988,0.7988,0.7921,0.7821,0.7907,0.7921,0.7814,0.7814,0.774,0.7597,0.7448,0.7292,0.7098,0.7098,0.7098,0.7098,0.7098,0.7105,0.7139,0.0,0.0,0.7814,0.7828,0.7909,0.0,0.0,0.7909,0.0,0.7982,0.7988,0.7988,0.7988,0.7887,0.0,0.0,0.0,0.0,0.0,0.7439,0.0,0.0,0.0,0.0,0.0,0.0,0.0,0.7071,0.697,0.6896,0.0,0.0,0.0,0.0,0.0,0.0,0.0,0.0,0.0,0.0,0.0,0.0,0.0,0.0,0.0,0.0,0.7556,0.757,0.755,0.7584,0.759,0.7577,0.7577,0.7563,0.755,0.7414,0.7346,0.7346,0.7405,0.7448,0.7604,0.7746,0.7889,0.7988,0.7988,0.7988,0.7988,0.7988,0.7988,0.7988,0.7988,0.7988,0.7988,0.7988,0.7988,0.8022,0.8357,0.8465,0.8526,0.7419,0.7584,0.778,0.7807,0.7889,0.7921,0.7982,0.7968,0.7955,0.7988,0.7988,0.7988,0.7988,0.7988,0.7988,0.7988,0.7988,0.7988,0.7988,0.7988,0.7921,0.7821,0.7907,0.7921,0.7814,0.7814,0.774,0.7597,0.7448,0.7292,0.7098,0.7098,0.7098,0.7098,0.7098,0.721,0.7339,0.0,0.0,0.7821,0.7894,0.0,0.7868,0.7907,0.7887,0.7875,0.7948,0.7988,0.7988,0.0,0.7887,0.7807,0.0,0.0,0.0,0.0,0.0,0.0,0.0,0.0,0.0,0.0,0.0,0.0,0.7119,0.6932,0.6756,0.0,0.0,0.0,0.0,0.0,0.0,0.0,0.0,0.0,0.0,0.0,0.0,0.0,0.0,0.0,0.0,0.7278,0.7366,0.7193,0.7461,0.7543,0.7421,0.746,0.736,0.7186,0.7159,0.7139,0.7139,0.7312,0.7448,0.7604,0.7746,0.7889,0.7988,0.7988,0.7988,0.7988,0.7988,0.7988,0.7988,0.7988,0.7988,0.7988,0.7988,0.7988,0.8008,0.8241,0.8384,0.8506,0.7489,0.7726,0.7874,0.7874,0.7941,0.7988,0.7988,0.7988,0.7988,0.7988,0.7988,0.7988,0.7988,0.7988,0.7988,0.7988,0.7988,0.7988,0.7988,0.7988,0.7955,0.788,0.7948,0.7955,0.788,0.7874,0.7821,0.7597,0.7522,0.7366,0.7098,0.7098,0.7098,0.7098,0.7098,0.7224,0.7426,0.0,0.7678,0.7828,0.7928,0.0,0.7887,0.7961,0.7941,0.7887,0.7961,0.7988,0.7988,0.7988,0.7941,0.0,0.0,0.7875,0.7801,0.0,0.7706,0.7706,0.0,0.0,0.0,0.7685,0.0,0.0,0.0,0.7143,0.7014,0.0,0.0,0.0,0.0,0.0,0.0,0.0,0.0,0.0,0.0,0.0,0.0,0.0,0.0,0.0,0.0,0.7129,0.7224,0.7098,0.724,0.7339,0.7258,0.7258,0.7217,0.7098,0.7098,0.7132,0.7251,0.7333,0.7482,0.7706,0.778,0.7889,0.7988,0.7988,0.7988,0.7988,0.7988,0.7988,0.7988,0.7988,0.7988,0.7988,0.7988,0.7988,0.8008,0.8214,0.8364,0.8506,0.7638,0.7855,0.7988,0.7988,0.7988,0.7988,0.7988,0.7988,0.7988,0.7988,0.7988,0.7988,0.7988,0.7988,0.8002,0.8029,0.7982,0.7968,0.8029,0.7982,0.7948,0.7948,0.7975,0.7975,0.7948,0.7948,0.7868,0.7597,0.757,0.7414,0.7098,0.7098,0.7112,0.7139,0.7105,0.7258,0.0,0.0,0.0,0.7868,0.0,0.7988,0.7988,0.7988,0.7988,0.7988,0.7988,0.7988,0.7988,0.7988,0.0,0.7988,0.7988,0.7988,0.0,0.0,0.0,0.0,0.0,0.0,0.0,0.0,0.0,0.7611,0.0,0.0,0.0,0.0,0.0,0.0,0.0,0.0,0.0,0.0,0.0,0.0,0.0,0.0,0.0,0.0,0.0,0.0,0.0,0.693,0.7038,0.7092,0.7071,0.7065,0.7092,0.7125,0.7139,0.7139,0.7166,0.7292,0.746,0.7441,0.7577,0.7814,0.7841,0.7874,0.7988,0.7988,0.7988,0.7988,0.7988,0.7988,0.7988,0.7988,0.7988,0.7988,0.7988,0.7988,0.8008,0.818,0.8336,0.8499,0.7787,0.7874,0.7988,0.7988,0.7988,0.7988,0.7988,0.7988,0.7988,0.7988,0.7988,0.7988,0.7988,0.0,0.0,0.0,0.0,0.0,0.8228,0.0,0.7834,0.7834,0.7921,0.7928,0.7841,0.7834,0.776,0.7597,0.7461,0.7312,0.7098,0.7098,0.721,0.7339,0.7204,0.0,0.0,0.0,0.776,0.0,0.7982,0.7988,0.0,0.7988,0.7988,0.7988,0.7988,0.7988,0.7988,0.0,0.7988,0.7988,0.0,0.7988,0.0,0.0,0.0,0.0,0.0,0.0,0.0,0.0,0.7896,0.0,0.0,0.0,0.0,0.0,0.0,0.0,0.0,0.0,0.0,0.0,0.0,0.0,0.0,0.0,0.0,0.0,0.0,0.0,0.0,0.0,0.6858,0.7078,0.6977,0.6964,0.7092,0.7272,0.7346,0.7346,0.7475,0.7556,0.757,0.7699,0.778,0.7814,0.7901,0.7975,0.7988,0.7988,0.7988,0.7988,0.7988,0.7988,0.7988,0.7988,0.7988,0.7988,0.7988,0.7988,0.7988,0.8008,0.8241,0.8486,0.7719,0.7875,0.7988,0.7988,0.7988,0.7988,0.7988,0.7988,0.7988,0.7988,0.7988,0.8022,0.0,0.0,0.0,0.0,0.0,0.8092,0.0,0.0,0.7894,0.7894,0.7955,0.7961,0.7894,0.7894,0.7868,0.7726,0.7577,0.7468,0.74,0.7179,0.7272,0.7495,0.7339,0.0,0.7807,0.0,0.0,0.0,0.0,0.0,0.0,0.7988,0.7988,0.7988,0.7988,0.7988,0.7988,0.0,0.7988,0.0,0.0,0.0,0.0,0.0,0.0,0.0,0.0,0.0,0.0,0.0,0.0,0.0,0.0,0.0,0.7482,0.0,0.0,0.0,0.0,0.0,0.0,0.0,0.0,0.0,0.0,0.0,0.0,0.0,0.0,0.0,0.0,0.0,0.0,0.0,0.6964,0.7027,0.7258,0.7333,0.746,0.7502,0.7563,0.7638,0.7719,0.778,0.7855,0.7894,0.7961,0.7988,0.7988,0.7988,0.7988,0.7988,0.7988,0.7988,0.7988,0.7988,0.7988,0.7988,0.7988,0.8092,0.8174,0.8174,0.8364,0.8615,0.7706,0.7862,0.7988,0.7988,0.7988,0.7988,0.7988,0.7988,0.8008,0.8099,0.0,0.0,0.837,0.8391,0.0,0.0,0.8343,0.8241,0.0,0.0,0.7928,0.0,0.0,0.0,0.0,0.7928,0.7874,0.7814,0.7672,0.7597,0.7597,0.7373,0.7407,0.7651,0.0,0.7597,0.7868,0.0,0.0,0.7988,0.7988,0.7988,0.7988,0.7988,0.7988,0.7988,0.7988,0.7988,0.7988,0.7988,0.7988,0.0,0.7988,0.0,0.0,0.0,0.0,0.0,0.7988,0.0,0.0,0.0,0.0,0.0,0.0,0.0,0.0,0.0,0.0,0.0,0.0,0.0,0.0,0.0,0.0,0.0,0.0,0.0,0.0,0.0,0.0,0.0,0.0,0.0,0.0,0.7024,0.6903,0.6993,0.7292,0.7387,0.7489,0.7597,0.7678,0.7773,0.7875,0.7875,0.788,0.7988,0.7988,0.7988,0.7988,0.7988,0.7988,0.7988,0.7988,0.7988,0.7988,0.7988,0.7988,0.7988,0.7988,0.8133,0.832,0.832,0.8459,0.871,0.7834,0.788,0.0,0.7988,0.7988,0.7988,0.7988,0.7988,0.8092,0.0,0.0,0.0,0.0,0.0,0.0,0.0,0.0,0.833,0.8459,0.0,0.7821,0.0,0.0,0.7921,0.0,0.0,0.7814,0.7814,0.7672,0.7597,0.7597,0.759,0.7665,0.7801,0.7658,0.7753,0.7975,0.7875,0.7896,0.7988,0.7988,0.7988,0.7988,0.0,0.7988,0.7988,0.7988,0.0,0.0,0.7988,0.7988,0.0,0.0,0.0,0.0,0.0,0.0,0.0,0.0,0.0,0.0,0.7988,0.0,0.0,0.0,0.0,0.7807,0.0,0.0,0.0,0.0,0.0,0.0,0.0,0.0,0.0,0.0,0.0,0.0,0.0,0.0,0.0,0.0,0.0,0.0,0.6869,0.6797,0.6837,0.7085,0.7428,0.7597,0.7597,0.7875,0.7975,0.7982,0.7982,0.7982,0.7988,0.7988,0.7988,0.7988,0.7988,0.7988,0.7988,0.7988,0.7988,0.7988,0.7988,0.7988,0.7988,0.7988,0.8133,0.832,0.832,0.8459,0.871,0.7921,0.0,0.0,0.0,0.0,0.7988,0.7988,0.8126,0.0,0.0,0.0,0.0,0.0,0.0,0.9178,0.0,0.0,0.8804,0.8499,0.8431,0.0,0.0,0.0,0.8119,0.0,0.0,0.0,0.0,0.0,0.7794,0.784,0.7692,0.7733,0.7907,0.0,0.7848,0.0,0.0,0.0,0.0,0.0,0.7988,0.7988,0.0,0.0,0.7988,0.7988,0.7988,0.0,0.7988,0.7988,0.7988,0.7988,0.7988,0.7988,0.7988,0.7988,0.0,0.0,0.0,0.7988,0.7988,0.0,0.0,0.0,0.0,0.0,0.0,0.0,0.0,0.0,0.0,0.0,0.0,0.0,0.0,0.0,0.0,0.0,0.0,0.0,0.0,0.0,0.0,0.0,0.677,0.6824,0.698,0.7278,0.7489,0.7692,0.7833,0.7934,0.7988,0.7988,0.7988,0.7988,0.7988,0.7988,0.7988,0.7988,0.7988,0.7988,0.7988,0.7988,0.7988,0.7988,0.7988,0.7988,0.8002,0.8153,0.8282,0.8411,0.8411,0.854,0.8723,0.7988,0.7988,0.0,0.0,0.0,0.0,0.0,0.0,0.0,0.0,0.9049,0.0,0.9646,0.0,0.9578,0.0,0.9374,0.9123,0.8676,0.8682,0.0,0.8214,0.8241,0.0,0.0,0.0,0.0,0.0,0.0,0.7894,0.7988,0.7841,0.7855,0.7988,0.0,0.0,0.0,0.0,0.7988,0.0,0.0,0.7988,0.0,0.0,0.7988,0.7988,0.0,0.7988,0.7988,0.7988,0.7988,0.7988,0.7988,0.7988,0.7988,0.7988,0.7988,0.7988,0.7988,0.7988,0.0,0.7988,0.7988,0.0,0.7988,0.0,0.0,0.0,0.0,0.0,0.0,0.0,0.0,0.0,0.0,0.0,0.0,0.6539,0.0,0.0,0.0,0.0,0.0,0.0,0.6586,0.6695,0.679,0.698,0.0,0.0,0.7712,0.7901,0.7961,0.7988,0.7988,0.7988,0.7988,0.7988,0.7988,0.7988,0.7988,0.7988,0.7988,0.7988,0.7988,0.7988,0.7988,0.7988,0.7988,0.8008,0.8208,0.8381,0.8418,0.8526,0.8662,0.8804,0.7988,0.7988,0.0,0.0,0.8002,0.0,0.0,0.0,0.8838,0.0,0.9449,0.9693,0.9836,0.9916,0.9883,0.9659,0.9625,0.0,0.8932,0.8832,0.0,0.0,0.837,0.8347,0.832,0.0,0.0,0.0,0.0,0.0,0.7988,0.7988,0.7988,0.0,0.7988,0.0,0.7988,0.7988,0.7988,0.7988,0.7988,0.7988,0.7988,0.7988,0.7988,0.7988,0.7988,0.7988,0.7988,0.7988,0.7988,0.7988,0.7988,0.7988,0.7988,0.7988,0.7988,0.7988,0.7988,0.7988,0.7988,0.7988,0.0,0.0,0.0,0.0,0.7988,0.0,0.0,0.0,0.0,0.0,0.0,0.0,0.0,0.0,0.0,0.0,0.0,0.0,0.0,0.0,0.0,0.6388,0.6436,0.6668,0.6702,0.6844,0.0,0.0,0.7658,0.7821,0.7914,0.7988,0.7988,0.7988,0.7988,0.7988,0.7988,0.7988,0.7988,0.7988,0.7988,0.7988,0.7988,0.7988,0.7988,0.7988,0.7995,0.8015,0.8221,0.834,0.8336,0.8608,0.8804,0.8885,0.7988,0.7988,0.8022,0.0,0.8214,0.8221,0.0,0.0,0.0,0.0,0.9849,1.0161,1.0304,1.0263,1.0141,0.9889,0.9836,0.0,0.0,0.0,0.0,0.8676,0.8723,0.8615,0.8327,0.8235,0.0,0.7988,0.0,0.0,0.7988,0.0,0.0,0.0,0.0,0.0,0.7988,0.7988,0.7988,0.7988,0.7988,0.7988,0.0,0.0,0.7988,0.7988,0.7988,0.7988,0.7988,0.7988,0.7988,0.7988,0.7988,0.7988,0.7988,0.7988,0.7988,0.7988,0.7988,0.7988,0.7988,0.7988,0.7988,0.7988,0.0,0.0,0.0,0.0,0.0,0.0,0.0,0.0,0.0,0.0,0.0,0.0,0.0,0.0,0.0,0.6647,0.0,0.0,0.0,0.6518,0.6573,0.6573,0.6742,0.7,0.0,0.0,0.0,0.7921,0.7968,0.7988,0.7988,0.7988,0.7988,0.7988,0.7988,0.7988,0.7988,0.7988,0.7988,0.7988,0.7988,0.7988,0.7988,0.7988,0.8106,0.8228,0.837,0.8567,0.8764,0.8723,0.8804,0.8885,0.7988,0.0,0.0,0.8336,0.0,0.0,0.8709,0.0,0.0,0.9747,1.008,0.0,1.0392,1.0385,1.0283,1.0004,0.9909,0.0,0.0,0.0,0.0,0.8927,0.8927,0.8757,0.837,0.8354,0.0,0.7988,0.0,0.0,0.7988,0.0,0.0,0.0,0.0,0.7988,0.0,0.7988,0.7988,0.7988,0.7988,0.0,0.0,0.7988,0.7988,0.7988,0.7988,0.7988,0.7988,0.7988,0.7988,0.7988,0.7988,0.7988,0.7988,0.7988,0.7988,0.7988,0.7988,0.7988,0.7988,0.7988,0.7988,0.7988,0.7988,0.7988,0.7988,0.0,0.0,0.0,0.0,0.0,0.0,0.0,0.0,0.0,0.0,0.0,0.0,0.0,0.0,0.0,0.0,0.6607,0.6634,0.6525,0.6756,0.0,0.0,0.0,0.0,0.7975,0.7988,0.7988,0.7988,0.7988,0.7988,0.7988,0.7988,0.7988,0.7988,0.7988,0.7988,0.7988,0.7988,0.7988,0.7995,0.8113,0.8194,0.8347,0.8574,0.8784,0.8878,0.8913,0.892,0.8885,0.0,0.0,0.0,0.0,0.0,0.0,0.0,0.933,0.0,0.995,0.0,1.0304,1.0283,1.0371,1.0324,0.9984,0.0,0.9842,0.9625,0.9612,0.9469,0.9221,0.9035,0.8811,0.8486,0.8364,0.0,0.0,0.0,0.0,0.0,0.0,0.0,0.0,0.0,0.0,0.0,0.7988,0.7988,0.0,0.7988,0.7988,0.7988,0.7988,0.7988,0.7988,0.7988,0.7988,0.7988,0.7988,0.7988,0.7988,0.7988,0.7988,0.7988,0.7988,0.7988,0.7988,0.7988,0.7988,0.7988,0.7988,0.7988,0.7988,0.7988,0.7988,0.7988,0.7988,0.7988,0.7988,0.0,0.0,0.0,0.0,0.0,0.0,0.0,0.0,0.0,0.0,0.0,0.0,0.0,0.0,0.0,0.6539,0.6776,0.0,0.0,0.0,0.0,0.7982,0.7988,0.8002,0.8022,0.0,0.8022,0.8022,0.8022,0.8008,0.7988,0.7988,0.7988,0.7988,0.8008,0.8022,0.8029,0.8235,0.8361,0.837,0.8777,0.8885,0.8898,0.9096,0.9062,0.8885,0.0,0.0,0.0,0.0,0.0,0.9422,0.9666,0.9917,1.012,1.0229,1.0365,1.0412,1.029,1.0188,0.999,0.9876,0.9863,0.0,0.0,0.0,0.0,0.9221,0.9187,0.8968,0.8492,0.8459,0.8309,0.0,0.0,0.0,0.7988,0.0,0.0,0.0,0.0,0.0,0.7988,0.7988,0.0,0.7988,0.7988,0.7988,0.7988,0.7988,0.7988,0.7988,0.7988,0.7988,0.7988,0.7988,0.7988,0.7988,0.7988,0.7988,0.7988,0.7988,0.7988,0.7988,0.7988,0.7988,0.7988,0.7988,0.7988,0.7988,0.7988,0.7988,0.7988,0.7988,0.7988,0.7988,0.7988,0.0,0.0,0.0,0.0,0.0,0.0,0.0,0.0,0.0,0.0,0.0,0.0,0.0,0.0,0.0,0.0,0.0,0.0,0.0,0.0,0.0,0.7988,0.0,0.0,0.0,0.8228,0.8228,0.8228,0.8167,0.7988,0.7988,0.7988,0.7995,0.8174,0.8228,0.8241,0.8384,0.852,0.8655,0.8804,0.8885,0.8898,0.9096,0.9062,0.8885,0.0,0.0,0.0,0.0,0.0,0.0,0.0,1.0317,0.0,1.0399,1.0317,1.027,1.0276,1.0141,0.9957,0.9944,0.9869,0.9761,0.9618,0.968,0.9551,0.9228,0.9282,0.0,0.8492,0.8479,0.8377,0.816,0.0,0.0,0.816,0.0,0.0,0.0,0.0,0.7988,0.0,0.0,0.0,0.7988,0.7988,0.7988,0.7988,0.7988,0.7988,0.7988,0.7988,0.7988,0.7988,0.7988,0.7988,0.7988,0.7988,0.7988,0.7988,0.7988,0.7988,0.7988,0.7988,0.7988,0.7988,0.7988,0.7988,0.7988,0.7988,0.7988,0.7988,0.7988,0.7988,0.7988,0.7988,0.7988,0.0,0.0,0.0,0.0,0.0,0.0,0.0,0.0,0.0,0.0,0.0,0.0,0.0,0.0,0.0,0.0,0.0,0.0,0.0,0.0,0.0,0.0,0.0,0.0,0.0,0.8153,0.8235,0.8187,0.7988,0.7988,0.7988,0.7995,0.8201,0.832,0.834,0.8513,0.8689,0.8845,0.8994,0.9008,0.8912,0.9191,0.9178,0.9062,0.0,0.9047,0.0,0.0,0.9924,0.0,1.0263,1.0527,1.0663,1.0514,1.0263,1.0134,1.0222,1.0093,0.9998,1.0005,0.989,0.9761,0.9618,0.9713,0.9605,0.9275,0.9344,0.9096,0.8587,0.8547,0.8445,0.0,0.0,0.0,0.0,0.0,0.0,0.0,0.0,0.0,0.0,0.0,0.8042,0.8092,0.8069,0.8062,0.8042,0.8042,0.8042,0.8035,0.8002,0.7988,0.7988,0.7988,0.7988,0.7988,0.7988,0.7988,0.7988,0.7988,0.7988,0.7988,0.7988,0.7988,0.7988,0.7988,0.7988,0.7988,0.7988,0.7988,0.7988,0.7988,0.7988,0.7988,0.7988,0.7988,0.0,0.0,0.0,0.0,0.0,0.0,0.0,0.0,0.0,0.0,0.0,0.0,0.0,0.0,0.0,0.0,0.0,0.0,0.0,0.0,0.0,0.8008,0.8085,0.0,0.8255,0.8083,0.8255,0.8235,0.8035,0.8002,0.8008,0.8099,0.8248,0.835,0.8431,0.8662,0.8832,0.8892,0.9062,0.9042,0.8919,0.9273,0.9344,0.9241,0.0,0.0,0.0,0.0,0.0,0.0,1.0297,1.0527,1.0663,1.0514,1.0358,1.0209,1.0024,0.993,0.9842,0.9842,0.9829,0.9761,0.9618,0.9618,0.9551,0.9367,0.9296,0.9089,0.8844,0.8757,0.8554,0.0,0.0,0.0,0.0,0.0,0.0,0.0,0.0,0.0,0.0,0.8248,0.8248,0.8262,0.8391,0.8364,0.8248,0.8248,0.8248,0.8228,0.8092,0.7988,0.7988,0.7988,0.7988,0.7988,0.7988,0.7988,0.7988,0.7988,0.7988,0.7988,0.7988,0.7988,0.7988,0.7988,0.7988,0.7988,0.7988,0.7988,0.7988,0.7988,0.7988,0.7988,0.7988,0.7988,0.7988,0.0,0.0,0.0,0.0,0.0,0.0,0.0,0.0,0.0,0.0,0.0,0.0,0.0,0.0,0.0,0.0,0.0,0.0,0.7982,0.0,0.8106,0.8248,0.8391,0.8459,0.8438,0.8459,0.8384,0.8241,0.8106,0.8113,0.8255,0.8397,0.8621,0.8824,0.8851,0.8871,0.8885,0.8898,0.8898,0.8919,0.9273,0.9344,0.9268,0.0,0.0,0.0,0.0,0.0,0.0,0.0,1.0643,1.0663,1.0514,1.0439,1.0385,1.0324,1.01,0.9896,0.9896,0.9876,0.9761,0.9618,0.9686,0.9632,0.9395,0.9408,0.9273,0.8892,0.8824,0.8743,0.0,0.0,0.0,0.0,0.0,0.0,0.0,0.0,0.8214,0.8327,0.8364,0.8397,0.8404,0.8459,0.8452,0.8397,0.8397,0.8343,0.8313,0.8201,0.8119,0.7988,0.7988,0.7988,0.7988,0.7988,0.7988,0.7988,0.7988,0.7988,0.7988,0.7988,0.7988,0.7988,0.7988,0.7988,0.7988,0.7988,0.7988,0.7988,0.7988,0.7988,0.7988,0.7988,0.7988,0.7988,0.0,0.0,0.0,0.0,0.0,0.0,0.0,0.0,0.0,0.0,0.0,0.0,0.0,0.0,0.0,0.0,0.0,0.0,0.7896,0.0,0.8208,0.832,0.8506,0.8574,0.8486,0.8574,0.8492,0.832,0.8208,0.8255,0.8404,0.8554,0.8743,0.8885,0.8885,0.8885,0.8892,0.9035,0.9069,0.9103,0.9408,0.9483,0.9462,1.0141,0.0,1.0263,0.0,1.0561,1.0595,1.0704,1.0717,1.0683,1.0575,1.0561,1.0527,1.0439,1.0243,1.0114,1.0114,0.9978,0.9849,0.9747,0.9788,0.9727,0.9517,0.9578,0.0,0.9087,0.9049,0.8927,0.8777,0.8621,0.0,0.0,0.0,0.0,0.0,0.8282,0.8357,0.8404,0.8506,0.8547,0.8554,0.8601,0.856,0.8479,0.8479,0.8391,0.832,0.8221,0.8133,0.7988,0.7988,0.7988,0.7988,0.7988,0.7988,0.7988,0.7988,0.7988,0.7988,0.7988,0.7988,0.7988,0.7988,0.7988,0.7988,0.7988,0.7988,0.7988,0.7988,0.7988,0.7988,0.7988,0.7988,0.7988,0.7988,0.0,0.0,0.0,0.0,0.0,0.0,0.0,0.7901,0.7882,0.0,0.0,0.0,0.0,0.0,0.0,0.0,0.0,0.0,0.0,0.0,0.0,0.8581,0.8655,0.8554,0.8662,0.8601,0.8397,0.8397,0.8479,0.8621,0.873,0.8886,0.9069,0.9022,0.9028,0.9076,0.9178,0.9275,0.9309,0.951,0.9612,0.9632,1.0426,1.0487,1.0534,1.069,1.0717,1.0717,1.0717,1.0717,1.0717,1.0717,1.0717,1.0609,1.0317,1.0283,1.0276,1.0276,1.0203,1.0046,0.9984,0.9903,0.9822,0.0,0.0,0.9605,0.9598,0.9306,0.9083,0.8878,0.0,0.0,0.8486,0.0,0.8479,0.8479,0.8479,0.856,0.8703,0.871,0.871,0.8723,0.8817,0.875,0.8479,0.8479,0.8391,0.8248,0.8099,0.7988,0.7988,0.7988,0.7988,0.7988,0.7988,0.7988,0.7988,0.7988,0.7988,0.7988,0.7988,0.7988,0.7988,0.7988,0.7988,0.7988,0.7988,0.7988,0.7988,0.7988,0.7988,0.7988,0.7988,0.7988,0.7988,0.7988,0.0,0.0,0.0,0.0,0.0,0.0,0.7909,0.7875,0.7975,0.0,0.0,0.0,0.0,0.0,0.0,0.0,0.0,0.8306,0.832,0.0,0.8479,0.8635,0.871,0.871,0.871,0.871,0.8703,0.8703,0.8784,0.8878,0.8878,0.9103,0.9361,0.9268,0.9296,0.9374,0.9374,0.9381,0.9395,0.9551,0.9612,0.9632,1.0629,1.0649,1.0663,1.0711,1.0717,1.0717,1.0717,1.0717,1.0717,1.0717,1.0717,1.0683,1.0588,1.0399,1.0283,0.0,1.0141,1.0053,0.0,0.9943,0.9869,0.9829,0.9774,0.9707,0.9612,0.9408,0.9232,0.9083,0.0,0.0,0.0,0.8635,0.8581,0.8486,0.8587,0.8662,0.8716,0.8818,0.8811,0.8817,0.8865,0.8818,0.8635,0.8635,0.8486,0.8313,0.8214,0.8126,0.7988,0.7988,0.7988,0.7988,0.7988,0.7988,0.7988,0.7988,0.7988,0.7988,0.7988,0.7988,0.7988,0.7988,0.7988,0.7988,0.7988,0.7988,0.7988,0.7988,0.7988,0.7988,0.7988,0.7988,0.7988,0.7988,0.7988,0.0,0.0,0.0,0.0,0.0,0.7948,0.7934,0.0,0.7862,0.0,0.0,0.0,0.0,0.0,0.0,0.0,0.0,0.8411,0.0,0.8635,0.8791,0.8811,0.8811,0.8811,0.8811,0.8811,0.8811,0.8947,0.9089,0.9198,0.9293,0.9374,0.9327,0.934,0.9395,0.9496,0.9537,0.9557,0.97,0.9754,0.9761,1.0717,1.0717,1.0717,1.0717,1.0717,1.0717,1.0717,1.0717,1.0717,1.0717,1.0717,1.0697,1.0643,1.0473,0.0,1.0439,1.0256,1.0134,1.0134,0.9963,0.9862,0.9822,0.9822,0.9781,0.9693,0.9544,0.0,0.9296,0.9035,0.8838,0.8798,0.8798,0.8743,0.8655,0.8757,0.8798,0.8804,0.8844,0.8885,0.8885,0.8885,0.8845,0.871,0.871,0.8526,0.832,0.832,0.8174,0.7988,0.7988,0.7988,0.7988,0.7988,0.8029,0.8113,0.8008,0.7988,0.7988,0.7988,0.7988,0.7988,0.7988,0.7988,0.8008,0.8113,0.8029,0.8008,0.8113,0.8029,0.7988,0.7988,0.7988,0.7988,0.7988,0.7988,0.7988,0.7988,0.0,0.0,0.0,0.0,0.0,0.0,0.7901,0.7896,0.0,0.0,0.0,0.0,0.0,0.0,0.8201,0.8533,0.0,0.8798,0.8838,0.8885,0.8885,0.8885,0.8967,0.9022,0.9022,0.913,0.9327,0.9367,0.9442,0.9544,0.949,0.9496,0.9557,0.9652,0.9686,0.97,0.9788,0.9822,0.9829,1.0717,1.0717,0.0,0.0,1.0717,0.0,1.0717,1.0717,1.0717,1.0717,1.0717,1.0663,1.0521,1.0507,1.0568,1.0711,0.0,0.0,0.0,1.0019,0.9849,0.9836,0.9829,0.9822,0.9822,0.968,0.9537,0.9381,0.9096,0.8898,0.8898,0.8892,0.8885,0.8885,0.8885,0.8885,0.8885,0.8885,0.8885,0.8885,0.8885,0.8845,0.871,0.871,0.8533,0.8333,0.8327,0.818,0.8015,0.7995,0.8002,0.8015,0.8008,0.816,0.8255,0.8035,0.7995,0.8008,0.8008,0.8008,0.8008,0.8008,0.8008,0.8092,0.8241,0.816,0.8099,0.8241,0.8147,0.7988,0.7988,0.7988,0.7988,0.7988,0.7988,0.7988,0.7988,0.0,0.0,0.0,0.0,0.0,0.0,0.8008,0.8008,0.0,0.0,0.0,0.0,0.0,0.8214,0.8486,0.8648,0.8798,0.8885,0.8885,0.8892,0.8898,0.8898,0.9035,0.9241,0.9241,0.9347,0.9618,0.9476,0.9564,0.9808,0.968,0.97,0.9822,0.9822,0.9822,0.9822,0.9822,0.9829,0.9856,0.0,0.0,1.0717,1.0717,1.0717,1.0717,1.0717,1.0717,1.0717,1.0717,1.0717,1.0704,1.067,1.0663,1.0683,1.0717,1.0548,1.0439,1.0439,1.027,1.012,0.9936,0.9883,0.9822,0.9822,0.968,0.9537,0.9381,0.9191,0.9103,0.9096,0.8988,0.8885,0.8885,0.8885,0.8885,0.8885,0.8885,0.8885,0.8885,0.8885,0.8845,0.871,0.871,0.8594,0.8418,0.8361,0.8316,0.8343,0.8062,0.8187,0.8357,0.8248,0.8316,0.8377,0.8069,0.8126,0.8214,0.8214,0.8214,0.8214,0.8214,0.8214,0.8228,0.8313,0.8241,0.8228,0.8313,0.8147,0.7988,0.7988,0.7988,0.7988,0.7988,0.7988,0.7988,0.7988,0.7988,0.0,0.0,0.8147,0.8214,0.8214,0.8214,0.8214,0.0,0.0,0.0,0.0,0.8452,0.8581,0.8655,0.8804,0.8844,0.8885,0.8885,0.8994,0.9103,0.9103,0.9239,0.9503,0.9503,0.9598,0.9768,0.9734,0.9754,0.9822,0.9781,0.9788,0.9822,0.9822,0.9822,0.9822,0.9822,0.9897,0.9936,1.0717,1.0717,1.0717,1.0717,1.0717,1.0717,1.0717,1.0717,1.0717,1.0717,1.0717,1.0717,1.0717,1.0717,1.0717,1.0717,1.0521,1.0426,1.0487,1.0229,1.0066,0.9984,0.9842,0.9822,0.9822,0.9747,0.9632,0.9483,0.9316,0.9207,0.9207,0.9008,0.8885,0.8885,0.8885,0.8885,0.8885,0.8885,0.8885,0.8885,0.8885,0.8838,0.8811,0.8811,0.8716,0.8574,0.8499,0.8479,0.8459,0.8296,0.835,0.8465,0.8391,0.8465,0.854,0.8309,0.8303,0.837,0.837,0.837,0.837,0.837,0.837,0.8384,0.8459,0.8418,0.8384,0.8459,0.835,0.8241,0.8241,0.8187,0.8147,0.8147,0.8035,0.7988,0.7988,0.7988,0.0,0.814,0.8221,0.8347,0.8364,0.837,0.837,0.837,0.837,0.0,0.8465,0.8621,0.871,0.871,0.8804,0.8967,0.9035,0.9103,0.9178,0.9316,0.9316,0.9381,0.9612,0.9612,0.9686,0.9822,0.9822,0.9822,0.9822,0.9822,0.9822,0.9822,0.9822,0.9822,0.9829,0.9835,0.9916,1.0004,1.0717,1.0717,1.0717,1.0717,1.0717,1.0717,1.0717,1.0717,1.0717,1.0717,1.0717,1.0717,1.0717,1.0717,1.0717,1.0717,1.0473,1.0371,1.0514,1.0127,0.9951,1.0017,0.9917,0.9822,0.9822,0.9822,0.9761,0.9639,0.9361,0.9275,0.9275,0.9076,0.8939,0.8974,0.8974,0.8905,0.8885,0.8885,0.8885,0.8885,0.8885,0.8885,0.8885,0.8885,0.8804,0.8743,0.8716,0.8642,0.8547,0.8499,0.8513,0.8547,0.8526,0.8621,0.8716,0.8587,0.8554,0.8547,0.852,0.852,0.852,0.852,0.852,0.8554,0.8682,0.8608,0.8554,0.8682,0.8587,0.8479,0.8479,0.8384,0.8347,0.8327,0.816,0.8015,0.7995,0.0,0.8126,0.8255,0.8361,0.8384,0.8506,0.852,0.852,0.852,0.852,0.8574,0.8703,0.873,0.8743,0.8743,0.8893,0.9042,0.9241,0.9313,0.9395,0.9415,0.9415,0.9496,0.9639,0.9639,0.9707,0.9822,0.9822,0.9822,0.9822,0.9822,0.9822,0.9822,0.9822,0.9822,0.9842,0.993,1.0004,1.0058,1.0717,1.0717,1.0717,1.0717,1.0717,1.0717,1.0717,1.0717,1.0717,1.0717,1.0717,1.0717,1.0717,1.0717,1.0717,1.0717,1.0561,1.0521,1.0677,1.0385,1.0222,1.0243,0.9971,0.9822,0.9822,0.9822,0.9808,0.9788,0.9618,0.9537,0.9537,0.9381,0.9245,0.9173,0.9173,0.9055,0.8885,0.8885,0.8885,0.8885,0.8885,0.8885,0.8885,0.8885,0.8871,0.8831,0.8757,0.8777,0.8825,0.8567,0.8655,0.879,0.8716,0.8777,0.8844,0.8817,0.8811,0.8838,0.871,0.8676,0.8676,0.8676,0.8676,0.8682,0.8703,0.8696,0.8682,0.8703,0.8587,0.8479,0.8479,0.8465,0.8411,0.834,0.8248,0.8187,0.8008,0.0,0.8241,0.832,0.8492,0.8648,0.8676,0.8676,0.8676,0.8676,0.8676,0.8682,0.871,0.8832,0.8851,0.8851,0.9042,0.9248,0.9347,0.9367,0.9449,0.9571,0.9571,0.9652,0.9788,0.9788,0.9802,0.9822,0.9822,0.9822,0.9822,0.9822,0.9822,0.9822,0.9822,0.9822,0.9842,0.993,1.0134,1.027,1.0717,1.0717,1.0717,1.0717,1.0717,1.0751,1.0833,1.0846,1.0846,1.0846,1.0846,1.0812,1.0731,1.0717,1.0717,1.0717,1.0656,1.0643,1.0717,1.0365,1.0195,1.0276,0.9985,0.9822,0.9822,0.9822,0.9822,0.9822,0.968,0.9612,0.9605,0.9456,0.9347,0.933,0.933,0.9191,0.9055,0.9055,0.9008,0.8885,0.8885,0.8885,0.8885,0.8885,0.8885,0.8871,0.8804,0.8824,0.8865,0.8777,0.8818,0.8871,0.8804,0.8824,0.8885,0.8885,0.8885,0.8865,0.8797,0.8893,0.8927,0.8852,0.8893,0.8927,0.8852,0.8832,0.8832,0.8832,0.8777,0.873,0.873,0.8662,0.8581,0.852,0.8377,0.0,0.0,0.8275,0.833,0.8486,0.8628,0.8743,0.8825,0.8832,0.8832,0.8832,0.8906,0.8947,0.8947,0.9096,0.9178,0.9178,0.9239,0.9347,0.9503,0.9578,0.9652,0.9727,0.9727,0.9754,0.9822,0.9822,0.9822,0.9822,0.9822,0.9869,0.9876,0.9856,0.9869,0.9883,0.9883,0.9883,0.9909,1.0202,1.0331,1.0419,1.0772,1.0772,1.0785,1.0819,1.0765,1.0785,1.0968,1.09,1.088,1.088,1.088,1.0826,1.0738,1.0717,1.0717,1.0717,1.0717,1.0717,1.0717,1.03,1.0209,1.0324,1.0039,0.9876,0.9876,0.9836,0.9822,0.9822,0.9713,0.9659,0.9652,0.9537,0.9462,0.9435,0.9435,0.9334,0.9207,0.9207,0.9069,0.8885,0.8885,0.8885,0.8885,0.8885,0.8885,0.8885,0.8885,0.8885,0.8885,0.8885,0.8885,0.8885,0.8885,0.8885,0.8885,0.8885,0.8905,0.8981,0.8892,0.9042,0.918,0.9015,0.9069,0.918,0.9015,0.8905,0.8885,0.8885,0.8885,0.8885,0.8885,0.8845,0.875,0.8716,0.0,0.0,0.0,0.8418,0.8459,0.8682,0.8743,0.8811,0.8871,0.8967,0.8988,0.8988,0.9123,0.9262,0.9262,0.932,0.9395,0.9435,0.9435,0.9503,0.9659,0.9768,0.9822,0.9822,0.9822,0.9822,0.9822,0.9822,0.9822,0.9822,0.9822,0.989,0.9923,0.9869,0.9849,0.9984,0.9984,1.0011,1.0071,1.0399,1.0493,1.0514,1.086,1.086,1.0975,1.1111,1.09,1.0819,1.1104,1.1036,1.088,1.088,1.088,1.0826,1.0738,1.0717,1.0717,1.0717,1.0717,1.0717,1.0717,1.0555,1.0466,1.0473,1.0188,0.997,0.997,0.989,0.9822,0.9822,0.9808,0.9802,0.9802,0.9795,0.972,0.9591,0.9591,0.9429,0.9207,0.9207,0.9069,0.8885,0.8885,0.8885,0.8885,0.8885,0.8885,0.8885,0.8885,0.8885,0.8885,0.8885,0.8885,0.8885,0.8885,0.8885,0.8885,0.8885,0.9035,0.9166,0.8974,0.9042,0.9207,0.92,0.92,0.9207,0.92,0.9035,0.8885,0.8885,0.8885,0.8885,0.8885,0.8871,0.8817,0.873,0.0,0.0,0.8499,0.8594,0.8682,0.871,0.8832,0.8871,0.8885,0.9055,0.9193,0.9193,0.9337,0.9361,0.9361,0.9374,0.9449,0.9591,0.9591,0.9659,0.9802,0.9815,0.9822,0.9822,0.9822,0.9822,0.9822,0.9822,0.9822,0.9822,0.9822,0.9829,0.9836,0.9829,0.9849,0.9984,0.9984,1.0134,1.0283,1.0432,1.0493,1.0514,1.1084,1.1084,1.107,1.1036,1.0934,1.09,1.1016,1.0914,1.0914,1.107,1.1002,1.086,1.0799,1.0778,1.0717,1.0717,1.0717,1.0717,1.0717,1.0663,1.0555,1.0371,1.0161,0.9984,0.9984,0.9835,0.9822,0.9822,0.9822,0.9822,0.9822,0.9822,0.9795,0.9741,0.9741,0.9625,0.9435,0.9435,0.9293,0.9069,0.9069,0.9069,0.9069,0.9069,0.913,0.9211,0.9211,0.9211,0.9211,0.9211,0.9211,0.9211,0.9211,0.9211,0.9211,0.9211,0.9252,0.9279,0.9225,0.932,0.9415,0.932,0.9367,0.9408,0.9313,0.9178,0.9096,0.9191,0.9069,0.8939,0.9178,0.9062,0.8947,0.8981,0.0,0.8723,0.8757,0.8818,0.8886,0.8974,0.9035,0.9069,0.9069,0.918,0.9207,0.9207,0.9381,0.9523,0.9523,0.9605,0.968,0.9741,0.9741,0.9768,0.9822,0.9822,0.9822,0.9822,0.9822,0.9822,0.9822,0.9822,0.9822,0.9829,0.9862,1.0019,1.0107,1.0107,1.0188,1.0324,1.0324,1.0358,1.0432,1.0575,1.0636,1.0643,1.1233,1.1233,1.1206,1.1104,1.0941,1.0914,1.107,1.1043,1.107,1.1212,1.1104,1.0995,1.0887,1.0812,1.0717,1.0717,1.0717,1.0717,1.0717,1.0717,1.0629,1.0426,1.0229,1.0058,1.0058,0.9924,0.9822,0.9822,0.9822,0.9822,0.9822,0.9822,0.9822,0.9822,0.9822,0.9741,0.9612,0.9612,0.9462,0.9282,0.9282,0.9282,0.9282,0.9282,0.935,0.9381,0.9381,0.9381,0.9381,0.9381,0.9381,0.9381,0.9381,0.9381,0.9388,0.9442,0.9456,0.9462,0.951,0.9598,0.9639,0.949,0.953,0.9585,0.9476,0.9334,0.9309,0.9361,0.9218,0.9144,0.9347,0.9211,0.911,0.9268,0.9055,0.896,0.9062,0.9076,0.9117,0.9268,0.9282,0.9282,0.9282,0.9323,0.9357,0.9357,0.953,0.968,0.968,0.9768,0.9822,0.9822,0.9822,0.9822,0.9822,0.9822,0.9822,0.9822,0.9822,0.9822,0.9822,0.9822,0.9822,0.9829,0.9923,1.0107,1.0209,1.0263,1.0365,1.0493,1.0493,1.0521,1.0575,1.0683,1.0717,1.0717,1.1396,1.1396,1.1396,1.1389,1.1145,1.105,1.1348,1.126,1.1219,1.1369,1.126,1.1111,1.09,1.0812,1.0724,1.0717,1.0717,1.0717,1.0717,1.0717,1.0717,1.0717,1.0439,1.0283,1.0283,0.9985,0.9822,0.9822,0.9822,0.9822,0.9822,0.9822,0.9822,0.9822,0.9822,0.9741,0.9612,0.9612,0.9523,0.9381,0.9381,0.9381,0.9381,0.9381,0.9381,0.9388,0.9388,0.9388,0.9388,0.9388,0.9388,0.9388,0.9388,0.9388,0.9415,0.9564,0.9612,0.9639,0.9781,0.9822,0.9788,0.9646,0.9612,0.9612,0.9612,0.9496,0.9381,0.9388,0.9381,0.9381,0.9388,0.9381,0.9381,0.9381,0.9381,0.9381,0.9381,0.9381,0.9381,0.9381,0.9381,0.9381,0.9381,0.9517,0.9612,0.9612,0.9741,0.9822,0.9822,0.9822,0.9822,0.9822,0.9822,0.9822,0.9822,0.9822,0.9822,0.9822,0.9822,0.9822,0.9822,0.9822,0.9822,0.9829,0.9923,0.9984,1.0004,1.0215,1.0365,1.0493,1.0493,1.0588,1.0717,1.0717,1.0717,1.0717,1.1552,1.1552,1.1518,1.1409,1.1321,1.1253,1.1233,1.1261,1.1219,1.1369,1.126,1.1145,1.1104,1.0968,1.0772,1.0731,1.0717,1.0717,1.0717,1.0717,1.0717,1.0717,1.0534,1.0426,1.0426,1.0243,1.0141,1.0141,1.0141,1.0141,1.0141,1.0032,0.9916,0.9916,0.9869,0.9795,0.9754,0.9754,0.9673,0.9544,0.9544,0.9544,0.9544,0.9544,0.9605,0.9686,0.9686,0.9686,0.9686,0.9686,0.9686,0.9686,0.9686,0.9686,0.97,0.9747,0.9754,0.9768,0.9808,0.9822,0.9808,0.9768,0.9754,0.9754,0.9754,0.9646,0.9571,0.9673,0.9523,0.9442,0.9652,0.9517,0.9415,0.9523,0.9449,0.9381,0.9381,0.9476,0.9544,0.9544,0.9544,0.9544,0.9544,0.9585,0.9612,0.9612,0.9741,0.9822,0.9822,0.9822,0.9822,0.9822,0.9862,0.9916,0.9916,0.9876,0.9822,0.9822,0.9822,0.9822,0.9822,0.9822,0.9876,0.9923,0.997,1.0051,1.0222,1.0371,1.0453,1.05,1.0609,1.0677,1.0717,1.0717,1.0717,1.0717,1.1619,1.1619,1.1572,1.1416,1.1389,1.1362,1.1267,1.1253,1.1307,1.1463,1.1294,1.1185,1.1246,1.1016,1.0779,1.0812,1.0758,1.0717,1.0717,1.0717,1.0717,1.0717,1.0629,1.0555,1.0493,1.0351,1.0283,1.0283,1.0283,1.0283,1.0276,1.0181,1.0107,0.9984,0.9889,0.9876,0.9822,0.9822,0.9774,0.9693,0.9693,0.9693,0.9693,0.9693,0.9747,0.9829,0.989,0.9869,0.9829,0.989,0.9869,0.9822,0.9822,0.9863,0.9849,0.9849,0.9958,1.0005,1.0005,1.0005,1.0005,1.0005,0.991,0.9822,0.9822,0.9754,0.9734,0.9883,0.9768,0.972,0.9958,0.9856,0.9747,0.9781,0.9707,0.9625,0.9564,0.9632,0.9693,0.9693,0.9693,0.9693,0.9693,0.9693,0.9693,0.9693,0.9774,0.9849,0.9849,0.9856,0.9876,0.9998,0.997,1.0017,1.0141,1.0046,0.9971,0.9849,0.9971,0.9937,0.9822,0.9944,1.0019,0.9997,1.0112,1.0276,1.0378,1.0521,1.0582,1.0595,1.0683,1.0717,1.0717,1.0717,1.0717,1.0717,1.1619,1.1619,1.1572,1.1436,1.1409,1.1409,1.1409,1.1409,1.1463,1.1599,1.1375,1.1253,1.1375,1.1023,1.0833,1.0887,1.0826,1.0744,1.0744,1.0724,1.0717,1.0717,1.0717,1.0656,1.0514,1.0385,1.0317,1.0317,1.0317,1.0317,1.0317,1.0304,1.0222,1.0024,1.0011,0.993,0.9863,0.9863,0.9863,0.9863,0.9863,0.9863,0.9863,0.9863,0.9863,0.9883,0.9957,0.9916,0.9883,0.9943,0.9903,0.9863,0.9842,0.9883,1.0011,1.0011,1.0168,1.0283,1.0283,1.0283,1.0283,1.0283,1.0073,0.9863,0.9863,0.9863,0.9903,0.9977,1.0011,1.0051,1.0256,1.0283,1.0236,1.0031,0.9997,0.9936,0.9863,0.9829,0.9822,0.9822,0.9822,0.9822,0.9822,0.9836,0.9849,0.9863,0.9863,0.9924,0.9997,0.9937,0.9992,1.027,1.0154,1.0154,1.0297,1.031,1.0236,1.0011,1.0215,1.0134,0.9869,1.0154,1.0209,1.0038,1.0358,1.048,1.05,1.0643,1.0697,1.0704,1.0717,1.0717,1.0717,1.0717,1.0717,1.0724,1.1619,1.1619,1.1606,1.1572,1.1572,1.1572,1.1572,1.1572,1.1586,1.1613,1.1558,1.1491,1.1402,1.1307,1.1212,1.1124,1.0982,1.0833,1.0833,1.0785,1.0717,1.0717,1.0717,1.0704,1.067,1.0643,1.0622,1.0622,1.0622,1.0622,1.0622,1.05,1.0426,1.0392,1.0283,1.0209,1.0181,1.0181,1.0181,1.0181,1.0181,1.0181,1.0181,1.0181,1.0181,1.0188,1.0215,1.0209,1.0168,1.0017,1.0107,1.0161,1.0039,1.0107,1.0229,1.0229,1.0256,1.0283,1.0283,1.0283,1.0283,1.0283,1.0229,1.0181,1.0181,1.0181,1.0188,1.0222,1.0229,1.0243,1.0276,1.0283,1.027,1.0236,1.0127,0.9977,0.9943,0.9897,0.9822,0.9822,0.9822,0.9822,0.9822,0.9869,1.0053,1.0175,1.0181,1.0195,1.0229,1.0202,1.0209,1.0276,1.0358,1.0412,1.0446,1.0568,1.0493,1.0229,1.0263,1.0243,1.0181,1.0249,1.0324,1.0392,1.0344,1.0392,1.0493,1.0527,1.0541,1.0555,1.067,1.0717,1.0717,1.0717,1.0717,1.0751,1.1619,1.1619,1.1619,1.1619,1.1619,1.1619,1.1619,1.1619,1.1619,1.1619,1.1558,1.1504,1.1497,1.1369,1.1253,1.1241,1.1097,1.1023,1.0887,1.0806,1.0799,1.0724,1.0717,1.0717,1.0717,1.0717,1.0717,1.0717,1.0717,1.0717,1.0717,1.0636,1.0561,1.0487,1.0412,1.0344,1.0283,1.0283,1.0283,1.0283,1.0283,1.0283,1.0283,1.0283,1.0283,1.029,1.0358,1.0378,1.0358,1.0209,1.0215,1.0263,1.0181,1.0263,1.0378,1.0378,1.0432,1.0487,1.0487,1.0487,1.0487,1.0487,1.0487,1.0453,1.031,1.0283,1.0297,1.0365,1.0378,1.0405,1.048,1.0487,1.0466,1.0392,1.031,1.0209,1.0004,1.0046,1.0012,0.9876,0.9998,1.0039,1.0039,1.0114,1.0195,1.0276,1.0283,1.031,1.0378,1.0317,1.0344,1.0487,1.0493,1.0527,1.0602,1.0677,1.0643,1.0487,1.0487,1.0419,1.0283,1.0426,1.0493,1.0493,1.0487,1.0534,1.0602,1.0602,1.0602,1.0609,1.069,1.0717,1.0717,1.0717,1.0765,1.086,1.1619,1.1619,1.1619,1.1619,1.1619,1.1619,1.1619,1.1619,1.1619,1.1619,1.1511,1.1477,1.1606,1.1396,1.124,1.124,1.1219,1.1151,1.1029,1.0907,1.0826,1.0765,1.0731,1.0717,1.0717,1.0717,1.0717,1.0717,1.0717,1.0717,1.0717,1.0717,1.0649,1.0527,1.0527,1.0466,1.0358,1.0358,1.0358,1.0358,1.0358,1.0358,1.0358,1.0358,1.0358,1.0371,1.0487,1.0527,1.0507,1.0365,1.0331,1.0351,1.0324,1.0419,1.0527,1.0527,1.0622,1.0717,1.0717,1.0717,1.0717,1.0717,1.0717,1.0656,1.0412,1.0358,1.0392,1.0507,1.0527,1.0568,1.0697,1.0717,1.0677,1.0555,1.0507,1.0405,1.0098,1.0215,1.0236,1.0044,1.0202,1.029,1.0317,1.0317,1.0331,1.0351,1.0358,1.0405,1.0527,1.0419,1.0466,1.0711,1.0595,1.0595,1.0717,1.0717,1.0717,1.0717,1.0717,1.0588,1.0365,1.0609,1.0649,1.0534,1.0663,1.0717,1.0717,1.0717,1.0717,1.0717,1.0717,1.0717,1.0724,1.0751,1.0772,1.0907,1.1619,1.1619,1.1619,1.1619,1.1619,1.1619,1.1619,1.1619,1.1619,1.1619,1.1599,1.1599,1.1619,1.1586,1.1558,1.1558,1.1436,1.1355,1.1335,1.109,1.0873,1.0853,1.0792,1.0717,1.0717,1.0717,1.0717,1.0717,1.0717,1.0717,1.0717,1.0717,1.0711,1.069,1.069,1.0677,1.0663,1.0663,1.0663,1.0663,1.0663,1.0663,1.0663,1.0663,1.0663,1.0663,1.0683,1.069,1.0663,1.0514,1.0555,1.0636,1.0507,1.0568,1.069,1.069,1.0704,1.0717,1.0717,1.0717,1.0717,1.0717,1.0717,1.0711,1.067,1.0663,1.0663,1.0683,1.069,1.0697,1.0717,1.0717,1.0711,1.069,1.0575,1.048,1.0439,1.0344,1.0276,1.0249,1.027,1.0331,1.0453,1.0466,1.0521,1.0649,1.0663,1.067,1.069,1.067,1.0677,1.0717,1.0704,1.0697,1.0717,1.0717,1.0717,1.0717,1.0717,1.0697,1.0663,1.0704,1.0711,1.069,1.0711,1.0717,1.0717,1.0717,1.0717,1.0717,1.0717,1.0717,1.0738,1.0799,1.086,1.0921,1.1619,1.1619,1.1619,1.1619,1.1619,1.1619,1.1619,1.1687,1.1735,1.1735,1.1735,1.1769,1.1857,1.1789,1.1708,1.1626,1.1558,1.1484,1.1396,1.1267,1.1158,1.107,1.1002,1.0968,1.0968,1.0887,1.0779,1.0779,1.0765,1.0717,1.0717,1.0717,1.0717,1.0717,1.0717,1.0717,1.0717,1.0717,1.0717,1.0717,1.0717,1.0717,1.0717,1.0717,1.0717,1.0717,1.0717,1.0717,1.0711,1.0643,1.0663,1.0711,1.0643,1.0663,1.0717,1.0717,1.0717,1.0717,1.0717,1.0717,1.0717,1.0717,1.0717,1.0717,1.0717,1.0717,1.0717,1.0717,1.0717,1.0717,1.0717,1.0717,1.0717,1.0717,1.0663,1.0588,1.0507,1.0514,1.0527,1.0527,1.0527,1.0555,1.0616,1.0622,1.0649,1.0717,1.0717,1.0717,1.0717,1.0717,1.0717,1.0717,1.0717,1.0717,1.0717,1.0717,1.0717,1.0717,1.0717,1.0717,1.0717,1.0717,1.0717,1.0717,1.0717,1.0717,1.0717,1.0717,1.0717,1.0717,1.0717,1.0717,1.0738,1.0826,1.0995,1.1097]}]]